<?xml version="1.0" encoding="UTF-8" standalone="no" ?>
<gpx xmlns="http://www.topografix.com/GPX/1/1" xmlns:xsi="http://www.w3.org/2001/XMLSchema-instance" xsi:schemaLocation="http://www.topografix.com/GPX/1/1 http://www.topografix.com/GPX/1/1/gpx.xsd" version="1.1" creator="VisuGPX - https://www.visugpx.com">
  <metadata>
    <name>Chalabre circuit n'16</name>
    <desc><![CDATA[Randonnée vtt très sympa dans un cadre boisé et au calme. A voir mais surtout à faire.
]]></desc>
  </metadata>
  <trk>
    <name><![CDATA[chalabre n16 le 23 août 2016]]></name>
    <trkseg>
      <trkpt lat="42.98309" lon="2.00574">
        <ele>397.95528708</ele>
        <time>2016-08-23T07:14:50Z</time>
      </trkpt>
      <trkpt lat="42.98311" lon="2.0057">
        <ele>402.9552454</ele>
        <time>2016-08-23T07:15:19Z</time>
      </trkpt>
      <trkpt lat="42.98309" lon="2.00567">
        <ele>399.95500444</ele>
        <time>2016-08-23T07:16:50Z</time>
      </trkpt>
      <trkpt lat="42.98284" lon="2.00558">
        <ele>402.95367864</ele>
        <time>2016-08-23T07:16:55Z</time>
      </trkpt>
      <trkpt lat="42.98271" lon="2.00545">
        <ele>402.95262932</ele>
        <time>2016-08-23T07:17:00Z</time>
      </trkpt>
      <trkpt lat="42.98258" lon="2.00538">
        <ele>398.95183912</ele>
        <time>2016-08-23T07:17:05Z</time>
      </trkpt>
      <trkpt lat="42.98245" lon="2.00531">
        <ele>397.95101192</ele>
        <time>2016-08-23T07:17:09Z</time>
      </trkpt>
      <trkpt lat="42.98217" lon="2.00526">
        <ele>396.94971608</ele>
        <time>2016-08-23T07:17:14Z</time>
      </trkpt>
      <trkpt lat="42.98207" lon="2.00502">
        <ele>379.94836784</ele>
        <time>2016-08-23T07:17:18Z</time>
      </trkpt>
      <trkpt lat="42.98205" lon="2.00485">
        <ele>382.94757848</ele>
        <time>2016-08-23T07:17:22Z</time>
      </trkpt>
      <trkpt lat="42.98214" lon="2.00457">
        <ele>381.94680864</ele>
        <time>2016-08-23T07:17:26Z</time>
      </trkpt>
      <trkpt lat="42.98212" lon="2.00427">
        <ele>383.94553564</ele>
        <time>2016-08-23T07:17:31Z</time>
      </trkpt>
      <trkpt lat="42.98198" lon="2.00412">
        <ele>384.94440496</ele>
        <time>2016-08-23T07:17:35Z</time>
      </trkpt>
      <trkpt lat="42.982" lon="2.00381">
        <ele>383.94323888</ele>
        <time>2016-08-23T07:17:39Z</time>
      </trkpt>
      <trkpt lat="42.98209" lon="2.00343">
        <ele>386.94209472</ele>
        <time>2016-08-23T07:17:44Z</time>
      </trkpt>
      <trkpt lat="42.98215" lon="2.0031">
        <ele>384.94101188</ele>
        <time>2016-08-23T07:17:49Z</time>
      </trkpt>
      <trkpt lat="42.98215" lon="2.00279">
        <ele>381.9397332</ele>
        <time>2016-08-23T07:17:54Z</time>
      </trkpt>
      <trkpt lat="42.98217" lon="2.00256">
        <ele>382.93889652</ele>
        <time>2016-08-23T07:17:58Z</time>
      </trkpt>
      <trkpt lat="42.98216" lon="2.0023">
        <ele>380.93780632</ele>
        <time>2016-08-23T07:18:03Z</time>
      </trkpt>
      <trkpt lat="42.98227" lon="2.00214">
        <ele>384.93762616</ele>
        <time>2016-08-23T07:18:07Z</time>
      </trkpt>
      <trkpt lat="42.98231" lon="2.00205">
        <ele>374.93744128</ele>
        <time>2016-08-23T07:18:14Z</time>
      </trkpt>
      <trkpt lat="42.98246" lon="2.00207">
        <ele>374.93810596</ele>
        <time>2016-08-23T07:18:18Z</time>
      </trkpt>
      <trkpt lat="42.9827" lon="2.00184">
        <ele>373.9381742</ele>
        <time>2016-08-23T07:18:23Z</time>
      </trkpt>
      <trkpt lat="42.98289" lon="2.0016">
        <ele>376.93795208</ele>
        <time>2016-08-23T07:18:28Z</time>
      </trkpt>
      <trkpt lat="42.98301" lon="2.00153">
        <ele>381.93815548</ele>
        <time>2016-08-23T07:18:32Z</time>
      </trkpt>
      <trkpt lat="42.9832" lon="2.0014">
        <ele>383.93839084</ele>
        <time>2016-08-23T07:18:37Z</time>
      </trkpt>
      <trkpt lat="42.98337" lon="2.00131">
        <ele>386.93872248</ele>
        <time>2016-08-23T07:18:41Z</time>
      </trkpt>
      <trkpt lat="42.98356" lon="2.00121">
        <ele>389.93906492</ele>
        <time>2016-08-23T07:18:46Z</time>
      </trkpt>
      <trkpt lat="42.98382" lon="2.00109">
        <ele>384.93966284</ele>
        <time>2016-08-23T07:18:51Z</time>
      </trkpt>
      <trkpt lat="42.984" lon="2.00099">
        <ele>383.9399842</ele>
        <time>2016-08-23T07:18:55Z</time>
      </trkpt>
      <trkpt lat="42.98422" lon="2.00093">
        <ele>383.94063016</ele>
        <time>2016-08-23T07:18:59Z</time>
      </trkpt>
      <trkpt lat="42.98439" lon="2.00084">
        <ele>384.94093104</ele>
        <time>2016-08-23T07:19:03Z</time>
      </trkpt>
      <trkpt lat="42.98454" lon="2.00078">
        <ele>383.94128636</ele>
        <time>2016-08-23T07:19:07Z</time>
      </trkpt>
      <trkpt lat="42.98471" lon="2.0007">
        <ele>381.94161684</ele>
        <time>2016-08-23T07:19:12Z</time>
      </trkpt>
      <trkpt lat="42.98479" lon="2.00065">
        <ele>382.94178284</ele>
        <time>2016-08-23T07:19:16Z</time>
      </trkpt>
      <trkpt lat="42.98501" lon="2.00067">
        <ele>379.94271536</ele>
        <time>2016-08-23T07:19:21Z</time>
      </trkpt>
      <trkpt lat="42.98506" lon="2.00065">
        <ele>380.94282852</ele>
        <time>2016-08-23T07:19:26Z</time>
      </trkpt>
      <trkpt lat="42.98517" lon="2.00059">
        <ele>383.94301712</ele>
        <time>2016-08-23T07:19:30Z</time>
      </trkpt>
      <trkpt lat="42.98524" lon="2.00053">
        <ele>385.94307068</ele>
        <time>2016-08-23T07:19:34Z</time>
      </trkpt>
      <trkpt lat="42.9853" lon="2.00059">
        <ele>388.94355336</ele>
        <time>2016-08-23T07:19:39Z</time>
      </trkpt>
      <trkpt lat="42.98541" lon="2.00057">
        <ele>390.94388248</ele>
        <time>2016-08-23T07:19:44Z</time>
      </trkpt>
      <trkpt lat="42.98555" lon="2.00027">
        <ele>391.9432724</ele>
        <time>2016-08-23T07:19:48Z</time>
      </trkpt>
      <trkpt lat="42.9855" lon="2.00032">
        <ele>391.94326408</ele>
        <time>2016-08-23T07:19:55Z</time>
      </trkpt>
      <trkpt lat="42.98552" lon="2.0004">
        <ele>390.94369044</ele>
        <time>2016-08-23T07:19:59Z</time>
      </trkpt>
      <trkpt lat="42.98554" lon="2.00037">
        <ele>393.9436516</ele>
        <time>2016-08-23T07:20:08Z</time>
      </trkpt>
      <trkpt lat="42.98565" lon="2.0003">
        <ele>393.94381828</ele>
        <time>2016-08-23T07:20:12Z</time>
      </trkpt>
      <trkpt lat="42.98571" lon="2.00023">
        <ele>390.94378036</ele>
        <time>2016-08-23T07:20:18Z</time>
      </trkpt>
      <trkpt lat="42.98581" lon="2.00022">
        <ele>394.9441256</ele>
        <time>2016-08-23T07:20:23Z</time>
      </trkpt>
      <trkpt lat="42.98589" lon="2.00017">
        <ele>392.9442504</ele>
        <time>2016-08-23T07:20:27Z</time>
      </trkpt>
      <trkpt lat="42.98597" lon="2.00014">
        <ele>393.94443004</ele>
        <time>2016-08-23T07:20:34Z</time>
      </trkpt>
      <trkpt lat="42.98604" lon="2.00011">
        <ele>394.9446076</ele>
        <time>2016-08-23T07:20:38Z</time>
      </trkpt>
      <trkpt lat="42.98615" lon="2.00004">
        <ele>393.94475056</ele>
        <time>2016-08-23T07:20:43Z</time>
      </trkpt>
      <trkpt lat="42.98622" lon="1.99998">
        <ele>392.94488252</ele>
        <time>2016-08-23T07:20:48Z</time>
      </trkpt>
      <trkpt lat="42.98631" lon="1.99989">
        <ele>393.94522096</ele>
        <time>2016-08-23T07:20:52Z</time>
      </trkpt>
      <trkpt lat="42.98642" lon="1.99977">
        <ele>396.94566676</ele>
        <time>2016-08-23T07:20:57Z</time>
      </trkpt>
      <trkpt lat="42.98648" lon="1.99968">
        <ele>395.9459074</ele>
        <time>2016-08-23T07:21:01Z</time>
      </trkpt>
      <trkpt lat="42.98655" lon="1.99957">
        <ele>395.94620244</ele>
        <time>2016-08-23T07:21:05Z</time>
      </trkpt>
      <trkpt lat="42.98659" lon="1.99947">
        <ele>393.94637424</ele>
        <time>2016-08-23T07:21:12Z</time>
      </trkpt>
      <trkpt lat="42.98665" lon="1.99935">
        <ele>393.94658584</ele>
        <time>2016-08-23T07:21:16Z</time>
      </trkpt>
      <trkpt lat="42.98671" lon="1.99919">
        <ele>396.94684388</ele>
        <time>2016-08-23T07:21:21Z</time>
      </trkpt>
      <trkpt lat="42.98674" lon="1.99905">
        <ele>398.94697096</ele>
        <time>2016-08-23T07:21:25Z</time>
      </trkpt>
      <trkpt lat="42.98676" lon="1.99891">
        <ele>400.9470468</ele>
        <time>2016-08-23T07:21:30Z</time>
      </trkpt>
      <trkpt lat="42.9868" lon="1.9988">
        <ele>401.94718096</ele>
        <time>2016-08-23T07:21:34Z</time>
      </trkpt>
      <trkpt lat="42.98685" lon="1.99861">
        <ele>399.9474174</ele>
        <time>2016-08-23T07:21:39Z</time>
      </trkpt>
      <trkpt lat="42.98688" lon="1.99846">
        <ele>401.9475328</ele>
        <time>2016-08-23T07:21:44Z</time>
      </trkpt>
      <trkpt lat="42.9869" lon="1.99835">
        <ele>404.94759808</ele>
        <time>2016-08-23T07:21:48Z</time>
      </trkpt>
      <trkpt lat="42.98692" lon="1.9982">
        <ele>404.947692</ele>
        <time>2016-08-23T07:21:52Z</time>
      </trkpt>
      <trkpt lat="42.98691" lon="1.99807">
        <ele>404.94765028</ele>
        <time>2016-08-23T07:21:57Z</time>
      </trkpt>
      <trkpt lat="42.9869" lon="1.99797">
        <ele>404.94760744</ele>
        <time>2016-08-23T07:22:01Z</time>
      </trkpt>
      <trkpt lat="42.98689" lon="1.99786">
        <ele>406.94755684</ele>
        <time>2016-08-23T07:22:05Z</time>
      </trkpt>
      <trkpt lat="42.98687" lon="1.99774">
        <ele>406.94746816</ele>
        <time>2016-08-23T07:22:10Z</time>
      </trkpt>
      <trkpt lat="42.98687" lon="1.99763">
        <ele>406.94748304</ele>
        <time>2016-08-23T07:22:14Z</time>
      </trkpt>
      <trkpt lat="42.98687" lon="1.99752">
        <ele>406.9474892</ele>
        <time>2016-08-23T07:22:19Z</time>
      </trkpt>
      <trkpt lat="42.98684" lon="1.99741">
        <ele>408.94736344</ele>
        <time>2016-08-23T07:22:24Z</time>
      </trkpt>
      <trkpt lat="42.98679" lon="1.99733">
        <ele>407.9471712</ele>
        <time>2016-08-23T07:22:28Z</time>
      </trkpt>
      <trkpt lat="42.98673" lon="1.99719">
        <ele>407.94692488</ele>
        <time>2016-08-23T07:22:33Z</time>
      </trkpt>
      <trkpt lat="42.98668" lon="1.99709">
        <ele>406.9467278</ele>
        <time>2016-08-23T07:22:38Z</time>
      </trkpt>
      <trkpt lat="42.98663" lon="1.997">
        <ele>406.94651644</ele>
        <time>2016-08-23T07:22:42Z</time>
      </trkpt>
      <trkpt lat="42.98658" lon="1.9969">
        <ele>404.94632604</ele>
        <time>2016-08-23T07:22:46Z</time>
      </trkpt>
      <trkpt lat="42.98653" lon="1.99681">
        <ele>405.946126</ele>
        <time>2016-08-23T07:22:52Z</time>
      </trkpt>
      <trkpt lat="42.98652" lon="1.99669">
        <ele>405.94606416</ele>
        <time>2016-08-23T07:22:57Z</time>
      </trkpt>
      <trkpt lat="42.9865" lon="1.99661">
        <ele>403.94601512</ele>
        <time>2016-08-23T07:23:02Z</time>
      </trkpt>
      <trkpt lat="42.98652" lon="1.99647">
        <ele>404.9460884</ele>
        <time>2016-08-23T07:23:07Z</time>
      </trkpt>
      <trkpt lat="42.98654" lon="1.99636">
        <ele>404.94616072</ele>
        <time>2016-08-23T07:23:12Z</time>
      </trkpt>
      <trkpt lat="42.98656" lon="1.99629">
        <ele>406.94622716</ele>
        <time>2016-08-23T07:23:19Z</time>
      </trkpt>
      <trkpt lat="42.9866" lon="1.99624">
        <ele>408.946387</ele>
        <time>2016-08-23T07:23:24Z</time>
      </trkpt>
      <trkpt lat="42.9867" lon="1.99613">
        <ele>410.94681064</ele>
        <time>2016-08-23T07:23:28Z</time>
      </trkpt>
      <trkpt lat="42.98679" lon="1.996">
        <ele>409.94715296</ele>
        <time>2016-08-23T07:23:33Z</time>
      </trkpt>
      <trkpt lat="42.98687" lon="1.99591">
        <ele>411.94748564</ele>
        <time>2016-08-23T07:23:37Z</time>
      </trkpt>
      <trkpt lat="42.98694" lon="1.99586">
        <ele>418.94774788</ele>
        <time>2016-08-23T07:23:45Z</time>
      </trkpt>
      <trkpt lat="42.98699" lon="1.99578">
        <ele>420.94794044</ele>
        <time>2016-08-23T07:23:49Z</time>
      </trkpt>
      <trkpt lat="42.98702" lon="1.99569">
        <ele>422.94809028</ele>
        <time>2016-08-23T07:23:53Z</time>
      </trkpt>
      <trkpt lat="42.98709" lon="1.99559">
        <ele>428.94836464</ele>
        <time>2016-08-23T07:23:57Z</time>
      </trkpt>
      <trkpt lat="42.98716" lon="1.99551">
        <ele>423.9486372</ele>
        <time>2016-08-23T07:24:02Z</time>
      </trkpt>
      <trkpt lat="42.98725" lon="1.99538">
        <ele>418.94901228</ele>
        <time>2016-08-23T07:24:07Z</time>
      </trkpt>
      <trkpt lat="42.98731" lon="1.99531">
        <ele>422.94925352</ele>
        <time>2016-08-23T07:24:13Z</time>
      </trkpt>
      <trkpt lat="42.9873" lon="1.99513">
        <ele>422.94921796</ele>
        <time>2016-08-23T07:24:18Z</time>
      </trkpt>
      <trkpt lat="42.9873" lon="1.995">
        <ele>421.94920312</ele>
        <time>2016-08-23T07:24:22Z</time>
      </trkpt>
      <trkpt lat="42.98728" lon="1.99488">
        <ele>423.949134</ele>
        <time>2016-08-23T07:24:26Z</time>
      </trkpt>
      <trkpt lat="42.98724" lon="1.99475">
        <ele>424.9489616</ele>
        <time>2016-08-23T07:24:30Z</time>
      </trkpt>
      <trkpt lat="42.98723" lon="1.99457">
        <ele>430.94890348</ele>
        <time>2016-08-23T07:24:35Z</time>
      </trkpt>
      <trkpt lat="42.98718" lon="1.99442">
        <ele>434.9487096</ele>
        <time>2016-08-23T07:24:40Z</time>
      </trkpt>
      <trkpt lat="42.98714" lon="1.99424">
        <ele>434.94854592</ele>
        <time>2016-08-23T07:24:44Z</time>
      </trkpt>
      <trkpt lat="42.98704" lon="1.99406">
        <ele>435.94814896</ele>
        <time>2016-08-23T07:24:49Z</time>
      </trkpt>
      <trkpt lat="42.98695" lon="1.99389">
        <ele>434.94778332</ele>
        <time>2016-08-23T07:24:54Z</time>
      </trkpt>
      <trkpt lat="42.98691" lon="1.99375">
        <ele>435.94763556</ele>
        <time>2016-08-23T07:24:58Z</time>
      </trkpt>
      <trkpt lat="42.98687" lon="1.9936">
        <ele>435.94747228</ele>
        <time>2016-08-23T07:25:02Z</time>
      </trkpt>
      <trkpt lat="42.98683" lon="1.99348">
        <ele>441.94732488</ele>
        <time>2016-08-23T07:25:06Z</time>
      </trkpt>
      <trkpt lat="42.98674" lon="1.99338">
        <ele>442.94696584</ele>
        <time>2016-08-23T07:25:11Z</time>
      </trkpt>
      <trkpt lat="42.98666" lon="1.99325">
        <ele>439.94663048</ele>
        <time>2016-08-23T07:25:16Z</time>
      </trkpt>
      <trkpt lat="42.98662" lon="1.99315">
        <ele>442.94646804</ele>
        <time>2016-08-23T07:25:20Z</time>
      </trkpt>
      <trkpt lat="42.98654" lon="1.99302">
        <ele>442.94616856</ele>
        <time>2016-08-23T07:25:25Z</time>
      </trkpt>
      <trkpt lat="42.9865" lon="1.99284">
        <ele>438.94599956</ele>
        <time>2016-08-23T07:25:30Z</time>
      </trkpt>
      <trkpt lat="42.98643" lon="1.99266">
        <ele>437.94572708</ele>
        <time>2016-08-23T07:25:35Z</time>
      </trkpt>
      <trkpt lat="42.9863" lon="1.99246">
        <ele>433.94521608</ele>
        <time>2016-08-23T07:25:40Z</time>
      </trkpt>
      <trkpt lat="42.98621" lon="1.99228">
        <ele>432.9448266</ele>
        <time>2016-08-23T07:25:44Z</time>
      </trkpt>
      <trkpt lat="42.98613" lon="1.99213">
        <ele>434.94452864</ele>
        <time>2016-08-23T07:25:48Z</time>
      </trkpt>
      <trkpt lat="42.98605" lon="1.99193">
        <ele>433.94421624</ele>
        <time>2016-08-23T07:25:53Z</time>
      </trkpt>
      <trkpt lat="42.98593" lon="1.99179">
        <ele>433.9437086</ele>
        <time>2016-08-23T07:25:58Z</time>
      </trkpt>
      <trkpt lat="42.98582" lon="1.9917">
        <ele>436.94327212</ele>
        <time>2016-08-23T07:26:02Z</time>
      </trkpt>
      <trkpt lat="42.98579" lon="1.99164">
        <ele>438.94313856</ele>
        <time>2016-08-23T07:26:04Z</time>
      </trkpt>
      <trkpt lat="42.98558" lon="1.99145">
        <ele>439.9423006</ele>
        <time>2016-08-23T07:26:13Z</time>
      </trkpt>
      <trkpt lat="42.98543" lon="1.99124">
        <ele>438.94171356</ele>
        <time>2016-08-23T07:26:18Z</time>
      </trkpt>
      <trkpt lat="42.98528" lon="1.99167">
        <ele>438.941127</ele>
        <time>2016-08-23T07:26:23Z</time>
      </trkpt>
      <trkpt lat="42.98525" lon="1.99184">
        <ele>441.94098012</ele>
        <time>2016-08-23T07:26:26Z</time>
      </trkpt>
      <trkpt lat="42.9855" lon="1.9905">
        <ele>488.94201644</ele>
        <time>2016-08-23T07:27:01Z</time>
      </trkpt>
      <trkpt lat="42.98532" lon="1.99004">
        <ele>453.94126144</ele>
        <time>2016-08-23T07:27:06Z</time>
      </trkpt>
      <trkpt lat="42.98524" lon="1.98999">
        <ele>451.940959</ele>
        <time>2016-08-23T07:27:12Z</time>
      </trkpt>
      <trkpt lat="42.98521" lon="1.98982">
        <ele>456.940839</ele>
        <time>2016-08-23T07:27:16Z</time>
      </trkpt>
      <trkpt lat="42.98518" lon="1.98964">
        <ele>450.940708</ele>
        <time>2016-08-23T07:27:21Z</time>
      </trkpt>
      <trkpt lat="42.98511" lon="1.98947">
        <ele>441.94045152</ele>
        <time>2016-08-23T07:27:25Z</time>
      </trkpt>
      <trkpt lat="42.98516" lon="1.9893">
        <ele>451.94065392</ele>
        <time>2016-08-23T07:27:30Z</time>
      </trkpt>
      <trkpt lat="42.98518" lon="1.98918">
        <ele>457.94072036</ele>
        <time>2016-08-23T07:27:35Z</time>
      </trkpt>
      <trkpt lat="42.98516" lon="1.98845">
        <ele>470.94063228</ele>
        <time>2016-08-23T07:28:03Z</time>
      </trkpt>
      <trkpt lat="42.98509" lon="1.98838">
        <ele>472.9403574</ele>
        <time>2016-08-23T07:28:07Z</time>
      </trkpt>
      <trkpt lat="42.98488" lon="1.9883">
        <ele>458.93950736</ele>
        <time>2016-08-23T07:28:12Z</time>
      </trkpt>
      <trkpt lat="42.98484" lon="1.98823">
        <ele>464.93937224</ele>
        <time>2016-08-23T07:28:17Z</time>
      </trkpt>
      <trkpt lat="42.98479" lon="1.98814">
        <ele>464.93917404</ele>
        <time>2016-08-23T07:28:21Z</time>
      </trkpt>
      <trkpt lat="42.98475" lon="1.988">
        <ele>460.93898248</ele>
        <time>2016-08-23T07:28:26Z</time>
      </trkpt>
      <trkpt lat="42.98472" lon="1.98791">
        <ele>466.93888644</ele>
        <time>2016-08-23T07:28:31Z</time>
      </trkpt>
      <trkpt lat="42.98467" lon="1.98782">
        <ele>463.93866956</ele>
        <time>2016-08-23T07:28:35Z</time>
      </trkpt>
      <trkpt lat="42.98471" lon="1.98774">
        <ele>465.93884932</ele>
        <time>2016-08-23T07:28:41Z</time>
      </trkpt>
      <trkpt lat="42.98469" lon="1.98775">
        <ele>468.93876408</ele>
        <time>2016-08-23T07:28:50Z</time>
      </trkpt>
      <trkpt lat="42.98428" lon="1.98682">
        <ele>503.93712712</ele>
        <time>2016-08-23T07:29:22Z</time>
      </trkpt>
      <trkpt lat="42.98424" lon="1.98654">
        <ele>490.93697544</ele>
        <time>2016-08-23T07:29:27Z</time>
      </trkpt>
      <trkpt lat="42.98417" lon="1.98643">
        <ele>477.93669224</ele>
        <time>2016-08-23T07:29:31Z</time>
      </trkpt>
      <trkpt lat="42.98421" lon="1.98625">
        <ele>484.93682292</ele>
        <time>2016-08-23T07:29:35Z</time>
      </trkpt>
      <trkpt lat="42.98412" lon="1.98593">
        <ele>467.93646472</ele>
        <time>2016-08-23T07:29:40Z</time>
      </trkpt>
      <trkpt lat="42.98404" lon="1.98568">
        <ele>462.93615476</ele>
        <time>2016-08-23T07:29:44Z</time>
      </trkpt>
      <trkpt lat="42.98399" lon="1.9856">
        <ele>462.93596204</ele>
        <time>2016-08-23T07:29:50Z</time>
      </trkpt>
      <trkpt lat="42.984" lon="1.98553">
        <ele>467.93600032</ele>
        <time>2016-08-23T07:29:55Z</time>
      </trkpt>
      <trkpt lat="42.98397" lon="1.98533">
        <ele>466.93587776</ele>
        <time>2016-08-23T07:30:00Z</time>
      </trkpt>
      <trkpt lat="42.98396" lon="1.98521">
        <ele>469.935828</ele>
        <time>2016-08-23T07:30:04Z</time>
      </trkpt>
      <trkpt lat="42.98392" lon="1.98507">
        <ele>470.93567192</ele>
        <time>2016-08-23T07:30:08Z</time>
      </trkpt>
      <trkpt lat="42.98389" lon="1.9849">
        <ele>474.93554976</ele>
        <time>2016-08-23T07:30:13Z</time>
      </trkpt>
      <trkpt lat="42.98387" lon="1.98476">
        <ele>475.93548084</ele>
        <time>2016-08-23T07:30:17Z</time>
      </trkpt>
      <trkpt lat="42.98388" lon="1.98456">
        <ele>472.93550108</ele>
        <time>2016-08-23T07:30:22Z</time>
      </trkpt>
      <trkpt lat="42.98391" lon="1.98445">
        <ele>472.93565536</ele>
        <time>2016-08-23T07:30:27Z</time>
      </trkpt>
      <trkpt lat="42.98397" lon="1.98437">
        <ele>472.93588756</ele>
        <time>2016-08-23T07:30:31Z</time>
      </trkpt>
      <trkpt lat="42.98407" lon="1.98426">
        <ele>473.93629312</ele>
        <time>2016-08-23T07:30:36Z</time>
      </trkpt>
      <trkpt lat="42.98414" lon="1.98402">
        <ele>472.93655536</ele>
        <time>2016-08-23T07:30:41Z</time>
      </trkpt>
      <trkpt lat="42.98414" lon="1.98394">
        <ele>475.93656492</ele>
        <time>2016-08-23T07:30:45Z</time>
      </trkpt>
      <trkpt lat="42.9842" lon="1.98373">
        <ele>476.93678612</ele>
        <time>2016-08-23T07:30:50Z</time>
      </trkpt>
      <trkpt lat="42.98425" lon="1.98354">
        <ele>474.93701184</ele>
        <time>2016-08-23T07:30:55Z</time>
      </trkpt>
      <trkpt lat="42.98432" lon="1.98341">
        <ele>473.93726936</ele>
        <time>2016-08-23T07:30:59Z</time>
      </trkpt>
      <trkpt lat="42.98432" lon="1.98326">
        <ele>475.93726224</ele>
        <time>2016-08-23T07:31:03Z</time>
      </trkpt>
      <trkpt lat="42.98427" lon="1.98311">
        <ele>475.9370738</ele>
        <time>2016-08-23T07:31:07Z</time>
      </trkpt>
      <trkpt lat="42.98427" lon="1.983">
        <ele>480.93709728</ele>
        <time>2016-08-23T07:31:13Z</time>
      </trkpt>
      <trkpt lat="42.98426" lon="1.9829">
        <ele>475.93703268</ele>
        <time>2016-08-23T07:31:17Z</time>
      </trkpt>
      <trkpt lat="42.9844" lon="1.98268">
        <ele>474.93759944</ele>
        <time>2016-08-23T07:31:21Z</time>
      </trkpt>
      <trkpt lat="42.9844" lon="1.98258">
        <ele>473.93758972</ele>
        <time>2016-08-23T07:31:26Z</time>
      </trkpt>
      <trkpt lat="42.98443" lon="1.98249">
        <ele>476.93771644</ele>
        <time>2016-08-23T07:31:31Z</time>
      </trkpt>
      <trkpt lat="42.98446" lon="1.98239">
        <ele>477.93782024</ele>
        <time>2016-08-23T07:31:39Z</time>
      </trkpt>
      <trkpt lat="42.98444" lon="1.98229">
        <ele>472.93774492</ele>
        <time>2016-08-23T07:31:44Z</time>
      </trkpt>
      <trkpt lat="42.98449" lon="1.98219">
        <ele>474.93794132</ele>
        <time>2016-08-23T07:31:48Z</time>
      </trkpt>
      <trkpt lat="42.98457" lon="1.98216">
        <ele>473.93828328</ele>
        <time>2016-08-23T07:31:56Z</time>
      </trkpt>
      <trkpt lat="42.98462" lon="1.98202">
        <ele>473.93846012</ele>
        <time>2016-08-23T07:32:00Z</time>
      </trkpt>
      <trkpt lat="42.98461" lon="1.98197">
        <ele>474.93845108</ele>
        <time>2016-08-23T07:32:07Z</time>
      </trkpt>
      <trkpt lat="42.98468" lon="1.98183">
        <ele>478.938707</ele>
        <time>2016-08-23T07:32:12Z</time>
      </trkpt>
      <trkpt lat="42.98461" lon="1.98165">
        <ele>480.93841876</ele>
        <time>2016-08-23T07:32:16Z</time>
      </trkpt>
      <trkpt lat="42.98454" lon="1.98157">
        <ele>479.93817512</ele>
        <time>2016-08-23T07:32:23Z</time>
      </trkpt>
      <trkpt lat="42.98444" lon="1.98146">
        <ele>480.93776716</ele>
        <time>2016-08-23T07:32:27Z</time>
      </trkpt>
      <trkpt lat="42.98462" lon="1.98122">
        <ele>473.9384728</ele>
        <time>2016-08-23T07:32:31Z</time>
      </trkpt>
      <trkpt lat="42.98454" lon="1.98129">
        <ele>474.93816028</ele>
        <time>2016-08-23T07:32:36Z</time>
      </trkpt>
      <trkpt lat="42.98449" lon="1.98127">
        <ele>474.9379434</ele>
        <time>2016-08-23T07:32:41Z</time>
      </trkpt>
      <trkpt lat="42.98436" lon="1.98108">
        <ele>475.93741844</ele>
        <time>2016-08-23T07:32:46Z</time>
      </trkpt>
      <trkpt lat="42.98425" lon="1.98092">
        <ele>474.93700412</ele>
        <time>2016-08-23T07:32:50Z</time>
      </trkpt>
      <trkpt lat="42.98419" lon="1.98075">
        <ele>475.93676148</ele>
        <time>2016-08-23T07:32:55Z</time>
      </trkpt>
      <trkpt lat="42.98416" lon="1.98064">
        <ele>475.93663024</ele>
        <time>2016-08-23T07:32:59Z</time>
      </trkpt>
      <trkpt lat="42.98416" lon="1.9805">
        <ele>477.9366572</ele>
        <time>2016-08-23T07:33:03Z</time>
      </trkpt>
      <trkpt lat="42.98424" lon="1.98035">
        <ele>479.93693988</ele>
        <time>2016-08-23T07:33:07Z</time>
      </trkpt>
      <trkpt lat="42.98422" lon="1.98036">
        <ele>480.9368752</ele>
        <time>2016-08-23T07:33:11Z</time>
      </trkpt>
      <trkpt lat="42.98416" lon="1.98022">
        <ele>481.93662588</ele>
        <time>2016-08-23T07:33:16Z</time>
      </trkpt>
      <trkpt lat="42.98415" lon="1.98008">
        <ele>482.93658208</ele>
        <time>2016-08-23T07:33:20Z</time>
      </trkpt>
      <trkpt lat="42.98412" lon="1.97996">
        <ele>478.93647732</ele>
        <time>2016-08-23T07:33:24Z</time>
      </trkpt>
      <trkpt lat="42.98418" lon="1.9798">
        <ele>482.93671392</ele>
        <time>2016-08-23T07:33:28Z</time>
      </trkpt>
      <trkpt lat="42.98418" lon="1.97965">
        <ele>484.93672472</ele>
        <time>2016-08-23T07:33:32Z</time>
      </trkpt>
      <trkpt lat="42.98422" lon="1.97949">
        <ele>484.93689096</ele>
        <time>2016-08-23T07:33:37Z</time>
      </trkpt>
      <trkpt lat="42.98409" lon="1.97937">
        <ele>484.936361</ele>
        <time>2016-08-23T07:33:42Z</time>
      </trkpt>
      <trkpt lat="42.9841" lon="1.97926">
        <ele>487.9364066</ele>
        <time>2016-08-23T07:33:47Z</time>
      </trkpt>
      <trkpt lat="42.98408" lon="1.97913">
        <ele>486.9363326</ele>
        <time>2016-08-23T07:33:52Z</time>
      </trkpt>
      <trkpt lat="42.98403" lon="1.97903">
        <ele>485.93611124</ele>
        <time>2016-08-23T07:33:56Z</time>
      </trkpt>
      <trkpt lat="42.98396" lon="1.97896">
        <ele>484.9358404</ele>
        <time>2016-08-23T07:34:01Z</time>
      </trkpt>
      <trkpt lat="42.98389" lon="1.97885">
        <ele>485.9355598</ele>
        <time>2016-08-23T07:34:05Z</time>
      </trkpt>
      <trkpt lat="42.98386" lon="1.9787">
        <ele>483.93544732</ele>
        <time>2016-08-23T07:34:09Z</time>
      </trkpt>
      <trkpt lat="42.98393" lon="1.97857">
        <ele>483.93571296</ele>
        <time>2016-08-23T07:34:13Z</time>
      </trkpt>
      <trkpt lat="42.98385" lon="1.97851">
        <ele>484.93541672</ele>
        <time>2016-08-23T07:34:19Z</time>
      </trkpt>
      <trkpt lat="42.9838" lon="1.97842">
        <ele>483.93521548</ele>
        <time>2016-08-23T07:34:27Z</time>
      </trkpt>
      <trkpt lat="42.98372" lon="1.97835">
        <ele>480.9348738</ele>
        <time>2016-08-23T07:34:31Z</time>
      </trkpt>
      <trkpt lat="42.98372" lon="1.97823">
        <ele>482.93487376</ele>
        <time>2016-08-23T07:34:38Z</time>
      </trkpt>
      <trkpt lat="42.98377" lon="1.97805">
        <ele>486.9350944</ele>
        <time>2016-08-23T07:34:42Z</time>
      </trkpt>
      <trkpt lat="42.9837" lon="1.978">
        <ele>488.9347868</ele>
        <time>2016-08-23T07:34:46Z</time>
      </trkpt>
      <trkpt lat="42.98361" lon="1.97791">
        <ele>488.93443088</ele>
        <time>2016-08-23T07:34:50Z</time>
      </trkpt>
      <trkpt lat="42.98364" lon="1.97779">
        <ele>489.93456104</ele>
        <time>2016-08-23T07:34:54Z</time>
      </trkpt>
      <trkpt lat="42.98358" lon="1.97771">
        <ele>488.93432964</ele>
        <time>2016-08-23T07:34:59Z</time>
      </trkpt>
      <trkpt lat="42.98353" lon="1.97764">
        <ele>489.93412704</ele>
        <time>2016-08-23T07:35:05Z</time>
      </trkpt>
      <trkpt lat="42.98343" lon="1.97764">
        <ele>490.93371256</ele>
        <time>2016-08-23T07:35:09Z</time>
      </trkpt>
      <trkpt lat="42.98338" lon="1.97755">
        <ele>499.93350144</ele>
        <time>2016-08-23T07:35:17Z</time>
      </trkpt>
      <trkpt lat="42.98339" lon="1.9774">
        <ele>495.93355904</ele>
        <time>2016-08-23T07:35:21Z</time>
      </trkpt>
      <trkpt lat="42.98332" lon="1.97741">
        <ele>496.93326372</ele>
        <time>2016-08-23T07:35:26Z</time>
      </trkpt>
      <trkpt lat="42.98321" lon="1.97743">
        <ele>501.93283876</ele>
        <time>2016-08-23T07:35:31Z</time>
      </trkpt>
      <trkpt lat="42.98313" lon="1.97742">
        <ele>499.93249808</ele>
        <time>2016-08-23T07:35:35Z</time>
      </trkpt>
      <trkpt lat="42.98305" lon="1.97747">
        <ele>499.9322168</ele>
        <time>2016-08-23T07:35:41Z</time>
      </trkpt>
      <trkpt lat="42.98296" lon="1.97742">
        <ele>499.93185232</ele>
        <time>2016-08-23T07:35:45Z</time>
      </trkpt>
      <trkpt lat="42.98289" lon="1.97745">
        <ele>499.93155128</ele>
        <time>2016-08-23T07:35:50Z</time>
      </trkpt>
      <trkpt lat="42.98279" lon="1.97748">
        <ele>501.93114572</ele>
        <time>2016-08-23T07:35:54Z</time>
      </trkpt>
      <trkpt lat="42.9827" lon="1.97755">
        <ele>501.9307852</ele>
        <time>2016-08-23T07:35:59Z</time>
      </trkpt>
      <trkpt lat="42.98256" lon="1.9776">
        <ele>501.93023552</ele>
        <time>2016-08-23T07:36:03Z</time>
      </trkpt>
      <trkpt lat="42.98248" lon="1.97763">
        <ele>506.9299196</ele>
        <time>2016-08-23T07:36:08Z</time>
      </trkpt>
      <trkpt lat="42.98242" lon="1.97755">
        <ele>503.92968892</ele>
        <time>2016-08-23T07:36:19Z</time>
      </trkpt>
      <trkpt lat="42.98235" lon="1.97762">
        <ele>506.92937964</ele>
        <time>2016-08-23T07:36:24Z</time>
      </trkpt>
      <trkpt lat="42.9823" lon="1.97772">
        <ele>505.92921472</ele>
        <time>2016-08-23T07:36:30Z</time>
      </trkpt>
      <trkpt lat="42.98222" lon="1.97776">
        <ele>509.92889392</ele>
        <time>2016-08-23T07:36:52Z</time>
      </trkpt>
      <trkpt lat="42.98225" lon="1.97766">
        <ele>508.92900184</ele>
        <time>2016-08-23T07:37:25Z</time>
      </trkpt>
      <trkpt lat="42.98232" lon="1.97743">
        <ele>506.92927012</ele>
        <time>2016-08-23T07:37:30Z</time>
      </trkpt>
      <trkpt lat="42.98236" lon="1.97721">
        <ele>507.92943236</ele>
        <time>2016-08-23T07:37:35Z</time>
      </trkpt>
      <trkpt lat="42.98244" lon="1.97708">
        <ele>507.92974736</ele>
        <time>2016-08-23T07:37:39Z</time>
      </trkpt>
      <trkpt lat="42.98257" lon="1.97688">
        <ele>508.930267</ele>
        <time>2016-08-23T07:37:44Z</time>
      </trkpt>
      <trkpt lat="42.98259" lon="1.97677">
        <ele>507.93035152</ele>
        <time>2016-08-23T07:37:50Z</time>
      </trkpt>
      <trkpt lat="42.98269" lon="1.97665">
        <ele>507.93076272</ele>
        <time>2016-08-23T07:37:54Z</time>
      </trkpt>
      <trkpt lat="42.98277" lon="1.97657">
        <ele>507.93106928</ele>
        <time>2016-08-23T07:37:59Z</time>
      </trkpt>
      <trkpt lat="42.98282" lon="1.9765">
        <ele>512.9312648</ele>
        <time>2016-08-23T07:38:04Z</time>
      </trkpt>
      <trkpt lat="42.98288" lon="1.97643">
        <ele>514.93152168</ele>
        <time>2016-08-23T07:38:12Z</time>
      </trkpt>
      <trkpt lat="42.98295" lon="1.97639">
        <ele>514.93178888</ele>
        <time>2016-08-23T07:38:19Z</time>
      </trkpt>
      <trkpt lat="42.983" lon="1.97631">
        <ele>520.93199392</ele>
        <time>2016-08-23T07:38:24Z</time>
      </trkpt>
      <trkpt lat="42.98308" lon="1.97625">
        <ele>518.93233388</ele>
        <time>2016-08-23T07:38:29Z</time>
      </trkpt>
      <trkpt lat="42.98316" lon="1.9762">
        <ele>522.93263596</ele>
        <time>2016-08-23T07:38:40Z</time>
      </trkpt>
      <trkpt lat="42.98325" lon="1.97617">
        <ele>525.93299564</ele>
        <time>2016-08-23T07:38:45Z</time>
      </trkpt>
      <trkpt lat="42.98332" lon="1.9761">
        <ele>526.93329292</ele>
        <time>2016-08-23T07:38:49Z</time>
      </trkpt>
      <trkpt lat="42.9834" lon="1.97601">
        <ele>527.93361364</ele>
        <time>2016-08-23T07:38:54Z</time>
      </trkpt>
      <trkpt lat="42.98334" lon="1.97602">
        <ele>527.93334144</ele>
        <time>2016-08-23T07:39:03Z</time>
      </trkpt>
      <trkpt lat="42.98331" lon="1.97595">
        <ele>527.93322052</ele>
        <time>2016-08-23T07:39:10Z</time>
      </trkpt>
      <trkpt lat="42.9836" lon="1.97576">
        <ele>528.93437824</ele>
        <time>2016-08-23T07:39:15Z</time>
      </trkpt>
      <trkpt lat="42.98367" lon="1.97571">
        <ele>528.93469444</ele>
        <time>2016-08-23T07:39:20Z</time>
      </trkpt>
      <trkpt lat="42.9838" lon="1.9757">
        <ele>529.93520564</ele>
        <time>2016-08-23T07:39:24Z</time>
      </trkpt>
      <trkpt lat="42.9839" lon="1.97576">
        <ele>533.93558012</ele>
        <time>2016-08-23T07:39:28Z</time>
      </trkpt>
      <trkpt lat="42.98389" lon="1.97582">
        <ele>532.9355748</ele>
        <time>2016-08-23T07:39:33Z</time>
      </trkpt>
      <trkpt lat="42.98404" lon="1.97582">
        <ele>537.9361756</ele>
        <time>2016-08-23T07:39:38Z</time>
      </trkpt>
      <trkpt lat="42.98412" lon="1.9758">
        <ele>537.936475</ele>
        <time>2016-08-23T07:39:44Z</time>
      </trkpt>
      <trkpt lat="42.98425" lon="1.9757">
        <ele>537.93701668</ele>
        <time>2016-08-23T07:39:48Z</time>
      </trkpt>
      <trkpt lat="42.98434" lon="1.97582">
        <ele>541.93736452</ele>
        <time>2016-08-23T07:39:53Z</time>
      </trkpt>
      <trkpt lat="42.98443" lon="1.97586">
        <ele>541.93770032</ele>
        <time>2016-08-23T07:40:01Z</time>
      </trkpt>
      <trkpt lat="42.98451" lon="1.97586">
        <ele>541.93801856</ele>
        <time>2016-08-23T07:40:05Z</time>
      </trkpt>
      <trkpt lat="42.98458" lon="1.97593">
        <ele>548.93831136</ele>
        <time>2016-08-23T07:40:13Z</time>
      </trkpt>
      <trkpt lat="42.98464" lon="1.97596">
        <ele>551.93857144</ele>
        <time>2016-08-23T07:40:19Z</time>
      </trkpt>
      <trkpt lat="42.98472" lon="1.97603">
        <ele>554.9388878</ele>
        <time>2016-08-23T07:40:24Z</time>
      </trkpt>
      <trkpt lat="42.98481" lon="1.9761">
        <ele>554.93921904</ele>
        <time>2016-08-23T07:40:29Z</time>
      </trkpt>
      <trkpt lat="42.98484" lon="1.97622">
        <ele>555.93934036</ele>
        <time>2016-08-23T07:40:33Z</time>
      </trkpt>
      <trkpt lat="42.98494" lon="1.97627">
        <ele>554.93977464</ele>
        <time>2016-08-23T07:40:37Z</time>
      </trkpt>
      <trkpt lat="42.98491" lon="1.97643">
        <ele>554.93965728</ele>
        <time>2016-08-23T07:40:42Z</time>
      </trkpt>
      <trkpt lat="42.98497" lon="1.97645">
        <ele>556.9398752</ele>
        <time>2016-08-23T07:40:45Z</time>
      </trkpt>
      <trkpt lat="42.98503" lon="1.9765">
        <ele>558.94010108</ele>
        <time>2016-08-23T07:40:49Z</time>
      </trkpt>
      <trkpt lat="42.98511" lon="1.9766">
        <ele>556.94043396</ele>
        <time>2016-08-23T07:40:53Z</time>
      </trkpt>
      <trkpt lat="42.98519" lon="1.97664">
        <ele>559.94075748</ele>
        <time>2016-08-23T07:40:59Z</time>
      </trkpt>
      <trkpt lat="42.98524" lon="1.97671">
        <ele>558.94096672</ele>
        <time>2016-08-23T07:41:03Z</time>
      </trkpt>
      <trkpt lat="42.98532" lon="1.97674">
        <ele>562.94127572</ele>
        <time>2016-08-23T07:41:10Z</time>
      </trkpt>
      <trkpt lat="42.9854" lon="1.97672">
        <ele>562.94159556</ele>
        <time>2016-08-23T07:41:15Z</time>
      </trkpt>
      <trkpt lat="42.98553" lon="1.9767">
        <ele>562.9420992</ele>
        <time>2016-08-23T07:41:19Z</time>
      </trkpt>
      <trkpt lat="42.98556" lon="1.97663">
        <ele>562.94222068</ele>
        <time>2016-08-23T07:41:24Z</time>
      </trkpt>
      <trkpt lat="42.98563" lon="1.97666">
        <ele>558.94252628</ele>
        <time>2016-08-23T07:41:31Z</time>
      </trkpt>
      <trkpt lat="42.98571" lon="1.97667">
        <ele>558.94284228</ele>
        <time>2016-08-23T07:41:36Z</time>
      </trkpt>
      <trkpt lat="42.98579" lon="1.97664">
        <ele>556.94315224</ele>
        <time>2016-08-23T07:41:52Z</time>
      </trkpt>
      <trkpt lat="42.98586" lon="1.97662">
        <ele>559.94343768</ele>
        <time>2016-08-23T07:42:14Z</time>
      </trkpt>
      <trkpt lat="42.98605" lon="1.97642">
        <ele>559.94421652</ele>
        <time>2016-08-23T07:42:19Z</time>
      </trkpt>
      <trkpt lat="42.98614" lon="1.97636">
        <ele>560.9445606</ele>
        <time>2016-08-23T07:42:24Z</time>
      </trkpt>
      <trkpt lat="42.98624" lon="1.97632">
        <ele>561.94493852</ele>
        <time>2016-08-23T07:42:28Z</time>
      </trkpt>
      <trkpt lat="42.98636" lon="1.97633">
        <ele>561.94544592</ele>
        <time>2016-08-23T07:42:32Z</time>
      </trkpt>
      <trkpt lat="42.98646" lon="1.97634">
        <ele>561.94584836</ele>
        <time>2016-08-23T07:42:34Z</time>
      </trkpt>
      <trkpt lat="42.98697" lon="1.97617">
        <ele>562.94788432</ele>
        <time>2016-08-23T07:42:43Z</time>
      </trkpt>
      <trkpt lat="42.98687" lon="1.97638">
        <ele>559.94746284</ele>
        <time>2016-08-23T07:42:44Z</time>
      </trkpt>
      <trkpt lat="42.98733" lon="1.9761">
        <ele>561.94931196</ele>
        <time>2016-08-23T07:42:51Z</time>
      </trkpt>
      <trkpt lat="42.98763" lon="1.97588">
        <ele>562.95050496</ele>
        <time>2016-08-23T07:42:56Z</time>
      </trkpt>
      <trkpt lat="42.98787" lon="1.97591">
        <ele>552.95147452</ele>
        <time>2016-08-23T07:43:00Z</time>
      </trkpt>
      <trkpt lat="42.98814" lon="1.97589">
        <ele>546.95255624</ele>
        <time>2016-08-23T07:43:05Z</time>
      </trkpt>
      <trkpt lat="42.98824" lon="1.97582">
        <ele>546.95296996</ele>
        <time>2016-08-23T07:43:09Z</time>
      </trkpt>
      <trkpt lat="42.98848" lon="1.97588">
        <ele>547.95390376</ele>
        <time>2016-08-23T07:43:13Z</time>
      </trkpt>
      <trkpt lat="42.98872" lon="1.97595">
        <ele>547.95489704</ele>
        <time>2016-08-23T07:43:18Z</time>
      </trkpt>
      <trkpt lat="42.98896" lon="1.97597">
        <ele>551.9558248</ele>
        <time>2016-08-23T07:43:22Z</time>
      </trkpt>
      <trkpt lat="42.98923" lon="1.97597">
        <ele>550.95691356</ele>
        <time>2016-08-23T07:43:26Z</time>
      </trkpt>
      <trkpt lat="42.98949" lon="1.97605">
        <ele>552.957945</ele>
        <time>2016-08-23T07:43:31Z</time>
      </trkpt>
      <trkpt lat="42.98962" lon="1.97611">
        <ele>551.9584788</ele>
        <time>2016-08-23T07:43:35Z</time>
      </trkpt>
      <trkpt lat="42.98974" lon="1.97614">
        <ele>552.95896696</ele>
        <time>2016-08-23T07:43:39Z</time>
      </trkpt>
      <trkpt lat="42.98988" lon="1.97627">
        <ele>552.9594982</ele>
        <time>2016-08-23T07:43:44Z</time>
      </trkpt>
      <trkpt lat="42.99004" lon="1.97628">
        <ele>552.96015684</ele>
        <time>2016-08-23T07:43:49Z</time>
      </trkpt>
      <trkpt lat="42.99017" lon="1.97635">
        <ele>552.96066372</ele>
        <time>2016-08-23T07:43:53Z</time>
      </trkpt>
      <trkpt lat="42.99034" lon="1.97644">
        <ele>548.9613492</ele>
        <time>2016-08-23T07:43:57Z</time>
      </trkpt>
      <trkpt lat="42.99061" lon="1.97645">
        <ele>550.96242544</ele>
        <time>2016-08-23T07:44:01Z</time>
      </trkpt>
      <trkpt lat="42.9907" lon="1.97629">
        <ele>553.962806</ele>
        <time>2016-08-23T07:44:05Z</time>
      </trkpt>
      <trkpt lat="42.99085" lon="1.97618">
        <ele>552.9634178</ele>
        <time>2016-08-23T07:44:09Z</time>
      </trkpt>
      <trkpt lat="42.991" lon="1.97619">
        <ele>548.9640166</ele>
        <time>2016-08-23T07:44:13Z</time>
      </trkpt>
      <trkpt lat="42.99114" lon="1.97612">
        <ele>551.96456464</ele>
        <time>2016-08-23T07:44:17Z</time>
      </trkpt>
      <trkpt lat="42.99119" lon="1.9761">
        <ele>552.96474528</ele>
        <time>2016-08-23T07:44:32Z</time>
      </trkpt>
      <trkpt lat="42.99136" lon="1.97658">
        <ele>551.96542464</ele>
        <time>2016-08-23T07:44:37Z</time>
      </trkpt>
      <trkpt lat="42.99152" lon="1.97686">
        <ele>553.96607344</ele>
        <time>2016-08-23T07:44:41Z</time>
      </trkpt>
      <trkpt lat="42.9917" lon="1.97703">
        <ele>549.96680252</ele>
        <time>2016-08-23T07:44:45Z</time>
      </trkpt>
      <trkpt lat="42.99192" lon="1.97703">
        <ele>544.96768156</ele>
        <time>2016-08-23T07:44:49Z</time>
      </trkpt>
      <trkpt lat="42.99223" lon="1.9767">
        <ele>543.96892764</ele>
        <time>2016-08-23T07:44:54Z</time>
      </trkpt>
      <trkpt lat="42.99252" lon="1.97636">
        <ele>541.97008884</ele>
        <time>2016-08-23T07:44:58Z</time>
      </trkpt>
      <trkpt lat="42.99281" lon="1.97615">
        <ele>537.97125304</ele>
        <time>2016-08-23T07:45:02Z</time>
      </trkpt>
      <trkpt lat="42.99308" lon="1.9763">
        <ele>539.97233096</ele>
        <time>2016-08-23T07:45:06Z</time>
      </trkpt>
      <trkpt lat="42.9934" lon="1.97697">
        <ele>537.97360048</ele>
        <time>2016-08-23T07:45:11Z</time>
      </trkpt>
      <trkpt lat="42.9939" lon="1.97738">
        <ele>539.97561088</ele>
        <time>2016-08-23T07:45:16Z</time>
      </trkpt>
      <trkpt lat="42.9944" lon="1.9776">
        <ele>537.97760392</ele>
        <time>2016-08-23T07:45:20Z</time>
      </trkpt>
      <trkpt lat="42.99482" lon="1.97753">
        <ele>538.97929544</ele>
        <time>2016-08-23T07:45:24Z</time>
      </trkpt>
      <trkpt lat="42.99519" lon="1.97717">
        <ele>540.98075584</ele>
        <time>2016-08-23T07:45:29Z</time>
      </trkpt>
      <trkpt lat="42.99543" lon="1.97695">
        <ele>539.98171892</ele>
        <time>2016-08-23T07:45:33Z</time>
      </trkpt>
      <trkpt lat="42.9956" lon="1.97682">
        <ele>543.98241096</ele>
        <time>2016-08-23T07:45:37Z</time>
      </trkpt>
      <trkpt lat="42.99581" lon="1.97665">
        <ele>546.9832418</ele>
        <time>2016-08-23T07:45:42Z</time>
      </trkpt>
      <trkpt lat="42.99606" lon="1.97653">
        <ele>544.984239</ele>
        <time>2016-08-23T07:45:47Z</time>
      </trkpt>
      <trkpt lat="42.99622" lon="1.9766">
        <ele>544.98488588</ele>
        <time>2016-08-23T07:45:51Z</time>
      </trkpt>
      <trkpt lat="42.99639" lon="1.97661">
        <ele>545.98557152</ele>
        <time>2016-08-23T07:45:56Z</time>
      </trkpt>
      <trkpt lat="42.99652" lon="1.97657">
        <ele>544.9860686</ele>
        <time>2016-08-23T07:46:01Z</time>
      </trkpt>
      <trkpt lat="42.99664" lon="1.97662">
        <ele>542.98657696</ele>
        <time>2016-08-23T07:46:05Z</time>
      </trkpt>
      <trkpt lat="42.99682" lon="1.97653">
        <ele>538.98727924</ele>
        <time>2016-08-23T07:46:09Z</time>
      </trkpt>
      <trkpt lat="42.99697" lon="1.97638">
        <ele>536.9878808</ele>
        <time>2016-08-23T07:46:13Z</time>
      </trkpt>
      <trkpt lat="42.99723" lon="1.97602">
        <ele>542.98891668</ele>
        <time>2016-08-23T07:46:21Z</time>
      </trkpt>
      <trkpt lat="42.99736" lon="1.97619">
        <ele>541.9894268</ele>
        <time>2016-08-23T07:46:26Z</time>
      </trkpt>
      <trkpt lat="42.99758" lon="1.97635">
        <ele>540.9903024</ele>
        <time>2016-08-23T07:46:31Z</time>
      </trkpt>
      <trkpt lat="42.99781" lon="1.97666">
        <ele>536.99124128</ele>
        <time>2016-08-23T07:46:35Z</time>
      </trkpt>
      <trkpt lat="42.99822" lon="1.97687">
        <ele>535.99289072</ele>
        <time>2016-08-23T07:46:39Z</time>
      </trkpt>
      <trkpt lat="42.99867" lon="1.97666">
        <ele>532.99469364</ele>
        <time>2016-08-23T07:46:43Z</time>
      </trkpt>
      <trkpt lat="42.99932" lon="1.97673">
        <ele>520.99729344</ele>
        <time>2016-08-23T07:46:48Z</time>
      </trkpt>
      <trkpt lat="42.9998" lon="1.97684">
        <ele>515.99918136</ele>
        <time>2016-08-23T07:46:52Z</time>
      </trkpt>
      <trkpt lat="42.99999" lon="1.9769">
        <ele>510.9999392</ele>
        <time>2016-08-23T07:46:56Z</time>
      </trkpt>
      <trkpt lat="43.00012" lon="1.97672">
        <ele>506.00046568</ele>
        <time>2016-08-23T07:47:01Z</time>
      </trkpt>
      <trkpt lat="43.00012" lon="1.97644">
        <ele>504.00049124</ele>
        <time>2016-08-23T07:47:05Z</time>
      </trkpt>
      <trkpt lat="43.00016" lon="1.9761">
        <ele>509.00063556</ele>
        <time>2016-08-23T07:47:10Z</time>
      </trkpt>
      <trkpt lat="43.00017" lon="1.97575">
        <ele>510.00067304</ele>
        <time>2016-08-23T07:47:14Z</time>
      </trkpt>
      <trkpt lat="43.0002" lon="1.97554">
        <ele>503.00079552</ele>
        <time>2016-08-23T07:47:19Z</time>
      </trkpt>
      <trkpt lat="43.00024" lon="1.97547">
        <ele>502.0009618</ele>
        <time>2016-08-23T07:47:25Z</time>
      </trkpt>
      <trkpt lat="43.00047" lon="1.97536">
        <ele>502.00189384</ele>
        <time>2016-08-23T07:47:29Z</time>
      </trkpt>
      <trkpt lat="43.00066" lon="1.97522">
        <ele>500.00265504</ele>
        <time>2016-08-23T07:47:33Z</time>
      </trkpt>
      <trkpt lat="43.00088" lon="1.97507">
        <ele>500.00350536</ele>
        <time>2016-08-23T07:47:38Z</time>
      </trkpt>
      <trkpt lat="43.00107" lon="1.97482">
        <ele>496.00427768</ele>
        <time>2016-08-23T07:47:42Z</time>
      </trkpt>
      <trkpt lat="43.00134" lon="1.9746">
        <ele>495.0053756</ele>
        <time>2016-08-23T07:47:46Z</time>
      </trkpt>
      <trkpt lat="43.00168" lon="1.97425">
        <ele>495.00670184</ele>
        <time>2016-08-23T07:47:51Z</time>
      </trkpt>
      <trkpt lat="43.0019" lon="1.97384">
        <ele>494.00760668</ele>
        <time>2016-08-23T07:47:56Z</time>
      </trkpt>
      <trkpt lat="43.00215" lon="1.97364">
        <ele>496.0085896</ele>
        <time>2016-08-23T07:48:00Z</time>
      </trkpt>
      <trkpt lat="43.00234" lon="1.97344">
        <ele>494.00935548</ele>
        <time>2016-08-23T07:48:04Z</time>
      </trkpt>
      <trkpt lat="43.00264" lon="1.97332">
        <ele>494.01057096</ele>
        <time>2016-08-23T07:48:08Z</time>
      </trkpt>
      <trkpt lat="43.0028" lon="1.97326">
        <ele>497.01120112</ele>
        <time>2016-08-23T07:48:10Z</time>
      </trkpt>
      <trkpt lat="43.00383" lon="1.97303">
        <ele>512.01530376</ele>
        <time>2016-08-23T07:48:21Z</time>
      </trkpt>
      <trkpt lat="43.00408" lon="1.97288">
        <ele>516.01630736</ele>
        <time>2016-08-23T07:48:24Z</time>
      </trkpt>
      <trkpt lat="43.00435" lon="1.97264">
        <ele>525.01737912</ele>
        <time>2016-08-23T07:48:28Z</time>
      </trkpt>
      <trkpt lat="43.00457" lon="1.97085">
        <ele>484.01829376</ele>
        <time>2016-08-23T07:48:45Z</time>
      </trkpt>
      <trkpt lat="43.00501" lon="1.97082">
        <ele>458.0200368</ele>
        <time>2016-08-23T07:48:49Z</time>
      </trkpt>
      <trkpt lat="43.00525" lon="1.97062">
        <ele>452.02099048</ele>
        <time>2016-08-23T07:48:54Z</time>
      </trkpt>
      <trkpt lat="43.00542" lon="1.97037">
        <ele>449.02166368</ele>
        <time>2016-08-23T07:48:58Z</time>
      </trkpt>
      <trkpt lat="43.0057" lon="1.97038">
        <ele>450.02280236</ele>
        <time>2016-08-23T07:49:01Z</time>
      </trkpt>
      <trkpt lat="43.00602" lon="1.97055">
        <ele>466.02408324</ele>
        <time>2016-08-23T07:49:05Z</time>
      </trkpt>
      <trkpt lat="43.00562" lon="1.96994">
        <ele>454.022494</ele>
        <time>2016-08-23T07:49:09Z</time>
      </trkpt>
      <trkpt lat="43.00532" lon="1.9697">
        <ele>432.02126456</ele>
        <time>2016-08-23T07:49:14Z</time>
      </trkpt>
      <trkpt lat="43.00527" lon="1.96949">
        <ele>425.02108872</ele>
        <time>2016-08-23T07:49:19Z</time>
      </trkpt>
      <trkpt lat="43.00537" lon="1.96931">
        <ele>420.02149104</ele>
        <time>2016-08-23T07:49:23Z</time>
      </trkpt>
      <trkpt lat="43.00555" lon="1.96908">
        <ele>418.0222114</ele>
        <time>2016-08-23T07:49:28Z</time>
      </trkpt>
      <trkpt lat="43.00575" lon="1.96891">
        <ele>417.02299928</ele>
        <time>2016-08-23T07:49:32Z</time>
      </trkpt>
      <trkpt lat="43.00597" lon="1.96866">
        <ele>418.02386552</ele>
        <time>2016-08-23T07:49:37Z</time>
      </trkpt>
      <trkpt lat="43.00605" lon="1.96843">
        <ele>419.02419692</ele>
        <time>2016-08-23T07:49:41Z</time>
      </trkpt>
      <trkpt lat="43.00615" lon="1.96811">
        <ele>411.0245826</ele>
        <time>2016-08-23T07:49:46Z</time>
      </trkpt>
      <trkpt lat="43.00619" lon="1.96788">
        <ele>410.02476808</ele>
        <time>2016-08-23T07:49:50Z</time>
      </trkpt>
      <trkpt lat="43.00628" lon="1.96758">
        <ele>407.02512404</ele>
        <time>2016-08-23T07:49:54Z</time>
      </trkpt>
      <trkpt lat="43.00639" lon="1.96712">
        <ele>403.0255452</ele>
        <time>2016-08-23T07:49:59Z</time>
      </trkpt>
      <trkpt lat="43.00631" lon="1.96708">
        <ele>402.0252282</ele>
        <time>2016-08-23T07:50:08Z</time>
      </trkpt>
      <trkpt lat="43.00635" lon="1.96705">
        <ele>398.02541592</ele>
        <time>2016-08-23T07:50:26Z</time>
      </trkpt>
      <trkpt lat="43.00639" lon="1.9667">
        <ele>393.0255514</ele>
        <time>2016-08-23T07:50:30Z</time>
      </trkpt>
      <trkpt lat="43.00648" lon="1.96645">
        <ele>390.02590576</ele>
        <time>2016-08-23T07:50:35Z</time>
      </trkpt>
      <trkpt lat="43.00664" lon="1.96614">
        <ele>387.02656396</ele>
        <time>2016-08-23T07:50:39Z</time>
      </trkpt>
      <trkpt lat="43.0069" lon="1.96614">
        <ele>387.02759132</ele>
        <time>2016-08-23T07:50:44Z</time>
      </trkpt>
      <trkpt lat="43.0073" lon="1.96622">
        <ele>383.0291948</ele>
        <time>2016-08-23T07:50:49Z</time>
      </trkpt>
      <trkpt lat="43.0076" lon="1.96645">
        <ele>377.03041616</ele>
        <time>2016-08-23T07:50:53Z</time>
      </trkpt>
      <trkpt lat="43.00791" lon="1.96656">
        <ele>376.03162928</ele>
        <time>2016-08-23T07:50:57Z</time>
      </trkpt>
      <trkpt lat="43.00804" lon="1.96658">
        <ele>370.03213976</ele>
        <time>2016-08-23T07:51:01Z</time>
      </trkpt>
      <trkpt lat="43.00814" lon="1.96651">
        <ele>367.03254924</ele>
        <time>2016-08-23T07:51:06Z</time>
      </trkpt>
      <trkpt lat="43.00818" lon="1.9664">
        <ele>366.03271688</ele>
        <time>2016-08-23T07:51:12Z</time>
      </trkpt>
      <trkpt lat="43.00816" lon="1.96629">
        <ele>364.03264888</ele>
        <time>2016-08-23T07:51:18Z</time>
      </trkpt>
      <trkpt lat="43.00823" lon="1.96614">
        <ele>363.03290996</ele>
        <time>2016-08-23T07:51:22Z</time>
      </trkpt>
      <trkpt lat="43.0083" lon="1.96603">
        <ele>364.03317988</ele>
        <time>2016-08-23T07:51:27Z</time>
      </trkpt>
      <trkpt lat="43.0083" lon="1.96591">
        <ele>361.03319244</ele>
        <time>2016-08-23T07:51:31Z</time>
      </trkpt>
      <trkpt lat="43.00837" lon="1.96574">
        <ele>358.03347216</ele>
        <time>2016-08-23T07:51:36Z</time>
      </trkpt>
      <trkpt lat="43.00848" lon="1.96559">
        <ele>362.03391368</ele>
        <time>2016-08-23T07:51:41Z</time>
      </trkpt>
      <trkpt lat="43.00851" lon="1.96541">
        <ele>361.0340202</ele>
        <time>2016-08-23T07:51:46Z</time>
      </trkpt>
      <trkpt lat="43.00865" lon="1.96529">
        <ele>358.0346112</ele>
        <time>2016-08-23T07:51:50Z</time>
      </trkpt>
      <trkpt lat="43.00873" lon="1.96516">
        <ele>358.03490472</ele>
        <time>2016-08-23T07:51:54Z</time>
      </trkpt>
      <trkpt lat="43.00879" lon="1.96509">
        <ele>360.03516108</ele>
        <time>2016-08-23T07:52:00Z</time>
      </trkpt>
      <trkpt lat="43.00888" lon="1.965">
        <ele>362.0355074</ele>
        <time>2016-08-23T07:52:05Z</time>
      </trkpt>
      <trkpt lat="43.00898" lon="1.96489">
        <ele>364.0359048</ele>
        <time>2016-08-23T07:52:09Z</time>
      </trkpt>
      <trkpt lat="43.00892" lon="1.9648">
        <ele>364.03569612</ele>
        <time>2016-08-23T07:52:18Z</time>
      </trkpt>
      <trkpt lat="43.00884" lon="1.9648">
        <ele>367.0353622</ele>
        <time>2016-08-23T07:52:22Z</time>
      </trkpt>
      <trkpt lat="43.00872" lon="1.96479">
        <ele>366.0348672</ele>
        <time>2016-08-23T07:52:26Z</time>
      </trkpt>
      <trkpt lat="43.0086" lon="1.9648">
        <ele>366.03439544</ele>
        <time>2016-08-23T07:52:30Z</time>
      </trkpt>
      <trkpt lat="43.00847" lon="1.96479">
        <ele>364.03386648</ele>
        <time>2016-08-23T07:52:34Z</time>
      </trkpt>
      <trkpt lat="43.00835" lon="1.96478">
        <ele>363.03340304</ele>
        <time>2016-08-23T07:52:38Z</time>
      </trkpt>
      <trkpt lat="43.00818" lon="1.96471">
        <ele>365.03273424</ele>
        <time>2016-08-23T07:52:43Z</time>
      </trkpt>
      <trkpt lat="43.00805" lon="1.96465">
        <ele>366.03219968</ele>
        <time>2016-08-23T07:52:47Z</time>
      </trkpt>
      <trkpt lat="43.0079" lon="1.96455">
        <ele>365.03160452</ele>
        <time>2016-08-23T07:52:51Z</time>
      </trkpt>
      <trkpt lat="43.00778" lon="1.96446">
        <ele>366.03110112</ele>
        <time>2016-08-23T07:52:55Z</time>
      </trkpt>
      <trkpt lat="43.00762" lon="1.96433">
        <ele>367.03049596</ele>
        <time>2016-08-23T07:53:00Z</time>
      </trkpt>
      <trkpt lat="43.00749" lon="1.96421">
        <ele>368.02997356</ele>
        <time>2016-08-23T07:53:04Z</time>
      </trkpt>
      <trkpt lat="43.0074" lon="1.96415">
        <ele>367.02959972</ele>
        <time>2016-08-23T07:53:07Z</time>
      </trkpt>
      <trkpt lat="43.00728" lon="1.964">
        <ele>368.02911444</ele>
        <time>2016-08-23T07:53:11Z</time>
      </trkpt>
      <trkpt lat="43.0071" lon="1.96378">
        <ele>367.02839544</ele>
        <time>2016-08-23T07:53:16Z</time>
      </trkpt>
      <trkpt lat="43.00691" lon="1.96365">
        <ele>365.02765252</ele>
        <time>2016-08-23T07:53:21Z</time>
      </trkpt>
      <trkpt lat="43.00681" lon="1.96349">
        <ele>364.027224</ele>
        <time>2016-08-23T07:53:25Z</time>
      </trkpt>
      <trkpt lat="43.00668" lon="1.96331">
        <ele>364.02671328</ele>
        <time>2016-08-23T07:53:30Z</time>
      </trkpt>
      <trkpt lat="43.00659" lon="1.96318">
        <ele>364.02634628</ele>
        <time>2016-08-23T07:53:34Z</time>
      </trkpt>
      <trkpt lat="43.00648" lon="1.96301">
        <ele>367.02591428</ele>
        <time>2016-08-23T07:53:39Z</time>
      </trkpt>
      <trkpt lat="43.00638" lon="1.96286">
        <ele>365.02550876</ele>
        <time>2016-08-23T07:53:43Z</time>
      </trkpt>
      <trkpt lat="43.00626" lon="1.9627">
        <ele>365.02504496</ele>
        <time>2016-08-23T07:53:48Z</time>
      </trkpt>
      <trkpt lat="43.00613" lon="1.96255">
        <ele>366.02451192</ele>
        <time>2016-08-23T07:53:53Z</time>
      </trkpt>
      <trkpt lat="43.00601" lon="1.96246">
        <ele>365.02402204</ele>
        <time>2016-08-23T07:53:57Z</time>
      </trkpt>
      <trkpt lat="43.00584" lon="1.96239">
        <ele>365.02336772</ele>
        <time>2016-08-23T07:54:02Z</time>
      </trkpt>
      <trkpt lat="43.00566" lon="1.96233">
        <ele>364.02264756</ele>
        <time>2016-08-23T07:54:06Z</time>
      </trkpt>
      <trkpt lat="43.00552" lon="1.96218">
        <ele>365.02207552</ele>
        <time>2016-08-23T07:54:10Z</time>
      </trkpt>
      <trkpt lat="43.00536" lon="1.96198">
        <ele>367.02145068</ele>
        <time>2016-08-23T07:54:15Z</time>
      </trkpt>
      <trkpt lat="43.00523" lon="1.96171">
        <ele>369.02093216</ele>
        <time>2016-08-23T07:54:20Z</time>
      </trkpt>
      <trkpt lat="43.00514" lon="1.96149">
        <ele>370.02055252</ele>
        <time>2016-08-23T07:54:24Z</time>
      </trkpt>
      <trkpt lat="43.00502" lon="1.96125">
        <ele>368.02008144</ele>
        <time>2016-08-23T07:54:28Z</time>
      </trkpt>
      <trkpt lat="43.00494" lon="1.96098">
        <ele>365.01975152</ele>
        <time>2016-08-23T07:54:32Z</time>
      </trkpt>
      <trkpt lat="43.00491" lon="1.96072">
        <ele>372.01962616</ele>
        <time>2016-08-23T07:54:37Z</time>
      </trkpt>
      <trkpt lat="43.00485" lon="1.96061">
        <ele>369.01939188</ele>
        <time>2016-08-23T07:54:42Z</time>
      </trkpt>
      <trkpt lat="43.00476" lon="1.96043">
        <ele>375.01902076</ele>
        <time>2016-08-23T07:54:47Z</time>
      </trkpt>
      <trkpt lat="43.00453" lon="1.96065">
        <ele>370.0181268</ele>
        <time>2016-08-23T07:54:52Z</time>
      </trkpt>
      <trkpt lat="43.00454" lon="1.9609">
        <ele>361.01817676</ele>
        <time>2016-08-23T07:54:56Z</time>
      </trkpt>
      <trkpt lat="43.00453" lon="1.9613">
        <ele>360.01810344</ele>
        <time>2016-08-23T07:55:01Z</time>
      </trkpt>
      <trkpt lat="43.00442" lon="1.96154">
        <ele>364.01769576</ele>
        <time>2016-08-23T07:55:05Z</time>
      </trkpt>
      <trkpt lat="43.00435" lon="1.96183">
        <ele>357.01740292</ele>
        <time>2016-08-23T07:55:09Z</time>
      </trkpt>
      <trkpt lat="43.00418" lon="1.96194">
        <ele>355.01673336</ele>
        <time>2016-08-23T07:55:13Z</time>
      </trkpt>
      <trkpt lat="43.00392" lon="1.96188">
        <ele>356.01569476</ele>
        <time>2016-08-23T07:55:18Z</time>
      </trkpt>
      <trkpt lat="43.00378" lon="1.96184">
        <ele>356.01510804</ele>
        <time>2016-08-23T07:55:22Z</time>
      </trkpt>
      <trkpt lat="43.00362" lon="1.96181">
        <ele>357.01449632</ele>
        <time>2016-08-23T07:55:27Z</time>
      </trkpt>
      <trkpt lat="43.00347" lon="1.9618">
        <ele>359.01386204</ele>
        <time>2016-08-23T07:55:32Z</time>
      </trkpt>
      <trkpt lat="43.00332" lon="1.96181">
        <ele>358.01328716</ele>
        <time>2016-08-23T07:55:36Z</time>
      </trkpt>
      <trkpt lat="43.00318" lon="1.96184">
        <ele>358.01271564</ele>
        <time>2016-08-23T07:55:40Z</time>
      </trkpt>
      <trkpt lat="43.00301" lon="1.96184">
        <ele>360.01203388</ele>
        <time>2016-08-23T07:55:45Z</time>
      </trkpt>
      <trkpt lat="43.00288" lon="1.96185">
        <ele>360.0115078</ele>
        <time>2016-08-23T07:55:49Z</time>
      </trkpt>
      <trkpt lat="43.00273" lon="1.96185">
        <ele>362.0109072</ele>
        <time>2016-08-23T07:55:53Z</time>
      </trkpt>
      <trkpt lat="43.00256" lon="1.96188">
        <ele>366.01022016</ele>
        <time>2016-08-23T07:55:58Z</time>
      </trkpt>
      <trkpt lat="43.00239" lon="1.96189">
        <ele>366.00956084</ele>
        <time>2016-08-23T07:56:03Z</time>
      </trkpt>
      <trkpt lat="43.00224" lon="1.9619">
        <ele>366.00894432</ele>
        <time>2016-08-23T07:56:07Z</time>
      </trkpt>
      <trkpt lat="43.0021" lon="1.96195">
        <ele>367.00838024</ele>
        <time>2016-08-23T07:56:11Z</time>
      </trkpt>
      <trkpt lat="43.0019" lon="1.96205">
        <ele>367.00761588</ele>
        <time>2016-08-23T07:56:16Z</time>
      </trkpt>
      <trkpt lat="43.00175" lon="1.96213">
        <ele>368.00698388</ele>
        <time>2016-08-23T07:56:20Z</time>
      </trkpt>
      <trkpt lat="43.0016" lon="1.96219">
        <ele>369.00638852</ele>
        <time>2016-08-23T07:56:25Z</time>
      </trkpt>
      <trkpt lat="43.00146" lon="1.96215">
        <ele>372.0058546</ele>
        <time>2016-08-23T07:56:29Z</time>
      </trkpt>
      <trkpt lat="43.00138" lon="1.96218">
        <ele>378.00551744</ele>
        <time>2016-08-23T07:56:34Z</time>
      </trkpt>
      <trkpt lat="43.0013" lon="1.96221">
        <ele>380.0051916</ele>
        <time>2016-08-23T07:56:40Z</time>
      </trkpt>
      <trkpt lat="43.00124" lon="1.96215">
        <ele>382.004939</ele>
        <time>2016-08-23T07:56:44Z</time>
      </trkpt>
      <trkpt lat="43.00111" lon="1.96206">
        <ele>378.0044486</ele>
        <time>2016-08-23T07:56:48Z</time>
      </trkpt>
      <trkpt lat="43.00097" lon="1.96197">
        <ele>379.003894</ele>
        <time>2016-08-23T07:56:53Z</time>
      </trkpt>
      <trkpt lat="43.00085" lon="1.9619">
        <ele>379.00338128</ele>
        <time>2016-08-23T07:56:57Z</time>
      </trkpt>
      <trkpt lat="43.00074" lon="1.96177">
        <ele>379.00295084</ele>
        <time>2016-08-23T07:57:01Z</time>
      </trkpt>
      <trkpt lat="43.0006" lon="1.96166">
        <ele>379.00237832</ele>
        <time>2016-08-23T07:57:05Z</time>
      </trkpt>
      <trkpt lat="43.00043" lon="1.96158">
        <ele>380.00173308</ele>
        <time>2016-08-23T07:57:09Z</time>
      </trkpt>
      <trkpt lat="43.00027" lon="1.96147">
        <ele>380.0010916</ele>
        <time>2016-08-23T07:57:11Z</time>
      </trkpt>
      <trkpt lat="42.99947" lon="1.96093">
        <ele>394.99789112</ele>
        <time>2016-08-23T07:57:41Z</time>
      </trkpt>
      <trkpt lat="42.99921" lon="1.96069">
        <ele>392.99684248</ele>
        <time>2016-08-23T07:57:46Z</time>
      </trkpt>
      <trkpt lat="42.99903" lon="1.96048">
        <ele>391.99611664</ele>
        <time>2016-08-23T07:57:51Z</time>
      </trkpt>
      <trkpt lat="42.99887" lon="1.96038">
        <ele>390.9954668</ele>
        <time>2016-08-23T07:57:55Z</time>
      </trkpt>
      <trkpt lat="42.99872" lon="1.96023">
        <ele>385.99486436</ele>
        <time>2016-08-23T07:58:00Z</time>
      </trkpt>
      <trkpt lat="42.99867" lon="1.9602">
        <ele>385.99469604</ele>
        <time>2016-08-23T07:58:01Z</time>
      </trkpt>
      <trkpt lat="42.99844" lon="1.96002">
        <ele>387.99374492</ele>
        <time>2016-08-23T07:58:12Z</time>
      </trkpt>
      <trkpt lat="42.99828" lon="1.96004">
        <ele>385.99313012</ele>
        <time>2016-08-23T07:58:17Z</time>
      </trkpt>
      <trkpt lat="42.99824" lon="1.96004">
        <ele>386.99294012</ele>
        <time>2016-08-23T07:58:22Z</time>
      </trkpt>
      <trkpt lat="42.99813" lon="1.95999">
        <ele>387.99252276</ele>
        <time>2016-08-23T07:58:26Z</time>
      </trkpt>
      <trkpt lat="42.99803" lon="1.95997">
        <ele>390.99211708</ele>
        <time>2016-08-23T07:58:31Z</time>
      </trkpt>
      <trkpt lat="42.99791" lon="1.95996">
        <ele>394.99163916</ele>
        <time>2016-08-23T07:58:36Z</time>
      </trkpt>
      <trkpt lat="42.99781" lon="1.95992">
        <ele>394.99125744</ele>
        <time>2016-08-23T07:58:40Z</time>
      </trkpt>
      <trkpt lat="42.99775" lon="1.95989">
        <ele>393.99098024</ele>
        <time>2016-08-23T07:58:44Z</time>
      </trkpt>
      <trkpt lat="42.99755" lon="1.95975">
        <ele>385.99020888</ele>
        <time>2016-08-23T07:58:49Z</time>
      </trkpt>
      <trkpt lat="42.99747" lon="1.95968">
        <ele>386.98985932</ele>
        <time>2016-08-23T07:58:53Z</time>
      </trkpt>
      <trkpt lat="42.9974" lon="1.95956">
        <ele>381.98958432</ele>
        <time>2016-08-23T07:58:57Z</time>
      </trkpt>
      <trkpt lat="42.99733" lon="1.95948">
        <ele>384.98933308</ele>
        <time>2016-08-23T07:59:01Z</time>
      </trkpt>
      <trkpt lat="42.99724" lon="1.95937">
        <ele>382.98894532</ele>
        <time>2016-08-23T07:59:06Z</time>
      </trkpt>
      <trkpt lat="42.99719" lon="1.95928">
        <ele>383.98874764</ele>
        <time>2016-08-23T07:59:10Z</time>
      </trkpt>
      <trkpt lat="42.99711" lon="1.95918">
        <ele>382.98845004</ele>
        <time>2016-08-23T07:59:15Z</time>
      </trkpt>
      <trkpt lat="42.99705" lon="1.95906">
        <ele>382.98819924</ele>
        <time>2016-08-23T07:59:19Z</time>
      </trkpt>
      <trkpt lat="42.99701" lon="1.95894">
        <ele>384.9880258</ele>
        <time>2016-08-23T07:59:23Z</time>
      </trkpt>
      <trkpt lat="42.99699" lon="1.95882">
        <ele>388.98797588</ele>
        <time>2016-08-23T07:59:28Z</time>
      </trkpt>
      <trkpt lat="42.99697" lon="1.95873">
        <ele>389.9878674</ele>
        <time>2016-08-23T07:59:32Z</time>
      </trkpt>
      <trkpt lat="42.99688" lon="1.9586">
        <ele>387.98750968</ele>
        <time>2016-08-23T07:59:36Z</time>
      </trkpt>
      <trkpt lat="42.99681" lon="1.95854">
        <ele>390.98725388</ele>
        <time>2016-08-23T07:59:41Z</time>
      </trkpt>
      <trkpt lat="42.99675" lon="1.95839">
        <ele>391.98700476</ele>
        <time>2016-08-23T07:59:46Z</time>
      </trkpt>
      <trkpt lat="42.99665" lon="1.95826">
        <ele>391.98661028</ele>
        <time>2016-08-23T07:59:51Z</time>
      </trkpt>
      <trkpt lat="42.99658" lon="1.95818">
        <ele>393.98632844</ele>
        <time>2016-08-23T07:59:55Z</time>
      </trkpt>
      <trkpt lat="42.99649" lon="1.95807">
        <ele>391.98595472</ele>
        <time>2016-08-23T07:59:59Z</time>
      </trkpt>
      <trkpt lat="42.99641" lon="1.95792">
        <ele>386.98563628</ele>
        <time>2016-08-23T08:00:04Z</time>
      </trkpt>
      <trkpt lat="42.99632" lon="1.95785">
        <ele>390.98529768</ele>
        <time>2016-08-23T08:00:09Z</time>
      </trkpt>
      <trkpt lat="42.99624" lon="1.95779">
        <ele>391.984971</ele>
        <time>2016-08-23T08:00:13Z</time>
      </trkpt>
      <trkpt lat="42.99616" lon="1.95767">
        <ele>392.98465168</ele>
        <time>2016-08-23T08:00:17Z</time>
      </trkpt>
      <trkpt lat="42.9961" lon="1.95759">
        <ele>393.98438264</ele>
        <time>2016-08-23T08:00:21Z</time>
      </trkpt>
      <trkpt lat="42.99602" lon="1.95752">
        <ele>394.98405832</ele>
        <time>2016-08-23T08:00:25Z</time>
      </trkpt>
      <trkpt lat="42.99594" lon="1.9575">
        <ele>396.98376776</ele>
        <time>2016-08-23T08:00:29Z</time>
      </trkpt>
      <trkpt lat="42.9958" lon="1.95746">
        <ele>394.98321384</ele>
        <time>2016-08-23T08:00:34Z</time>
      </trkpt>
      <trkpt lat="42.99574" lon="1.95738">
        <ele>393.98297544</ele>
        <time>2016-08-23T08:00:38Z</time>
      </trkpt>
      <trkpt lat="42.99567" lon="1.95724">
        <ele>392.982679</ele>
        <time>2016-08-23T08:00:43Z</time>
      </trkpt>
      <trkpt lat="42.99555" lon="1.95717">
        <ele>395.98217896</ele>
        <time>2016-08-23T08:00:47Z</time>
      </trkpt>
      <trkpt lat="42.99548" lon="1.95711">
        <ele>400.98190524</ele>
        <time>2016-08-23T08:00:53Z</time>
      </trkpt>
      <trkpt lat="42.99543" lon="1.95703">
        <ele>405.98170976</ele>
        <time>2016-08-23T08:00:59Z</time>
      </trkpt>
      <trkpt lat="42.99532" lon="1.95699">
        <ele>404.98129672</ele>
        <time>2016-08-23T08:01:03Z</time>
      </trkpt>
      <trkpt lat="42.99525" lon="1.95705">
        <ele>410.98099016</ele>
        <time>2016-08-23T08:01:09Z</time>
      </trkpt>
      <trkpt lat="42.99519" lon="1.95706">
        <ele>413.98076644</ele>
        <time>2016-08-23T08:01:13Z</time>
      </trkpt>
      <trkpt lat="42.99499" lon="1.95706">
        <ele>413.97996564</ele>
        <time>2016-08-23T08:01:18Z</time>
      </trkpt>
      <trkpt lat="42.9949" lon="1.9571">
        <ele>416.97961432</ele>
        <time>2016-08-23T08:01:23Z</time>
      </trkpt>
      <trkpt lat="42.99485" lon="1.95713">
        <ele>413.97938136</ele>
        <time>2016-08-23T08:01:30Z</time>
      </trkpt>
      <trkpt lat="42.99482" lon="1.95712">
        <ele>410.97927316</ele>
        <time>2016-08-23T08:01:50Z</time>
      </trkpt>
      <trkpt lat="42.99472" lon="1.95709">
        <ele>401.97889404</ele>
        <time>2016-08-23T08:01:54Z</time>
      </trkpt>
      <trkpt lat="42.99464" lon="1.95706">
        <ele>400.97856736</ele>
        <time>2016-08-23T08:02:48Z</time>
      </trkpt>
      <trkpt lat="42.99446" lon="1.95701">
        <ele>408.97783672</ele>
        <time>2016-08-23T08:02:52Z</time>
      </trkpt>
      <trkpt lat="42.99438" lon="1.95695">
        <ele>410.97751556</ele>
        <time>2016-08-23T08:02:56Z</time>
      </trkpt>
      <trkpt lat="42.99426" lon="1.95691">
        <ele>411.97703784</ele>
        <time>2016-08-23T08:03:01Z</time>
      </trkpt>
      <trkpt lat="42.99408" lon="1.95682">
        <ele>410.97633568</ele>
        <time>2016-08-23T08:03:06Z</time>
      </trkpt>
      <trkpt lat="42.99395" lon="1.95679">
        <ele>409.97579692</ele>
        <time>2016-08-23T08:03:10Z</time>
      </trkpt>
      <trkpt lat="42.9938" lon="1.95665">
        <ele>410.97518156</ele>
        <time>2016-08-23T08:03:15Z</time>
      </trkpt>
      <trkpt lat="42.99369" lon="1.95657">
        <ele>410.97474524</ele>
        <time>2016-08-23T08:03:19Z</time>
      </trkpt>
      <trkpt lat="42.99356" lon="1.95649">
        <ele>409.97425056</ele>
        <time>2016-08-23T08:03:23Z</time>
      </trkpt>
      <trkpt lat="42.99349" lon="1.9564">
        <ele>410.97397584</ele>
        <time>2016-08-23T08:03:28Z</time>
      </trkpt>
      <trkpt lat="42.99342" lon="1.95634">
        <ele>412.97367368</ele>
        <time>2016-08-23T08:03:39Z</time>
      </trkpt>
      <trkpt lat="42.99328" lon="1.95627">
        <ele>414.97312424</ele>
        <time>2016-08-23T08:03:43Z</time>
      </trkpt>
      <trkpt lat="42.99309" lon="1.95618">
        <ele>415.97235448</ele>
        <time>2016-08-23T08:03:47Z</time>
      </trkpt>
      <trkpt lat="42.99287" lon="1.95607">
        <ele>413.97148084</ele>
        <time>2016-08-23T08:03:51Z</time>
      </trkpt>
      <trkpt lat="42.99263" lon="1.95602">
        <ele>413.97050784</ele>
        <time>2016-08-23T08:03:55Z</time>
      </trkpt>
      <trkpt lat="42.99246" lon="1.95611">
        <ele>416.96984312</ele>
        <time>2016-08-23T08:04:00Z</time>
      </trkpt>
      <trkpt lat="42.99236" lon="1.95606">
        <ele>418.96945324</ele>
        <time>2016-08-23T08:04:05Z</time>
      </trkpt>
      <trkpt lat="42.99229" lon="1.95599">
        <ele>424.9691732</ele>
        <time>2016-08-23T08:04:11Z</time>
      </trkpt>
      <trkpt lat="42.99224" lon="1.9558">
        <ele>422.96897656</ele>
        <time>2016-08-23T08:04:16Z</time>
      </trkpt>
      <trkpt lat="42.99221" lon="1.95569">
        <ele>424.96885456</ele>
        <time>2016-08-23T08:04:22Z</time>
      </trkpt>
      <trkpt lat="42.99213" lon="1.9556">
        <ele>422.96849844</ele>
        <time>2016-08-23T08:04:27Z</time>
      </trkpt>
      <trkpt lat="42.99204" lon="1.95553">
        <ele>422.96816744</ele>
        <time>2016-08-23T08:04:31Z</time>
      </trkpt>
      <trkpt lat="42.99188" lon="1.95551">
        <ele>423.9675022</ele>
        <time>2016-08-23T08:04:36Z</time>
      </trkpt>
      <trkpt lat="42.99167" lon="1.95548">
        <ele>424.96667288</ele>
        <time>2016-08-23T08:04:40Z</time>
      </trkpt>
      <trkpt lat="42.99154" lon="1.95544">
        <ele>424.96615136</ele>
        <time>2016-08-23T08:04:44Z</time>
      </trkpt>
      <trkpt lat="42.99148" lon="1.95538">
        <ele>425.96591656</ele>
        <time>2016-08-23T08:04:49Z</time>
      </trkpt>
      <trkpt lat="42.9914" lon="1.9553">
        <ele>425.96560924</ele>
        <time>2016-08-23T08:04:53Z</time>
      </trkpt>
      <trkpt lat="42.99126" lon="1.95523">
        <ele>426.96505048</ele>
        <time>2016-08-23T08:04:58Z</time>
      </trkpt>
      <trkpt lat="42.99107" lon="1.95525">
        <ele>428.96426092</ele>
        <time>2016-08-23T08:05:03Z</time>
      </trkpt>
      <trkpt lat="42.99099" lon="1.95527">
        <ele>427.96397676</ele>
        <time>2016-08-23T08:05:09Z</time>
      </trkpt>
      <trkpt lat="42.99092" lon="1.95528">
        <ele>426.9636756</ele>
        <time>2016-08-23T08:05:15Z</time>
      </trkpt>
      <trkpt lat="42.99085" lon="1.95529">
        <ele>426.96340648</ele>
        <time>2016-08-23T08:05:24Z</time>
      </trkpt>
      <trkpt lat="42.99082" lon="1.95532">
        <ele>424.96327472</ele>
        <time>2016-08-23T08:11:40Z</time>
      </trkpt>
      <trkpt lat="42.99043" lon="1.95127">
        <ele>427.96172568</ele>
        <time>2016-08-23T08:11:44Z</time>
      </trkpt>
      <trkpt lat="42.99102" lon="1.95004">
        <ele>406.9640784</ele>
        <time>2016-08-23T08:12:18Z</time>
      </trkpt>
      <trkpt lat="42.99107" lon="1.94999">
        <ele>404.96426828</ele>
        <time>2016-08-23T08:12:21Z</time>
      </trkpt>
      <trkpt lat="42.99122" lon="1.94889">
        <ele>432.96488616</ele>
        <time>2016-08-23T08:13:02Z</time>
      </trkpt>
      <trkpt lat="42.99137" lon="1.94888">
        <ele>408.96548916</ele>
        <time>2016-08-23T08:13:03Z</time>
      </trkpt>
      <trkpt lat="42.99097" lon="1.94771">
        <ele>434.96388868</ele>
        <time>2016-08-23T08:13:34Z</time>
      </trkpt>
      <trkpt lat="42.99065" lon="1.94767">
        <ele>434.96260952</ele>
        <time>2016-08-23T08:13:38Z</time>
      </trkpt>
      <trkpt lat="42.99054" lon="1.94782">
        <ele>421.96216276</ele>
        <time>2016-08-23T08:13:43Z</time>
      </trkpt>
      <trkpt lat="42.99053" lon="1.94789">
        <ele>423.96213216</ele>
        <time>2016-08-23T08:13:50Z</time>
      </trkpt>
      <trkpt lat="42.99049" lon="1.94822">
        <ele>421.9619514</ele>
        <time>2016-08-23T08:13:55Z</time>
      </trkpt>
      <trkpt lat="42.99025" lon="1.94835">
        <ele>419.96100944</ele>
        <time>2016-08-23T08:13:59Z</time>
      </trkpt>
      <trkpt lat="42.99022" lon="1.94852">
        <ele>418.96087024</ele>
        <time>2016-08-23T08:14:03Z</time>
      </trkpt>
      <trkpt lat="42.99012" lon="1.94856">
        <ele>415.9604586</ele>
        <time>2016-08-23T08:14:08Z</time>
      </trkpt>
      <trkpt lat="42.99009" lon="1.94869">
        <ele>413.96034028</ele>
        <time>2016-08-23T08:14:13Z</time>
      </trkpt>
      <trkpt lat="42.98997" lon="1.94876">
        <ele>414.95987228</ele>
        <time>2016-08-23T08:14:17Z</time>
      </trkpt>
      <trkpt lat="42.98993" lon="1.94886">
        <ele>419.9597376</ele>
        <time>2016-08-23T08:14:21Z</time>
      </trkpt>
      <trkpt lat="42.98974" lon="1.94894">
        <ele>416.95896212</ele>
        <time>2016-08-23T08:14:25Z</time>
      </trkpt>
      <trkpt lat="42.98962" lon="1.94892">
        <ele>416.95849184</ele>
        <time>2016-08-23T08:14:30Z</time>
      </trkpt>
      <trkpt lat="42.98957" lon="1.949">
        <ele>418.95828288</ele>
        <time>2016-08-23T08:14:36Z</time>
      </trkpt>
      <trkpt lat="42.98945" lon="1.94905">
        <ele>417.95779072</ele>
        <time>2016-08-23T08:14:40Z</time>
      </trkpt>
      <trkpt lat="42.98933" lon="1.94922">
        <ele>421.95733008</ele>
        <time>2016-08-23T08:14:45Z</time>
      </trkpt>
      <trkpt lat="42.9891" lon="1.9492">
        <ele>418.956403</ele>
        <time>2016-08-23T08:14:50Z</time>
      </trkpt>
      <trkpt lat="42.98898" lon="1.94918">
        <ele>418.95593232</ele>
        <time>2016-08-23T08:14:54Z</time>
      </trkpt>
      <trkpt lat="42.98882" lon="1.94917">
        <ele>416.955269</ele>
        <time>2016-08-23T08:14:58Z</time>
      </trkpt>
      <trkpt lat="42.98869" lon="1.94902">
        <ele>415.95477288</ele>
        <time>2016-08-23T08:15:03Z</time>
      </trkpt>
      <trkpt lat="42.98861" lon="1.94891">
        <ele>413.95442548</ele>
        <time>2016-08-23T08:15:07Z</time>
      </trkpt>
      <trkpt lat="42.98847" lon="1.94881">
        <ele>412.9538848</ele>
        <time>2016-08-23T08:15:12Z</time>
      </trkpt>
      <trkpt lat="42.98839" lon="1.94881">
        <ele>413.95354076</ele>
        <time>2016-08-23T08:15:18Z</time>
      </trkpt>
      <trkpt lat="42.98828" lon="1.9488">
        <ele>413.95310296</ele>
        <time>2016-08-23T08:15:22Z</time>
      </trkpt>
      <trkpt lat="42.9883" lon="1.94888">
        <ele>414.9532012</ele>
        <time>2016-08-23T08:15:27Z</time>
      </trkpt>
      <trkpt lat="42.98815" lon="1.94899">
        <ele>414.9526022</ele>
        <time>2016-08-23T08:15:32Z</time>
      </trkpt>
      <trkpt lat="42.98809" lon="1.94924">
        <ele>414.95234688</ele>
        <time>2016-08-23T08:15:36Z</time>
      </trkpt>
      <trkpt lat="42.98805" lon="1.94941">
        <ele>415.95218428</ele>
        <time>2016-08-23T08:15:40Z</time>
      </trkpt>
      <trkpt lat="42.98779" lon="1.94973">
        <ele>415.951161</ele>
        <time>2016-08-23T08:15:45Z</time>
      </trkpt>
      <trkpt lat="42.98775" lon="1.95001">
        <ele>416.95101024</ele>
        <time>2016-08-23T08:15:49Z</time>
      </trkpt>
      <trkpt lat="42.98775" lon="1.95022">
        <ele>416.95098896</ele>
        <time>2016-08-23T08:15:53Z</time>
      </trkpt>
      <trkpt lat="42.98779" lon="1.95049">
        <ele>416.95115356</ele>
        <time>2016-08-23T08:15:58Z</time>
      </trkpt>
      <trkpt lat="42.98755" lon="1.95063">
        <ele>412.9501806</ele>
        <time>2016-08-23T08:16:02Z</time>
      </trkpt>
      <trkpt lat="42.98738" lon="1.95086">
        <ele>417.94952124</ele>
        <time>2016-08-23T08:16:07Z</time>
      </trkpt>
      <trkpt lat="42.98723" lon="1.95099">
        <ele>415.94891732</ele>
        <time>2016-08-23T08:16:12Z</time>
      </trkpt>
      <trkpt lat="42.98715" lon="1.95114">
        <ele>415.94861496</ele>
        <time>2016-08-23T08:16:16Z</time>
      </trkpt>
      <trkpt lat="42.98713" lon="1.95137">
        <ele>418.94851648</ele>
        <time>2016-08-23T08:16:20Z</time>
      </trkpt>
      <trkpt lat="42.98694" lon="1.95147">
        <ele>423.94776212</ele>
        <time>2016-08-23T08:16:25Z</time>
      </trkpt>
      <trkpt lat="42.98686" lon="1.9517">
        <ele>426.94745712</ele>
        <time>2016-08-23T08:16:29Z</time>
      </trkpt>
      <trkpt lat="42.98668" lon="1.95186">
        <ele>430.94673568</ele>
        <time>2016-08-23T08:16:33Z</time>
      </trkpt>
      <trkpt lat="42.98668" lon="1.952">
        <ele>433.94673464</ele>
        <time>2016-08-23T08:16:37Z</time>
      </trkpt>
      <trkpt lat="42.98656" lon="1.95217">
        <ele>433.94624456</ele>
        <time>2016-08-23T08:16:42Z</time>
      </trkpt>
      <trkpt lat="42.98686" lon="1.95237">
        <ele>433.94744548</ele>
        <time>2016-08-23T08:16:47Z</time>
      </trkpt>
      <trkpt lat="42.9868" lon="1.95273">
        <ele>437.94719852</ele>
        <time>2016-08-23T08:16:51Z</time>
      </trkpt>
      <trkpt lat="42.98673" lon="1.95301">
        <ele>437.94691628</ele>
        <time>2016-08-23T08:16:56Z</time>
      </trkpt>
      <trkpt lat="42.98669" lon="1.95316">
        <ele>441.94677524</ele>
        <time>2016-08-23T08:17:00Z</time>
      </trkpt>
      <trkpt lat="42.98667" lon="1.95341">
        <ele>442.94668188</ele>
        <time>2016-08-23T08:17:04Z</time>
      </trkpt>
      <trkpt lat="42.98664" lon="1.95365">
        <ele>428.94656108</ele>
        <time>2016-08-23T08:17:09Z</time>
      </trkpt>
      <trkpt lat="42.98663" lon="1.95381">
        <ele>431.94651684</ele>
        <time>2016-08-23T08:17:13Z</time>
      </trkpt>
      <trkpt lat="42.98664" lon="1.95411">
        <ele>431.94656372</ele>
        <time>2016-08-23T08:17:17Z</time>
      </trkpt>
      <trkpt lat="42.98659" lon="1.95435">
        <ele>433.94635868</ele>
        <time>2016-08-23T08:17:22Z</time>
      </trkpt>
      <trkpt lat="42.98644" lon="1.9545">
        <ele>430.94573848</ele>
        <time>2016-08-23T08:17:26Z</time>
      </trkpt>
      <trkpt lat="42.98615" lon="1.95459">
        <ele>426.94458228</ele>
        <time>2016-08-23T08:17:30Z</time>
      </trkpt>
      <trkpt lat="42.98602" lon="1.95459">
        <ele>422.94407732</ele>
        <time>2016-08-23T08:17:34Z</time>
      </trkpt>
      <trkpt lat="42.98595" lon="1.95458">
        <ele>423.9437964</ele>
        <time>2016-08-23T08:17:39Z</time>
      </trkpt>
      <trkpt lat="42.98587" lon="1.9546">
        <ele>420.94347188</ele>
        <time>2016-08-23T08:17:44Z</time>
      </trkpt>
      <trkpt lat="42.98578" lon="1.95458">
        <ele>418.94312492</ele>
        <time>2016-08-23T08:17:51Z</time>
      </trkpt>
      <trkpt lat="42.98572" lon="1.95461">
        <ele>419.94289692</ele>
        <time>2016-08-23T08:18:05Z</time>
      </trkpt>
      <trkpt lat="42.98539" lon="1.95464">
        <ele>418.94156796</ele>
        <time>2016-08-23T08:18:10Z</time>
      </trkpt>
      <trkpt lat="42.98512" lon="1.95462">
        <ele>417.9404598</ele>
        <time>2016-08-23T08:18:14Z</time>
      </trkpt>
      <trkpt lat="42.98494" lon="1.95459">
        <ele>419.93974452</ele>
        <time>2016-08-23T08:18:18Z</time>
      </trkpt>
      <trkpt lat="42.98486" lon="1.95458">
        <ele>422.93943596</ele>
        <time>2016-08-23T08:18:24Z</time>
      </trkpt>
      <trkpt lat="42.9847" lon="1.95435">
        <ele>413.93879616</ele>
        <time>2016-08-23T08:18:28Z</time>
      </trkpt>
      <trkpt lat="42.98467" lon="1.95422">
        <ele>412.93867532</ele>
        <time>2016-08-23T08:18:32Z</time>
      </trkpt>
      <trkpt lat="42.98468" lon="1.95409">
        <ele>411.93873476</ele>
        <time>2016-08-23T08:18:36Z</time>
      </trkpt>
      <trkpt lat="42.98473" lon="1.95399">
        <ele>411.93890948</ele>
        <time>2016-08-23T08:18:42Z</time>
      </trkpt>
      <trkpt lat="42.98482" lon="1.95381">
        <ele>410.93929024</ele>
        <time>2016-08-23T08:18:47Z</time>
      </trkpt>
      <trkpt lat="42.98481" lon="1.95369">
        <ele>410.93923252</ele>
        <time>2016-08-23T08:18:51Z</time>
      </trkpt>
      <trkpt lat="42.98486" lon="1.9535">
        <ele>406.93944312</ele>
        <time>2016-08-23T08:18:55Z</time>
      </trkpt>
      <trkpt lat="42.98484" lon="1.95322">
        <ele>403.939354</ele>
        <time>2016-08-23T08:19:00Z</time>
      </trkpt>
      <trkpt lat="42.98491" lon="1.95297">
        <ele>401.93964332</ele>
        <time>2016-08-23T08:19:05Z</time>
      </trkpt>
      <trkpt lat="42.98486" lon="1.95275">
        <ele>403.9394266</ele>
        <time>2016-08-23T08:19:10Z</time>
      </trkpt>
      <trkpt lat="42.98482" lon="1.95257">
        <ele>406.9392906</ele>
        <time>2016-08-23T08:19:15Z</time>
      </trkpt>
      <trkpt lat="42.98486" lon="1.95235">
        <ele>409.93945724</ele>
        <time>2016-08-23T08:19:19Z</time>
      </trkpt>
      <trkpt lat="42.98491" lon="1.95217">
        <ele>408.93961868</ele>
        <time>2016-08-23T08:19:24Z</time>
      </trkpt>
      <trkpt lat="42.98493" lon="1.95205">
        <ele>408.93971068</ele>
        <time>2016-08-23T08:19:28Z</time>
      </trkpt>
      <trkpt lat="42.98497" lon="1.95183">
        <ele>410.93988868</ele>
        <time>2016-08-23T08:19:32Z</time>
      </trkpt>
      <trkpt lat="42.98499" lon="1.95158">
        <ele>409.93994244</ele>
        <time>2016-08-23T08:19:37Z</time>
      </trkpt>
      <trkpt lat="42.98504" lon="1.95141">
        <ele>409.94016268</ele>
        <time>2016-08-23T08:19:41Z</time>
      </trkpt>
      <trkpt lat="42.98507" lon="1.95116">
        <ele>408.9402856</ele>
        <time>2016-08-23T08:19:45Z</time>
      </trkpt>
      <trkpt lat="42.98505" lon="1.95082">
        <ele>407.94019104</ele>
        <time>2016-08-23T08:19:49Z</time>
      </trkpt>
      <trkpt lat="42.98502" lon="1.95058">
        <ele>409.94006604</ele>
        <time>2016-08-23T08:19:53Z</time>
      </trkpt>
      <trkpt lat="42.98502" lon="1.95032">
        <ele>406.94009004</ele>
        <time>2016-08-23T08:19:57Z</time>
      </trkpt>
      <trkpt lat="42.98499" lon="1.95007">
        <ele>407.9399754</ele>
        <time>2016-08-23T08:20:01Z</time>
      </trkpt>
      <trkpt lat="42.98501" lon="1.94984">
        <ele>411.94003364</ele>
        <time>2016-08-23T08:20:05Z</time>
      </trkpt>
      <trkpt lat="42.9849" lon="1.94951">
        <ele>411.9395966</ele>
        <time>2016-08-23T08:20:10Z</time>
      </trkpt>
      <trkpt lat="42.98496" lon="1.94934">
        <ele>409.93983152</ele>
        <time>2016-08-23T08:20:15Z</time>
      </trkpt>
      <trkpt lat="42.98497" lon="1.94909">
        <ele>409.93988912</ele>
        <time>2016-08-23T08:20:19Z</time>
      </trkpt>
      <trkpt lat="42.98502" lon="1.94887">
        <ele>409.94008784</ele>
        <time>2016-08-23T08:20:23Z</time>
      </trkpt>
      <trkpt lat="42.98509" lon="1.94859">
        <ele>407.94034648</ele>
        <time>2016-08-23T08:20:28Z</time>
      </trkpt>
      <trkpt lat="42.98504" lon="1.94822">
        <ele>407.94015668</ele>
        <time>2016-08-23T08:20:32Z</time>
      </trkpt>
      <trkpt lat="42.98507" lon="1.94789">
        <ele>409.94026364</ele>
        <time>2016-08-23T08:20:37Z</time>
      </trkpt>
      <trkpt lat="42.98509" lon="1.94756">
        <ele>409.94037288</ele>
        <time>2016-08-23T08:20:41Z</time>
      </trkpt>
      <trkpt lat="42.98511" lon="1.94735">
        <ele>409.94045136</ele>
        <time>2016-08-23T08:20:45Z</time>
      </trkpt>
      <trkpt lat="42.98514" lon="1.94719">
        <ele>418.94055648</ele>
        <time>2016-08-23T08:20:49Z</time>
      </trkpt>
      <trkpt lat="42.98511" lon="1.94701">
        <ele>421.94044884</ele>
        <time>2016-08-23T08:20:53Z</time>
      </trkpt>
      <trkpt lat="42.98511" lon="1.947">
        <ele>421.94042172</ele>
        <time>2016-08-23T08:20:54Z</time>
      </trkpt>
      <trkpt lat="42.98491" lon="1.94693">
        <ele>423.9396486</ele>
        <time>2016-08-23T08:21:02Z</time>
      </trkpt>
      <trkpt lat="42.98497" lon="1.94688">
        <ele>410.93988504</ele>
        <time>2016-08-23T08:22:08Z</time>
      </trkpt>
      <trkpt lat="42.9851" lon="1.94667">
        <ele>411.94039464</ele>
        <time>2016-08-23T08:22:13Z</time>
      </trkpt>
      <trkpt lat="42.98514" lon="1.94656">
        <ele>409.94054492</ele>
        <time>2016-08-23T08:22:17Z</time>
      </trkpt>
      <trkpt lat="42.98517" lon="1.9464">
        <ele>405.94068836</ele>
        <time>2016-08-23T08:22:21Z</time>
      </trkpt>
      <trkpt lat="42.98524" lon="1.94616">
        <ele>406.94096124</ele>
        <time>2016-08-23T08:22:25Z</time>
      </trkpt>
      <trkpt lat="42.98529" lon="1.946">
        <ele>407.94116748</ele>
        <time>2016-08-23T08:22:29Z</time>
      </trkpt>
      <trkpt lat="42.98539" lon="1.94577">
        <ele>405.941549</ele>
        <time>2016-08-23T08:22:34Z</time>
      </trkpt>
      <trkpt lat="42.98541" lon="1.94565">
        <ele>406.9416336</ele>
        <time>2016-08-23T08:22:38Z</time>
      </trkpt>
      <trkpt lat="42.98546" lon="1.94544">
        <ele>408.94182304</ele>
        <time>2016-08-23T08:22:42Z</time>
      </trkpt>
      <trkpt lat="42.98551" lon="1.94522">
        <ele>410.94205708</ele>
        <time>2016-08-23T08:22:47Z</time>
      </trkpt>
      <trkpt lat="42.98551" lon="1.94504">
        <ele>413.94202384</ele>
        <time>2016-08-23T08:22:51Z</time>
      </trkpt>
      <trkpt lat="42.98552" lon="1.94495">
        <ele>412.9420762</ele>
        <time>2016-08-23T08:22:55Z</time>
      </trkpt>
      <trkpt lat="42.98559" lon="1.94473">
        <ele>414.94237092</ele>
        <time>2016-08-23T08:23:00Z</time>
      </trkpt>
      <trkpt lat="42.98569" lon="1.94453">
        <ele>412.94274624</ele>
        <time>2016-08-23T08:23:04Z</time>
      </trkpt>
      <trkpt lat="42.98576" lon="1.94433">
        <ele>410.94304324</ele>
        <time>2016-08-23T08:23:08Z</time>
      </trkpt>
      <trkpt lat="42.98594" lon="1.94406">
        <ele>407.9437652</ele>
        <time>2016-08-23T08:23:13Z</time>
      </trkpt>
      <trkpt lat="42.98599" lon="1.94385">
        <ele>410.94397476</ele>
        <time>2016-08-23T08:23:17Z</time>
      </trkpt>
      <trkpt lat="42.98612" lon="1.94348">
        <ele>411.94446268</ele>
        <time>2016-08-23T08:23:21Z</time>
      </trkpt>
      <trkpt lat="42.98616" lon="1.94324">
        <ele>409.94461884</ele>
        <time>2016-08-23T08:23:25Z</time>
      </trkpt>
      <trkpt lat="42.98618" lon="1.94313">
        <ele>409.94473428</ele>
        <time>2016-08-23T08:23:29Z</time>
      </trkpt>
      <trkpt lat="42.98615" lon="1.94296">
        <ele>408.94459296</ele>
        <time>2016-08-23T08:23:33Z</time>
      </trkpt>
      <trkpt lat="42.98611" lon="1.94266">
        <ele>405.94444752</ele>
        <time>2016-08-23T08:23:38Z</time>
      </trkpt>
      <trkpt lat="42.98612" lon="1.94249">
        <ele>410.94447592</ele>
        <time>2016-08-23T08:23:43Z</time>
      </trkpt>
      <trkpt lat="42.98571" lon="1.94226">
        <ele>411.9428324</ele>
        <time>2016-08-23T08:23:48Z</time>
      </trkpt>
      <trkpt lat="42.98557" lon="1.94212">
        <ele>411.9422638</ele>
        <time>2016-08-23T08:23:52Z</time>
      </trkpt>
      <trkpt lat="42.98539" lon="1.9419">
        <ele>406.94154004</ele>
        <time>2016-08-23T08:23:57Z</time>
      </trkpt>
      <trkpt lat="42.98526" lon="1.94173">
        <ele>406.94102456</ele>
        <time>2016-08-23T08:24:01Z</time>
      </trkpt>
      <trkpt lat="42.98507" lon="1.94158">
        <ele>405.94028872</ele>
        <time>2016-08-23T08:24:06Z</time>
      </trkpt>
      <trkpt lat="42.98494" lon="1.9414">
        <ele>404.93976884</ele>
        <time>2016-08-23T08:24:10Z</time>
      </trkpt>
      <trkpt lat="42.98482" lon="1.94118">
        <ele>406.93926932</ele>
        <time>2016-08-23T08:24:15Z</time>
      </trkpt>
      <trkpt lat="42.98472" lon="1.94099">
        <ele>407.93888036</ele>
        <time>2016-08-23T08:24:19Z</time>
      </trkpt>
      <trkpt lat="42.9846" lon="1.94085">
        <ele>408.93841488</ele>
        <time>2016-08-23T08:24:23Z</time>
      </trkpt>
      <trkpt lat="42.98444" lon="1.9407">
        <ele>408.9377656</ele>
        <time>2016-08-23T08:24:28Z</time>
      </trkpt>
      <trkpt lat="42.98431" lon="1.94043">
        <ele>400.93724428</ele>
        <time>2016-08-23T08:24:32Z</time>
      </trkpt>
      <trkpt lat="42.98422" lon="1.94027">
        <ele>402.9368802</ele>
        <time>2016-08-23T08:24:36Z</time>
      </trkpt>
      <trkpt lat="42.984" lon="1.94015">
        <ele>403.93601396</ele>
        <time>2016-08-23T08:24:41Z</time>
      </trkpt>
      <trkpt lat="42.98387" lon="1.93999">
        <ele>400.93546016</ele>
        <time>2016-08-23T08:24:45Z</time>
      </trkpt>
      <trkpt lat="42.98374" lon="1.93976">
        <ele>401.93495124</ele>
        <time>2016-08-23T08:24:50Z</time>
      </trkpt>
      <trkpt lat="42.9836" lon="1.93961">
        <ele>399.93439736</ele>
        <time>2016-08-23T08:24:54Z</time>
      </trkpt>
      <trkpt lat="42.98338" lon="1.93947">
        <ele>398.93351544</ele>
        <time>2016-08-23T08:24:59Z</time>
      </trkpt>
      <trkpt lat="42.98321" lon="1.93935">
        <ele>397.93283236</ele>
        <time>2016-08-23T08:25:03Z</time>
      </trkpt>
      <trkpt lat="42.98313" lon="1.93918">
        <ele>398.93252756</ele>
        <time>2016-08-23T08:25:07Z</time>
      </trkpt>
      <trkpt lat="42.98305" lon="1.93901">
        <ele>398.93218656</ele>
        <time>2016-08-23T08:25:11Z</time>
      </trkpt>
      <trkpt lat="42.98297" lon="1.93887">
        <ele>400.9318952</ele>
        <time>2016-08-23T08:25:15Z</time>
      </trkpt>
      <trkpt lat="42.98302" lon="1.9386">
        <ele>404.93208328</ele>
        <time>2016-08-23T08:25:20Z</time>
      </trkpt>
      <trkpt lat="42.98307" lon="1.93843">
        <ele>407.93229228</ele>
        <time>2016-08-23T08:25:24Z</time>
      </trkpt>
      <trkpt lat="42.98312" lon="1.93827">
        <ele>408.93247504</ele>
        <time>2016-08-23T08:25:28Z</time>
      </trkpt>
      <trkpt lat="42.9832" lon="1.93811">
        <ele>410.9327906</ele>
        <time>2016-08-23T08:25:33Z</time>
      </trkpt>
      <trkpt lat="42.98328" lon="1.93798">
        <ele>411.93313148</ele>
        <time>2016-08-23T08:25:37Z</time>
      </trkpt>
      <trkpt lat="42.98332" lon="1.93775">
        <ele>412.93327788</ele>
        <time>2016-08-23T08:25:42Z</time>
      </trkpt>
      <trkpt lat="42.98336" lon="1.93759">
        <ele>413.93344504</ele>
        <time>2016-08-23T08:25:46Z</time>
      </trkpt>
      <trkpt lat="42.98341" lon="1.93743">
        <ele>413.93364848</ele>
        <time>2016-08-23T08:25:50Z</time>
      </trkpt>
      <trkpt lat="42.9835" lon="1.93722">
        <ele>413.93399684</ele>
        <time>2016-08-23T08:25:54Z</time>
      </trkpt>
      <trkpt lat="42.98353" lon="1.93698">
        <ele>415.93411396</ele>
        <time>2016-08-23T08:25:59Z</time>
      </trkpt>
      <trkpt lat="42.9836" lon="1.9368">
        <ele>414.93441728</ele>
        <time>2016-08-23T08:26:03Z</time>
      </trkpt>
      <trkpt lat="42.9836" lon="1.93666">
        <ele>414.93437924</ele>
        <time>2016-08-23T08:26:07Z</time>
      </trkpt>
      <trkpt lat="42.98368" lon="1.93651">
        <ele>416.93470568</ele>
        <time>2016-08-23T08:26:12Z</time>
      </trkpt>
      <trkpt lat="42.98364" lon="1.93634">
        <ele>416.93453936</ele>
        <time>2016-08-23T08:26:16Z</time>
      </trkpt>
      <trkpt lat="42.98365" lon="1.93614">
        <ele>418.93459416</ele>
        <time>2016-08-23T08:26:21Z</time>
      </trkpt>
      <trkpt lat="42.98355" lon="1.93592">
        <ele>415.93420836</ele>
        <time>2016-08-23T08:26:25Z</time>
      </trkpt>
      <trkpt lat="42.98359" lon="1.93563">
        <ele>414.93435428</ele>
        <time>2016-08-23T08:26:30Z</time>
      </trkpt>
      <trkpt lat="42.98362" lon="1.93546">
        <ele>414.93448732</ele>
        <time>2016-08-23T08:26:34Z</time>
      </trkpt>
      <trkpt lat="42.98376" lon="1.93531">
        <ele>414.93504396</ele>
        <time>2016-08-23T08:26:38Z</time>
      </trkpt>
      <trkpt lat="42.98375" lon="1.93504">
        <ele>414.9349852</ele>
        <time>2016-08-23T08:26:43Z</time>
      </trkpt>
      <trkpt lat="42.98394" lon="1.93491">
        <ele>412.93575704</ele>
        <time>2016-08-23T08:26:48Z</time>
      </trkpt>
      <trkpt lat="42.9841" lon="1.93467">
        <ele>411.93639468</ele>
        <time>2016-08-23T08:26:52Z</time>
      </trkpt>
      <trkpt lat="42.98415" lon="1.93437">
        <ele>410.9366014</ele>
        <time>2016-08-23T08:26:56Z</time>
      </trkpt>
      <trkpt lat="42.98408" lon="1.93409">
        <ele>411.93632028</ele>
        <time>2016-08-23T08:27:01Z</time>
      </trkpt>
      <trkpt lat="42.984" lon="1.93391">
        <ele>411.93599088</ele>
        <time>2016-08-23T08:27:06Z</time>
      </trkpt>
      <trkpt lat="42.98396" lon="1.93378">
        <ele>411.93582408</ele>
        <time>2016-08-23T08:27:10Z</time>
      </trkpt>
      <trkpt lat="42.98388" lon="1.9336">
        <ele>411.93552296</ele>
        <time>2016-08-23T08:27:14Z</time>
      </trkpt>
      <trkpt lat="42.98369" lon="1.93342">
        <ele>410.93477392</ele>
        <time>2016-08-23T08:27:19Z</time>
      </trkpt>
      <trkpt lat="42.98356" lon="1.9333">
        <ele>414.93424204</ele>
        <time>2016-08-23T08:27:23Z</time>
      </trkpt>
      <trkpt lat="42.98358" lon="1.93314">
        <ele>411.93431012</ele>
        <time>2016-08-23T08:27:28Z</time>
      </trkpt>
      <trkpt lat="42.98349" lon="1.93301">
        <ele>412.9339516</ele>
        <time>2016-08-23T08:27:32Z</time>
      </trkpt>
      <trkpt lat="42.98345" lon="1.93273">
        <ele>412.9338122</ele>
        <time>2016-08-23T08:27:37Z</time>
      </trkpt>
      <trkpt lat="42.98338" lon="1.93251">
        <ele>411.93352756</ele>
        <time>2016-08-23T08:27:41Z</time>
      </trkpt>
      <trkpt lat="42.98333" lon="1.93219">
        <ele>410.93331012</ele>
        <time>2016-08-23T08:27:46Z</time>
      </trkpt>
      <trkpt lat="42.98331" lon="1.93189">
        <ele>407.93324904</ele>
        <time>2016-08-23T08:27:51Z</time>
      </trkpt>
      <trkpt lat="42.98326" lon="1.93164">
        <ele>406.93304284</ele>
        <time>2016-08-23T08:27:55Z</time>
      </trkpt>
      <trkpt lat="42.98321" lon="1.93136">
        <ele>405.93284672</ele>
        <time>2016-08-23T08:27:59Z</time>
      </trkpt>
      <trkpt lat="42.98311" lon="1.93105">
        <ele>404.93244748</ele>
        <time>2016-08-23T08:28:04Z</time>
      </trkpt>
      <trkpt lat="42.98298" lon="1.93081">
        <ele>399.93193128</ele>
        <time>2016-08-23T08:28:08Z</time>
      </trkpt>
      <trkpt lat="42.98292" lon="1.93065">
        <ele>405.93166848</ele>
        <time>2016-08-23T08:28:12Z</time>
      </trkpt>
      <trkpt lat="42.98282" lon="1.93044">
        <ele>405.9312752</ele>
        <time>2016-08-23T08:28:16Z</time>
      </trkpt>
      <trkpt lat="42.98269" lon="1.93029">
        <ele>408.93075136</ele>
        <time>2016-08-23T08:28:21Z</time>
      </trkpt>
      <trkpt lat="42.98257" lon="1.93012">
        <ele>408.93026692</ele>
        <time>2016-08-23T08:28:25Z</time>
      </trkpt>
      <trkpt lat="42.98244" lon="1.93015">
        <ele>408.92973948</ele>
        <time>2016-08-23T08:28:29Z</time>
      </trkpt>
      <trkpt lat="42.98244" lon="1.93039">
        <ele>409.92975292</ele>
        <time>2016-08-23T08:28:34Z</time>
      </trkpt>
      <trkpt lat="42.98235" lon="1.93062">
        <ele>411.92938752</ele>
        <time>2016-08-23T08:28:38Z</time>
      </trkpt>
      <trkpt lat="42.98226" lon="1.93074">
        <ele>412.92902752</ele>
        <time>2016-08-23T08:28:43Z</time>
      </trkpt>
      <trkpt lat="42.98214" lon="1.93084">
        <ele>412.92855332</ele>
        <time>2016-08-23T08:28:47Z</time>
      </trkpt>
      <trkpt lat="42.98213" lon="1.93092">
        <ele>414.92852004</ele>
        <time>2016-08-23T08:28:51Z</time>
      </trkpt>
      <trkpt lat="42.98203" lon="1.93102">
        <ele>418.9281058</ele>
        <time>2016-08-23T08:28:55Z</time>
      </trkpt>
      <trkpt lat="42.98191" lon="1.93125">
        <ele>420.92765216</ele>
        <time>2016-08-23T08:29:00Z</time>
      </trkpt>
      <trkpt lat="42.98171" lon="1.93147">
        <ele>422.92684836</ele>
        <time>2016-08-23T08:29:05Z</time>
      </trkpt>
      <trkpt lat="42.9817" lon="1.93165">
        <ele>422.92678868</ele>
        <time>2016-08-23T08:29:09Z</time>
      </trkpt>
      <trkpt lat="42.98157" lon="1.93185">
        <ele>429.92628976</ele>
        <time>2016-08-23T08:29:13Z</time>
      </trkpt>
      <trkpt lat="42.9814" lon="1.93199">
        <ele>432.92560156</ele>
        <time>2016-08-23T08:29:17Z</time>
      </trkpt>
      <trkpt lat="42.98113" lon="1.93215">
        <ele>423.92451596</ele>
        <time>2016-08-23T08:29:22Z</time>
      </trkpt>
      <trkpt lat="42.981" lon="1.93219">
        <ele>423.924009</ele>
        <time>2016-08-23T08:29:26Z</time>
      </trkpt>
      <trkpt lat="42.98076" lon="1.93209">
        <ele>422.92305048</ele>
        <time>2016-08-23T08:29:31Z</time>
      </trkpt>
      <trkpt lat="42.9807" lon="1.9319">
        <ele>420.92279316</ele>
        <time>2016-08-23T08:29:35Z</time>
      </trkpt>
      <trkpt lat="42.98067" lon="1.93171">
        <ele>420.9226926</ele>
        <time>2016-08-23T08:29:39Z</time>
      </trkpt>
      <trkpt lat="42.98065" lon="1.93157">
        <ele>419.92259576</ele>
        <time>2016-08-23T08:29:44Z</time>
      </trkpt>
      <trkpt lat="42.98048" lon="1.93133">
        <ele>418.92192752</ele>
        <time>2016-08-23T08:29:48Z</time>
      </trkpt>
      <trkpt lat="42.98033" lon="1.93119">
        <ele>417.9213064</ele>
        <time>2016-08-23T08:29:51Z</time>
      </trkpt>
      <trkpt lat="42.98025" lon="1.93123">
        <ele>415.92101396</ele>
        <time>2016-08-23T08:29:57Z</time>
      </trkpt>
      <trkpt lat="42.98014" lon="1.93124">
        <ele>418.92054324</ele>
        <time>2016-08-23T08:30:01Z</time>
      </trkpt>
      <trkpt lat="42.97982" lon="1.93117">
        <ele>416.91927796</ele>
        <time>2016-08-23T08:30:05Z</time>
      </trkpt>
      <trkpt lat="42.97962" lon="1.93095">
        <ele>409.91847296</ele>
        <time>2016-08-23T08:30:09Z</time>
      </trkpt>
      <trkpt lat="42.97971" lon="1.93077">
        <ele>408.91882676</ele>
        <time>2016-08-23T08:30:14Z</time>
      </trkpt>
      <trkpt lat="42.97968" lon="1.9305">
        <ele>405.91870796</ele>
        <time>2016-08-23T08:30:18Z</time>
      </trkpt>
      <trkpt lat="42.97971" lon="1.93029">
        <ele>402.91882992</ele>
        <time>2016-08-23T08:30:22Z</time>
      </trkpt>
      <trkpt lat="42.97977" lon="1.93013">
        <ele>398.91907068</ele>
        <time>2016-08-23T08:30:26Z</time>
      </trkpt>
      <trkpt lat="42.97964" lon="1.92991">
        <ele>400.91857488</ele>
        <time>2016-08-23T08:30:30Z</time>
      </trkpt>
      <trkpt lat="42.97952" lon="1.92967">
        <ele>396.91806072</ele>
        <time>2016-08-23T08:30:35Z</time>
      </trkpt>
      <trkpt lat="42.97944" lon="1.92952">
        <ele>397.91775348</ele>
        <time>2016-08-23T08:30:39Z</time>
      </trkpt>
      <trkpt lat="42.97937" lon="1.92947">
        <ele>397.91749748</ele>
        <time>2016-08-23T08:30:44Z</time>
      </trkpt>
      <trkpt lat="42.97919" lon="1.92942">
        <ele>398.91676988</ele>
        <time>2016-08-23T08:30:49Z</time>
      </trkpt>
      <trkpt lat="42.97903" lon="1.92945">
        <ele>400.91612556</ele>
        <time>2016-08-23T08:30:54Z</time>
      </trkpt>
      <trkpt lat="42.97891" lon="1.92953">
        <ele>402.91561872</ele>
        <time>2016-08-23T08:30:59Z</time>
      </trkpt>
      <trkpt lat="42.97873" lon="1.92964">
        <ele>404.91493328</ele>
        <time>2016-08-23T08:31:04Z</time>
      </trkpt>
      <trkpt lat="42.97858" lon="1.92995">
        <ele>405.91431952</ele>
        <time>2016-08-23T08:31:08Z</time>
      </trkpt>
      <trkpt lat="42.9784" lon="1.93017">
        <ele>406.91358396</ele>
        <time>2016-08-23T08:31:12Z</time>
      </trkpt>
      <trkpt lat="42.97828" lon="1.93038">
        <ele>411.91312656</ele>
        <time>2016-08-23T08:31:16Z</time>
      </trkpt>
      <trkpt lat="42.97829" lon="1.93049">
        <ele>420.91314084</ele>
        <time>2016-08-23T08:31:21Z</time>
      </trkpt>
      <trkpt lat="42.97811" lon="1.93067">
        <ele>424.91242012</ele>
        <time>2016-08-23T08:31:26Z</time>
      </trkpt>
      <trkpt lat="42.9779" lon="1.93081">
        <ele>422.91160896</ele>
        <time>2016-08-23T08:31:30Z</time>
      </trkpt>
      <trkpt lat="42.9778" lon="1.93111">
        <ele>422.91121552</ele>
        <time>2016-08-23T08:31:35Z</time>
      </trkpt>
      <trkpt lat="42.97777" lon="1.93132">
        <ele>423.91109144</ele>
        <time>2016-08-23T08:31:39Z</time>
      </trkpt>
      <trkpt lat="42.97773" lon="1.93147">
        <ele>425.91093784</ele>
        <time>2016-08-23T08:31:43Z</time>
      </trkpt>
      <trkpt lat="42.97762" lon="1.93152">
        <ele>431.9104606</ele>
        <time>2016-08-23T08:31:47Z</time>
      </trkpt>
      <trkpt lat="42.97745" lon="1.93173">
        <ele>428.90978852</ele>
        <time>2016-08-23T08:31:51Z</time>
      </trkpt>
      <trkpt lat="42.9777" lon="1.93208">
        <ele>431.91080504</ele>
        <time>2016-08-23T08:31:55Z</time>
      </trkpt>
      <trkpt lat="42.97749" lon="1.93246">
        <ele>424.90996996</ele>
        <time>2016-08-23T08:31:59Z</time>
      </trkpt>
      <trkpt lat="42.9778" lon="1.9329">
        <ele>416.91120812</ele>
        <time>2016-08-23T08:32:04Z</time>
      </trkpt>
      <trkpt lat="42.97747" lon="1.93311">
        <ele>414.9098962</ele>
        <time>2016-08-23T08:32:09Z</time>
      </trkpt>
      <trkpt lat="42.97775" lon="1.93335">
        <ele>416.9110168</ele>
        <time>2016-08-23T08:32:13Z</time>
      </trkpt>
      <trkpt lat="42.97773" lon="1.93357">
        <ele>418.91089908</ele>
        <time>2016-08-23T08:32:18Z</time>
      </trkpt>
      <trkpt lat="42.97689" lon="1.93398">
        <ele>403.90757428</ele>
        <time>2016-08-23T08:32:23Z</time>
      </trkpt>
      <trkpt lat="42.97684" lon="1.9341">
        <ele>399.907342</ele>
        <time>2016-08-23T08:32:27Z</time>
      </trkpt>
      <trkpt lat="42.97668" lon="1.93403">
        <ele>397.90670692</ele>
        <time>2016-08-23T08:32:32Z</time>
      </trkpt>
      <trkpt lat="42.97666" lon="1.93383">
        <ele>397.90662168</ele>
        <time>2016-08-23T08:32:36Z</time>
      </trkpt>
      <trkpt lat="42.97666" lon="1.93359">
        <ele>396.9066518</ele>
        <time>2016-08-23T08:32:41Z</time>
      </trkpt>
      <trkpt lat="42.97693" lon="1.93347">
        <ele>386.90771908</ele>
        <time>2016-08-23T08:32:46Z</time>
      </trkpt>
      <trkpt lat="42.97684" lon="1.93332">
        <ele>387.9073406</ele>
        <time>2016-08-23T08:32:50Z</time>
      </trkpt>
      <trkpt lat="42.97666" lon="1.93316">
        <ele>386.90663328</ele>
        <time>2016-08-23T08:32:54Z</time>
      </trkpt>
      <trkpt lat="42.97648" lon="1.93302">
        <ele>384.90593604</ele>
        <time>2016-08-23T08:32:59Z</time>
      </trkpt>
      <trkpt lat="42.97636" lon="1.93289">
        <ele>388.9054228</ele>
        <time>2016-08-23T08:33:04Z</time>
      </trkpt>
      <trkpt lat="42.97628" lon="1.93284">
        <ele>386.90512712</ele>
        <time>2016-08-23T08:33:09Z</time>
      </trkpt>
      <trkpt lat="42.97609" lon="1.9328">
        <ele>389.904351</ele>
        <time>2016-08-23T08:33:14Z</time>
      </trkpt>
      <trkpt lat="42.976" lon="1.93279">
        <ele>389.90399592</ele>
        <time>2016-08-23T08:33:19Z</time>
      </trkpt>
      <trkpt lat="42.976" lon="1.93267">
        <ele>389.9040018</ele>
        <time>2016-08-23T08:33:26Z</time>
      </trkpt>
      <trkpt lat="42.97607" lon="1.93256">
        <ele>388.9042766</ele>
        <time>2016-08-23T08:33:30Z</time>
      </trkpt>
      <trkpt lat="42.9759" lon="1.93255">
        <ele>390.90357952</ele>
        <time>2016-08-23T08:33:34Z</time>
      </trkpt>
      <trkpt lat="42.97584" lon="1.93246">
        <ele>392.90335472</ele>
        <time>2016-08-23T08:33:38Z</time>
      </trkpt>
      <trkpt lat="42.97573" lon="1.93257">
        <ele>391.90292456</ele>
        <time>2016-08-23T08:33:43Z</time>
      </trkpt>
      <trkpt lat="42.97572" lon="1.93269">
        <ele>391.90287536</ele>
        <time>2016-08-23T08:33:52Z</time>
      </trkpt>
      <trkpt lat="42.97565" lon="1.93282">
        <ele>392.90261072</ele>
        <time>2016-08-23T08:33:57Z</time>
      </trkpt>
      <trkpt lat="42.97584" lon="1.9329">
        <ele>390.90336</ele>
        <time>2016-08-23T08:34:00Z</time>
      </trkpt>
      <trkpt lat="42.97582" lon="1.933">
        <ele>390.9032592</ele>
        <time>2016-08-23T08:34:07Z</time>
      </trkpt>
      <trkpt lat="42.97537" lon="1.93305">
        <ele>384.90147948</ele>
        <time>2016-08-23T08:34:33Z</time>
      </trkpt>
      <trkpt lat="42.97542" lon="1.933">
        <ele>387.90166976</ele>
        <time>2016-08-23T08:34:38Z</time>
      </trkpt>
      <trkpt lat="42.97544" lon="1.93302">
        <ele>398.90177004</ele>
        <time>2016-08-23T08:34:42Z</time>
      </trkpt>
      <trkpt lat="42.97563" lon="1.9332">
        <ele>402.9025348</ele>
        <time>2016-08-23T08:34:46Z</time>
      </trkpt>
      <trkpt lat="42.9757" lon="1.93355">
        <ele>404.902817</ele>
        <time>2016-08-23T08:34:50Z</time>
      </trkpt>
      <trkpt lat="42.97585" lon="1.93388">
        <ele>401.90340592</ele>
        <time>2016-08-23T08:34:55Z</time>
      </trkpt>
      <trkpt lat="42.97585" lon="1.93411">
        <ele>392.90338616</ele>
        <time>2016-08-23T08:34:59Z</time>
      </trkpt>
      <trkpt lat="42.97565" lon="1.93429">
        <ele>399.90261424</ele>
        <time>2016-08-23T08:35:04Z</time>
      </trkpt>
      <trkpt lat="42.97544" lon="1.93455">
        <ele>404.90176164</ele>
        <time>2016-08-23T08:35:09Z</time>
      </trkpt>
      <trkpt lat="42.97532" lon="1.93467">
        <ele>404.90128928</ele>
        <time>2016-08-23T08:35:13Z</time>
      </trkpt>
      <trkpt lat="42.97511" lon="1.93483">
        <ele>404.90042332</ele>
        <time>2016-08-23T08:35:18Z</time>
      </trkpt>
      <trkpt lat="42.97508" lon="1.93516">
        <ele>405.90031348</ele>
        <time>2016-08-23T08:35:22Z</time>
      </trkpt>
      <trkpt lat="42.97508" lon="1.93516">
        <ele>405.90031348</ele>
        <time>2016-08-23T08:35:59Z</time>
      </trkpt>
      <trkpt lat="42.97514" lon="1.93792">
        <ele>439.9005702</ele>
        <time>2016-08-23T08:36:03Z</time>
      </trkpt>
      <trkpt lat="42.97495" lon="1.93822">
        <ele>429.89980784</ele>
        <time>2016-08-23T08:36:08Z</time>
      </trkpt>
      <trkpt lat="42.97487" lon="1.93838">
        <ele>426.8994746</ele>
        <time>2016-08-23T08:36:12Z</time>
      </trkpt>
      <trkpt lat="42.97488" lon="1.93863">
        <ele>434.89953392</ele>
        <time>2016-08-23T08:36:16Z</time>
      </trkpt>
      <trkpt lat="42.9747" lon="1.93905">
        <ele>436.8988086</ele>
        <time>2016-08-23T08:36:21Z</time>
      </trkpt>
      <trkpt lat="42.97456" lon="1.93938">
        <ele>431.89825192</ele>
        <time>2016-08-23T08:36:25Z</time>
      </trkpt>
      <trkpt lat="42.9744" lon="1.93963">
        <ele>429.8975808</ele>
        <time>2016-08-23T08:36:30Z</time>
      </trkpt>
      <trkpt lat="42.97428" lon="1.93992">
        <ele>425.89709916</ele>
        <time>2016-08-23T08:36:34Z</time>
      </trkpt>
      <trkpt lat="42.9743" lon="1.94013">
        <ele>426.89721228</ele>
        <time>2016-08-23T08:36:38Z</time>
      </trkpt>
      <trkpt lat="42.9745" lon="1.94042">
        <ele>424.89800416</ele>
        <time>2016-08-23T08:36:42Z</time>
      </trkpt>
      <trkpt lat="42.97436" lon="1.94068">
        <ele>422.89744612</ele>
        <time>2016-08-23T08:36:47Z</time>
      </trkpt>
      <trkpt lat="42.97444" lon="1.94088">
        <ele>421.89775324</ele>
        <time>2016-08-23T08:36:51Z</time>
      </trkpt>
      <trkpt lat="42.97434" lon="1.94109">
        <ele>418.89734532</ele>
        <time>2016-08-23T08:36:55Z</time>
      </trkpt>
      <trkpt lat="42.97415" lon="1.94139">
        <ele>419.89659364</ele>
        <time>2016-08-23T08:37:00Z</time>
      </trkpt>
      <trkpt lat="42.97411" lon="1.94165">
        <ele>422.8964578</ele>
        <time>2016-08-23T08:37:05Z</time>
      </trkpt>
      <trkpt lat="42.97409" lon="1.94184">
        <ele>423.89636524</ele>
        <time>2016-08-23T08:37:09Z</time>
      </trkpt>
      <trkpt lat="42.97404" lon="1.94199">
        <ele>425.89617352</ele>
        <time>2016-08-23T08:37:13Z</time>
      </trkpt>
      <trkpt lat="42.97397" lon="1.94211">
        <ele>430.89586572</ele>
        <time>2016-08-23T08:37:17Z</time>
      </trkpt>
      <trkpt lat="42.97377" lon="1.94247">
        <ele>425.89508696</ele>
        <time>2016-08-23T08:37:21Z</time>
      </trkpt>
      <trkpt lat="42.97373" lon="1.94274">
        <ele>424.89491068</ele>
        <time>2016-08-23T08:37:26Z</time>
      </trkpt>
      <trkpt lat="42.97361" lon="1.94282">
        <ele>423.89443276</ele>
        <time>2016-08-23T08:37:31Z</time>
      </trkpt>
      <trkpt lat="42.97346" lon="1.94289">
        <ele>424.8938368</ele>
        <time>2016-08-23T08:37:36Z</time>
      </trkpt>
      <trkpt lat="42.97341" lon="1.94296">
        <ele>426.89363516</ele>
        <time>2016-08-23T08:37:44Z</time>
      </trkpt>
      <trkpt lat="42.9736" lon="1.94304">
        <ele>427.89438432</ele>
        <time>2016-08-23T08:37:49Z</time>
      </trkpt>
      <trkpt lat="42.97352" lon="1.94316">
        <ele>428.89409656</ele>
        <time>2016-08-23T08:37:53Z</time>
      </trkpt>
      <trkpt lat="42.9735" lon="1.94327">
        <ele>415.8939816</ele>
        <time>2016-08-23T08:38:00Z</time>
      </trkpt>
      <trkpt lat="42.97338" lon="1.94342">
        <ele>410.89351648</ele>
        <time>2016-08-23T08:38:04Z</time>
      </trkpt>
      <trkpt lat="42.97328" lon="1.94367">
        <ele>408.89313472</ele>
        <time>2016-08-23T08:38:08Z</time>
      </trkpt>
      <trkpt lat="42.97329" lon="1.94389">
        <ele>405.8931624</ele>
        <time>2016-08-23T08:38:12Z</time>
      </trkpt>
      <trkpt lat="42.97317" lon="1.94402">
        <ele>404.89269388</ele>
        <time>2016-08-23T08:38:16Z</time>
      </trkpt>
      <trkpt lat="42.97319" lon="1.9442">
        <ele>407.89274212</ele>
        <time>2016-08-23T08:38:21Z</time>
      </trkpt>
      <trkpt lat="42.97315" lon="1.94439">
        <ele>405.89259692</ele>
        <time>2016-08-23T08:38:25Z</time>
      </trkpt>
      <trkpt lat="42.97319" lon="1.94459">
        <ele>411.89276044</ele>
        <time>2016-08-23T08:38:29Z</time>
      </trkpt>
      <trkpt lat="42.97313" lon="1.94486">
        <ele>416.89252656</ele>
        <time>2016-08-23T08:38:34Z</time>
      </trkpt>
      <trkpt lat="42.97311" lon="1.94514">
        <ele>419.8924232</ele>
        <time>2016-08-23T08:38:39Z</time>
      </trkpt>
      <trkpt lat="42.97312" lon="1.94536">
        <ele>421.8924652</ele>
        <time>2016-08-23T08:38:43Z</time>
      </trkpt>
      <trkpt lat="42.9731" lon="1.94557">
        <ele>419.89240432</ele>
        <time>2016-08-23T08:38:47Z</time>
      </trkpt>
      <trkpt lat="42.97288" lon="1.94585">
        <ele>414.89151508</ele>
        <time>2016-08-23T08:38:52Z</time>
      </trkpt>
      <trkpt lat="42.97299" lon="1.94595">
        <ele>415.8919688</ele>
        <time>2016-08-23T08:38:56Z</time>
      </trkpt>
      <trkpt lat="42.97289" lon="1.94608">
        <ele>412.89155672</ele>
        <time>2016-08-23T08:39:01Z</time>
      </trkpt>
      <trkpt lat="42.97295" lon="1.94599">
        <ele>411.89178192</ele>
        <time>2016-08-23T08:39:06Z</time>
      </trkpt>
      <trkpt lat="42.97307" lon="1.94588">
        <ele>411.89226908</ele>
        <time>2016-08-23T08:39:10Z</time>
      </trkpt>
      <trkpt lat="42.97317" lon="1.94566">
        <ele>411.892669</ele>
        <time>2016-08-23T08:39:14Z</time>
      </trkpt>
      <trkpt lat="42.97329" lon="1.94552">
        <ele>411.89316572</ele>
        <time>2016-08-23T08:39:18Z</time>
      </trkpt>
      <trkpt lat="42.97337" lon="1.94556">
        <ele>411.89349032</ele>
        <time>2016-08-23T08:39:22Z</time>
      </trkpt>
      <trkpt lat="42.97354" lon="1.94542">
        <ele>403.89414936</ele>
        <time>2016-08-23T08:39:27Z</time>
      </trkpt>
      <trkpt lat="42.97369" lon="1.94533">
        <ele>394.89477272</ele>
        <time>2016-08-23T08:39:32Z</time>
      </trkpt>
      <trkpt lat="42.97381" lon="1.94533">
        <ele>398.89525744</ele>
        <time>2016-08-23T08:39:36Z</time>
      </trkpt>
      <trkpt lat="42.97402" lon="1.94539">
        <ele>400.89609612</ele>
        <time>2016-08-23T08:39:40Z</time>
      </trkpt>
      <trkpt lat="42.97419" lon="1.94549">
        <ele>400.89674268</ele>
        <time>2016-08-23T08:39:45Z</time>
      </trkpt>
      <trkpt lat="42.9744" lon="1.94534">
        <ele>400.89761324</ele>
        <time>2016-08-23T08:39:50Z</time>
      </trkpt>
      <trkpt lat="42.97457" lon="1.94511">
        <ele>398.89829568</ele>
        <time>2016-08-23T08:39:55Z</time>
      </trkpt>
      <trkpt lat="42.9747" lon="1.94504">
        <ele>395.89881344</ele>
        <time>2016-08-23T08:39:59Z</time>
      </trkpt>
      <trkpt lat="42.97491" lon="1.94473">
        <ele>398.89963844</ele>
        <time>2016-08-23T08:40:04Z</time>
      </trkpt>
      <trkpt lat="42.97512" lon="1.9446">
        <ele>399.90046336</ele>
        <time>2016-08-23T08:40:09Z</time>
      </trkpt>
      <trkpt lat="42.9753" lon="1.94454">
        <ele>399.90120776</ele>
        <time>2016-08-23T08:40:13Z</time>
      </trkpt>
      <trkpt lat="42.97556" lon="1.94442">
        <ele>401.90223928</ele>
        <time>2016-08-23T08:40:18Z</time>
      </trkpt>
      <trkpt lat="42.9757" lon="1.94438">
        <ele>401.90278668</ele>
        <time>2016-08-23T08:40:22Z</time>
      </trkpt>
      <trkpt lat="42.97587" lon="1.94428">
        <ele>398.90347832</ele>
        <time>2016-08-23T08:40:26Z</time>
      </trkpt>
      <trkpt lat="42.97617" lon="1.94423">
        <ele>399.9046948</ele>
        <time>2016-08-23T08:40:31Z</time>
      </trkpt>
      <trkpt lat="42.97634" lon="1.94435">
        <ele>395.905343</ele>
        <time>2016-08-23T08:40:35Z</time>
      </trkpt>
      <trkpt lat="42.97649" lon="1.94454">
        <ele>397.90597588</ele>
        <time>2016-08-23T08:40:40Z</time>
      </trkpt>
      <trkpt lat="42.97655" lon="1.94468">
        <ele>388.9061906</ele>
        <time>2016-08-23T08:40:45Z</time>
      </trkpt>
      <trkpt lat="42.97661" lon="1.94488">
        <ele>386.90645008</ele>
        <time>2016-08-23T08:40:49Z</time>
      </trkpt>
      <trkpt lat="42.97646" lon="1.94519">
        <ele>392.90584824</ele>
        <time>2016-08-23T08:40:54Z</time>
      </trkpt>
      <trkpt lat="42.97642" lon="1.94543">
        <ele>390.90569036</ele>
        <time>2016-08-23T08:40:58Z</time>
      </trkpt>
      <trkpt lat="42.97631" lon="1.94575">
        <ele>391.90524892</ele>
        <time>2016-08-23T08:41:03Z</time>
      </trkpt>
      <trkpt lat="42.97633" lon="1.94613">
        <ele>393.9053342</ele>
        <time>2016-08-23T08:41:08Z</time>
      </trkpt>
      <trkpt lat="42.97634" lon="1.94632">
        <ele>395.90536212</ele>
        <time>2016-08-23T08:41:12Z</time>
      </trkpt>
      <trkpt lat="42.97627" lon="1.94648">
        <ele>398.90508336</ele>
        <time>2016-08-23T08:41:16Z</time>
      </trkpt>
      <trkpt lat="42.97631" lon="1.94664">
        <ele>401.90525548</ele>
        <time>2016-08-23T08:41:20Z</time>
      </trkpt>
      <trkpt lat="42.97625" lon="1.94687">
        <ele>400.90501532</ele>
        <time>2016-08-23T08:41:24Z</time>
      </trkpt>
      <trkpt lat="42.97618" lon="1.9471">
        <ele>402.90471528</ele>
        <time>2016-08-23T08:41:28Z</time>
      </trkpt>
      <trkpt lat="42.97608" lon="1.94737">
        <ele>402.90432384</ele>
        <time>2016-08-23T08:41:33Z</time>
      </trkpt>
      <trkpt lat="42.97603" lon="1.94759">
        <ele>403.9041246</ele>
        <time>2016-08-23T08:41:37Z</time>
      </trkpt>
      <trkpt lat="42.97581" lon="1.94795">
        <ele>401.90324172</ele>
        <time>2016-08-23T08:41:42Z</time>
      </trkpt>
      <trkpt lat="42.9757" lon="1.94819">
        <ele>402.90281616</ele>
        <time>2016-08-23T08:41:46Z</time>
      </trkpt>
      <trkpt lat="42.97559" lon="1.94842">
        <ele>409.90235144</ele>
        <time>2016-08-23T08:41:51Z</time>
      </trkpt>
      <trkpt lat="42.97549" lon="1.94875">
        <ele>408.90197572</ele>
        <time>2016-08-23T08:41:56Z</time>
      </trkpt>
      <trkpt lat="42.97541" lon="1.94902">
        <ele>409.90165356</ele>
        <time>2016-08-23T08:42:01Z</time>
      </trkpt>
      <trkpt lat="42.9752" lon="1.94917">
        <ele>408.90081008</ele>
        <time>2016-08-23T08:42:05Z</time>
      </trkpt>
      <trkpt lat="42.97517" lon="1.94948">
        <ele>411.90066244</ele>
        <time>2016-08-23T08:42:10Z</time>
      </trkpt>
      <trkpt lat="42.975" lon="1.94962">
        <ele>410.9000034</ele>
        <time>2016-08-23T08:42:14Z</time>
      </trkpt>
      <trkpt lat="42.97496" lon="1.94976">
        <ele>410.89982868</ele>
        <time>2016-08-23T08:42:17Z</time>
      </trkpt>
      <trkpt lat="42.97489" lon="1.9499">
        <ele>410.89955872</ele>
        <time>2016-08-23T08:42:20Z</time>
      </trkpt>
      <trkpt lat="42.97486" lon="1.95003">
        <ele>410.89942412</ele>
        <time>2016-08-23T08:42:23Z</time>
      </trkpt>
      <trkpt lat="42.97486" lon="1.95003">
        <ele>410.89942412</ele>
        <time>2016-08-23T08:43:17Z</time>
      </trkpt>
      <trkpt lat="42.97331" lon="1.94998">
        <ele>379.89324408</ele>
        <time>2016-08-23T08:43:21Z</time>
      </trkpt>
      <trkpt lat="42.9732" lon="1.95002">
        <ele>386.89280428</ele>
        <time>2016-08-23T08:43:25Z</time>
      </trkpt>
      <trkpt lat="42.97304" lon="1.95003">
        <ele>394.89213928</ele>
        <time>2016-08-23T08:43:29Z</time>
      </trkpt>
      <trkpt lat="42.97289" lon="1.95002">
        <ele>393.89154316</ele>
        <time>2016-08-23T08:43:33Z</time>
      </trkpt>
      <trkpt lat="42.97269" lon="1.95008">
        <ele>390.890751</ele>
        <time>2016-08-23T08:43:37Z</time>
      </trkpt>
      <trkpt lat="42.97242" lon="1.95006">
        <ele>388.8896946</ele>
        <time>2016-08-23T08:43:41Z</time>
      </trkpt>
      <trkpt lat="42.97221" lon="1.94989">
        <ele>388.88885188</ele>
        <time>2016-08-23T08:43:46Z</time>
      </trkpt>
      <trkpt lat="42.97212" lon="1.94981">
        <ele>395.88849412</ele>
        <time>2016-08-23T08:43:50Z</time>
      </trkpt>
      <trkpt lat="42.97192" lon="1.94974">
        <ele>397.88766132</ele>
        <time>2016-08-23T08:43:54Z</time>
      </trkpt>
      <trkpt lat="42.97175" lon="1.94963">
        <ele>395.88697944</ele>
        <time>2016-08-23T08:43:58Z</time>
      </trkpt>
      <trkpt lat="42.97154" lon="1.94961">
        <ele>399.88617576</ele>
        <time>2016-08-23T08:44:03Z</time>
      </trkpt>
      <trkpt lat="42.97138" lon="1.94949">
        <ele>397.88553436</ele>
        <time>2016-08-23T08:44:07Z</time>
      </trkpt>
      <trkpt lat="42.97113" lon="1.94941">
        <ele>397.884533</ele>
        <time>2016-08-23T08:44:11Z</time>
      </trkpt>
      <trkpt lat="42.97089" lon="1.94925">
        <ele>397.883545</ele>
        <time>2016-08-23T08:44:16Z</time>
      </trkpt>
      <trkpt lat="42.97072" lon="1.94897">
        <ele>398.88285888</ele>
        <time>2016-08-23T08:44:21Z</time>
      </trkpt>
      <trkpt lat="42.97039" lon="1.94896">
        <ele>403.8815382</ele>
        <time>2016-08-23T08:44:26Z</time>
      </trkpt>
      <trkpt lat="42.97006" lon="1.9492">
        <ele>391.8802314</ele>
        <time>2016-08-23T08:44:30Z</time>
      </trkpt>
      <trkpt lat="42.97005" lon="1.94948">
        <ele>395.88021144</ele>
        <time>2016-08-23T08:44:34Z</time>
      </trkpt>
      <trkpt lat="42.96994" lon="1.94968">
        <ele>395.87975816</ele>
        <time>2016-08-23T08:44:39Z</time>
      </trkpt>
      <trkpt lat="42.96986" lon="1.94966">
        <ele>396.87943684</ele>
        <time>2016-08-23T08:44:44Z</time>
      </trkpt>
      <trkpt lat="42.96981" lon="1.94956">
        <ele>394.87924644</ele>
        <time>2016-08-23T08:44:50Z</time>
      </trkpt>
      <trkpt lat="42.9697" lon="1.9495">
        <ele>398.87879312</ele>
        <time>2016-08-23T08:44:55Z</time>
      </trkpt>
      <trkpt lat="42.96965" lon="1.94947">
        <ele>399.8785954</ele>
        <time>2016-08-23T08:45:00Z</time>
      </trkpt>
      <trkpt lat="42.9695" lon="1.94946">
        <ele>397.87800412</ele>
        <time>2016-08-23T08:45:04Z</time>
      </trkpt>
      <trkpt lat="42.96943" lon="1.94953">
        <ele>395.87770388</ele>
        <time>2016-08-23T08:45:09Z</time>
      </trkpt>
      <trkpt lat="42.96936" lon="1.9497">
        <ele>397.87744232</ele>
        <time>2016-08-23T08:45:13Z</time>
      </trkpt>
      <trkpt lat="42.96929" lon="1.94994">
        <ele>394.87717276</ele>
        <time>2016-08-23T08:45:18Z</time>
      </trkpt>
      <trkpt lat="42.96924" lon="1.95025">
        <ele>393.87695924</ele>
        <time>2016-08-23T08:45:23Z</time>
      </trkpt>
      <trkpt lat="42.96923" lon="1.95053">
        <ele>393.87690284</ele>
        <time>2016-08-23T08:45:27Z</time>
      </trkpt>
      <trkpt lat="42.9692" lon="1.95076">
        <ele>397.8767982</ele>
        <time>2016-08-23T08:45:32Z</time>
      </trkpt>
      <trkpt lat="42.96922" lon="1.95098">
        <ele>394.8768588</ele>
        <time>2016-08-23T08:45:36Z</time>
      </trkpt>
      <trkpt lat="42.96922" lon="1.95111">
        <ele>392.87688364</ele>
        <time>2016-08-23T08:45:40Z</time>
      </trkpt>
      <trkpt lat="42.9692" lon="1.95126">
        <ele>394.87680092</ele>
        <time>2016-08-23T08:45:44Z</time>
      </trkpt>
      <trkpt lat="42.96919" lon="1.95142">
        <ele>396.87677332</ele>
        <time>2016-08-23T08:45:48Z</time>
      </trkpt>
      <trkpt lat="42.96918" lon="1.95162">
        <ele>396.87671516</ele>
        <time>2016-08-23T08:45:53Z</time>
      </trkpt>
      <trkpt lat="42.9692" lon="1.95191">
        <ele>396.8767956</ele>
        <time>2016-08-23T08:45:58Z</time>
      </trkpt>
      <trkpt lat="42.96919" lon="1.95211">
        <ele>396.87677576</ele>
        <time>2016-08-23T08:46:02Z</time>
      </trkpt>
      <trkpt lat="42.96912" lon="1.95233">
        <ele>397.87647232</ele>
        <time>2016-08-23T08:46:06Z</time>
      </trkpt>
      <trkpt lat="42.9691" lon="1.95252">
        <ele>397.87639448</ele>
        <time>2016-08-23T08:46:10Z</time>
      </trkpt>
      <trkpt lat="42.96908" lon="1.95274">
        <ele>397.87633732</ele>
        <time>2016-08-23T08:46:14Z</time>
      </trkpt>
      <trkpt lat="42.96908" lon="1.95304">
        <ele>394.87630664</ele>
        <time>2016-08-23T08:46:18Z</time>
      </trkpt>
      <trkpt lat="42.96909" lon="1.95327">
        <ele>395.87636216</ele>
        <time>2016-08-23T08:46:23Z</time>
      </trkpt>
      <trkpt lat="42.96917" lon="1.95325">
        <ele>400.8766812</ele>
        <time>2016-08-23T08:46:27Z</time>
      </trkpt>
      <trkpt lat="42.9693" lon="1.95325">
        <ele>398.87720676</ele>
        <time>2016-08-23T08:46:32Z</time>
      </trkpt>
      <trkpt lat="42.96927" lon="1.95349">
        <ele>402.87706244</ele>
        <time>2016-08-23T08:46:37Z</time>
      </trkpt>
      <trkpt lat="42.96922" lon="1.95379">
        <ele>403.87689788</ele>
        <time>2016-08-23T08:46:41Z</time>
      </trkpt>
      <trkpt lat="42.96917" lon="1.954">
        <ele>404.87666412</ele>
        <time>2016-08-23T08:46:45Z</time>
      </trkpt>
      <trkpt lat="42.96908" lon="1.95427">
        <ele>404.87630624</ele>
        <time>2016-08-23T08:46:49Z</time>
      </trkpt>
      <trkpt lat="42.96901" lon="1.95459">
        <ele>406.87602144</ele>
        <time>2016-08-23T08:46:53Z</time>
      </trkpt>
      <trkpt lat="42.96901" lon="1.95491">
        <ele>407.87603964</ele>
        <time>2016-08-23T08:46:58Z</time>
      </trkpt>
      <trkpt lat="42.96918" lon="1.95513">
        <ele>405.87670776</ele>
        <time>2016-08-23T08:47:02Z</time>
      </trkpt>
      <trkpt lat="42.96927" lon="1.95537">
        <ele>410.87706124</ele>
        <time>2016-08-23T08:47:06Z</time>
      </trkpt>
      <trkpt lat="42.96926" lon="1.9555">
        <ele>408.87705344</ele>
        <time>2016-08-23T08:47:08Z</time>
      </trkpt>
      <trkpt lat="42.9701" lon="1.95502">
        <ele>423.88039368</ele>
        <time>2016-08-23T08:47:23Z</time>
      </trkpt>
      <trkpt lat="42.97026" lon="1.95451">
        <ele>409.88104756</ele>
        <time>2016-08-23T08:47:28Z</time>
      </trkpt>
      <trkpt lat="42.97038" lon="1.95427">
        <ele>409.88152624</ele>
        <time>2016-08-23T08:47:33Z</time>
      </trkpt>
      <trkpt lat="42.97053" lon="1.95422">
        <ele>408.88210636</ele>
        <time>2016-08-23T08:47:37Z</time>
      </trkpt>
      <trkpt lat="42.97059" lon="1.95437">
        <ele>401.88237524</ele>
        <time>2016-08-23T08:47:41Z</time>
      </trkpt>
      <trkpt lat="42.97061" lon="1.95457">
        <ele>400.88243696</ele>
        <time>2016-08-23T08:47:45Z</time>
      </trkpt>
      <trkpt lat="42.97063" lon="1.95479">
        <ele>400.88253776</ele>
        <time>2016-08-23T08:47:49Z</time>
      </trkpt>
      <trkpt lat="42.97069" lon="1.95503">
        <ele>397.88274432</ele>
        <time>2016-08-23T08:47:54Z</time>
      </trkpt>
      <trkpt lat="42.97076" lon="1.95527">
        <ele>399.88303356</ele>
        <time>2016-08-23T08:47:58Z</time>
      </trkpt>
      <trkpt lat="42.97085" lon="1.95547">
        <ele>400.88340448</ele>
        <time>2016-08-23T08:48:03Z</time>
      </trkpt>
      <trkpt lat="42.97087" lon="1.95562">
        <ele>400.88349396</ele>
        <time>2016-08-23T08:48:07Z</time>
      </trkpt>
      <trkpt lat="42.97093" lon="1.95575">
        <ele>401.88369912</ele>
        <time>2016-08-23T08:48:11Z</time>
      </trkpt>
      <trkpt lat="42.97085" lon="1.9558">
        <ele>404.88340248</ele>
        <time>2016-08-23T08:48:21Z</time>
      </trkpt>
      <trkpt lat="42.97076" lon="1.95589">
        <ele>406.8830296</ele>
        <time>2016-08-23T08:48:26Z</time>
      </trkpt>
      <trkpt lat="42.97062" lon="1.95594">
        <ele>408.88248908</ele>
        <time>2016-08-23T08:48:30Z</time>
      </trkpt>
      <trkpt lat="42.97056" lon="1.95594">
        <ele>411.88223316</ele>
        <time>2016-08-23T08:48:36Z</time>
      </trkpt>
      <trkpt lat="42.97045" lon="1.95594">
        <ele>411.88178304</ele>
        <time>2016-08-23T08:48:41Z</time>
      </trkpt>
      <trkpt lat="42.97042" lon="1.95605">
        <ele>411.8816902</ele>
        <time>2016-08-23T08:48:46Z</time>
      </trkpt>
      <trkpt lat="42.97033" lon="1.95607">
        <ele>413.88132056</ele>
        <time>2016-08-23T08:48:50Z</time>
      </trkpt>
      <trkpt lat="42.9702" lon="1.95614">
        <ele>413.88078988</ele>
        <time>2016-08-23T08:48:54Z</time>
      </trkpt>
      <trkpt lat="42.97003" lon="1.95623">
        <ele>412.88011252</ele>
        <time>2016-08-23T08:48:58Z</time>
      </trkpt>
      <trkpt lat="42.9699" lon="1.95637">
        <ele>412.87957804</ele>
        <time>2016-08-23T08:49:03Z</time>
      </trkpt>
      <trkpt lat="42.9697" lon="1.95643">
        <ele>412.87880232</ele>
        <time>2016-08-23T08:49:08Z</time>
      </trkpt>
      <trkpt lat="42.96944" lon="1.95662">
        <ele>412.87776604</ele>
        <time>2016-08-23T08:49:12Z</time>
      </trkpt>
      <trkpt lat="42.96924" lon="1.95672">
        <ele>412.87697376</ele>
        <time>2016-08-23T08:49:17Z</time>
      </trkpt>
      <trkpt lat="42.96907" lon="1.95681">
        <ele>408.8762904</ele>
        <time>2016-08-23T08:49:21Z</time>
      </trkpt>
      <trkpt lat="42.96894" lon="1.95687">
        <ele>408.87577508</ele>
        <time>2016-08-23T08:49:25Z</time>
      </trkpt>
      <trkpt lat="42.96881" lon="1.95695">
        <ele>408.87525744</ele>
        <time>2016-08-23T08:49:29Z</time>
      </trkpt>
      <trkpt lat="42.96873" lon="1.9571">
        <ele>409.87492624</ele>
        <time>2016-08-23T08:49:34Z</time>
      </trkpt>
      <trkpt lat="42.96872" lon="1.95722">
        <ele>409.87486552</ele>
        <time>2016-08-23T08:49:38Z</time>
      </trkpt>
      <trkpt lat="42.96861" lon="1.95737">
        <ele>409.874419</ele>
        <time>2016-08-23T08:49:43Z</time>
      </trkpt>
      <trkpt lat="42.96843" lon="1.95752">
        <ele>402.87373032</ele>
        <time>2016-08-23T08:49:47Z</time>
      </trkpt>
      <trkpt lat="42.9684" lon="1.95775">
        <ele>402.87358868</ele>
        <time>2016-08-23T08:49:51Z</time>
      </trkpt>
      <trkpt lat="42.96837" lon="1.95804">
        <ele>403.87348628</ele>
        <time>2016-08-23T08:49:56Z</time>
      </trkpt>
      <trkpt lat="42.96823" lon="1.95806">
        <ele>406.8729084</ele>
        <time>2016-08-23T08:50:00Z</time>
      </trkpt>
      <trkpt lat="42.96813" lon="1.95811">
        <ele>405.872506</ele>
        <time>2016-08-23T08:50:04Z</time>
      </trkpt>
      <trkpt lat="42.96799" lon="1.95816">
        <ele>405.87197348</ele>
        <time>2016-08-23T08:50:08Z</time>
      </trkpt>
      <trkpt lat="42.96792" lon="1.95816">
        <ele>405.87167412</ele>
        <time>2016-08-23T08:50:11Z</time>
      </trkpt>
      <trkpt lat="42.96782" lon="1.95828">
        <ele>406.87129404</ele>
        <time>2016-08-23T08:50:16Z</time>
      </trkpt>
      <trkpt lat="42.96774" lon="1.95835">
        <ele>407.8709742</ele>
        <time>2016-08-23T08:50:20Z</time>
      </trkpt>
      <trkpt lat="42.96768" lon="1.95851">
        <ele>411.87070088</ele>
        <time>2016-08-23T08:50:25Z</time>
      </trkpt>
      <trkpt lat="42.96772" lon="1.95863">
        <ele>409.8708638</ele>
        <time>2016-08-23T08:50:30Z</time>
      </trkpt>
      <trkpt lat="42.96783" lon="1.95876">
        <ele>410.87131432</ele>
        <time>2016-08-23T08:50:34Z</time>
      </trkpt>
      <trkpt lat="42.96799" lon="1.95893">
        <ele>409.8719628</ele>
        <time>2016-08-23T08:50:38Z</time>
      </trkpt>
      <trkpt lat="42.9682" lon="1.95916">
        <ele>409.87280936</ele>
        <time>2016-08-23T08:50:43Z</time>
      </trkpt>
      <trkpt lat="42.96856" lon="1.95962">
        <ele>407.87424164</ele>
        <time>2016-08-23T08:50:48Z</time>
      </trkpt>
      <trkpt lat="42.96876" lon="1.95995">
        <ele>405.87502988</ele>
        <time>2016-08-23T08:50:53Z</time>
      </trkpt>
      <trkpt lat="42.96885" lon="1.96019">
        <ele>407.8753944</ele>
        <time>2016-08-23T08:50:57Z</time>
      </trkpt>
      <trkpt lat="42.96897" lon="1.9604">
        <ele>405.87586984</ele>
        <time>2016-08-23T08:51:01Z</time>
      </trkpt>
      <trkpt lat="42.96903" lon="1.96059">
        <ele>407.87611896</ele>
        <time>2016-08-23T08:51:05Z</time>
      </trkpt>
      <trkpt lat="42.96912" lon="1.96088">
        <ele>407.87649124</ele>
        <time>2016-08-23T08:51:10Z</time>
      </trkpt>
      <trkpt lat="42.96925" lon="1.96106">
        <ele>404.87698392</ele>
        <time>2016-08-23T08:51:14Z</time>
      </trkpt>
      <trkpt lat="42.96935" lon="1.96116">
        <ele>407.87739908</ele>
        <time>2016-08-23T08:51:18Z</time>
      </trkpt>
      <trkpt lat="42.96948" lon="1.96135">
        <ele>405.87793368</ele>
        <time>2016-08-23T08:51:22Z</time>
      </trkpt>
      <trkpt lat="42.96967" lon="1.96155">
        <ele>407.8786796</ele>
        <time>2016-08-23T08:51:26Z</time>
      </trkpt>
      <trkpt lat="42.96971" lon="1.9619">
        <ele>407.87884404</ele>
        <time>2016-08-23T08:51:30Z</time>
      </trkpt>
      <trkpt lat="42.96975" lon="1.96222">
        <ele>406.878995</ele>
        <time>2016-08-23T08:51:34Z</time>
      </trkpt>
      <trkpt lat="42.96978" lon="1.96254">
        <ele>401.87911472</ele>
        <time>2016-08-23T08:51:38Z</time>
      </trkpt>
      <trkpt lat="42.9698" lon="1.96288">
        <ele>399.879187</ele>
        <time>2016-08-23T08:51:42Z</time>
      </trkpt>
      <trkpt lat="42.96984" lon="1.96317">
        <ele>397.87937268</ele>
        <time>2016-08-23T08:51:46Z</time>
      </trkpt>
      <trkpt lat="42.96982" lon="1.96338">
        <ele>398.8792846</ele>
        <time>2016-08-23T08:51:51Z</time>
      </trkpt>
      <trkpt lat="42.96976" lon="1.96344">
        <ele>398.87904648</ele>
        <time>2016-08-23T08:51:57Z</time>
      </trkpt>
      <trkpt lat="42.96972" lon="1.96341">
        <ele>396.8788824</ele>
        <time>2016-08-23T08:52:28Z</time>
      </trkpt>
      <trkpt lat="42.96982" lon="1.96325">
        <ele>397.87928612</ele>
        <time>2016-08-23T08:52:32Z</time>
      </trkpt>
      <trkpt lat="42.96972" lon="1.96341">
        <ele>396.8788828</ele>
        <time>2016-08-23T08:52:43Z</time>
      </trkpt>
      <trkpt lat="42.96975" lon="1.96351">
        <ele>396.87898944</ele>
        <time>2016-08-23T08:53:10Z</time>
      </trkpt>
      <trkpt lat="42.96969" lon="1.96362">
        <ele>396.8787594</ele>
        <time>2016-08-23T08:53:14Z</time>
      </trkpt>
      <trkpt lat="42.96958" lon="1.96381">
        <ele>387.8783322</ele>
        <time>2016-08-23T08:53:19Z</time>
      </trkpt>
      <trkpt lat="42.96948" lon="1.96387">
        <ele>389.8779122</ele>
        <time>2016-08-23T08:53:23Z</time>
      </trkpt>
      <trkpt lat="42.96935" lon="1.96404">
        <ele>396.87741032</ele>
        <time>2016-08-23T08:53:28Z</time>
      </trkpt>
      <trkpt lat="42.96925" lon="1.9643">
        <ele>399.87700004</ele>
        <time>2016-08-23T08:53:33Z</time>
      </trkpt>
      <trkpt lat="42.96922" lon="1.96459">
        <ele>402.87686612</ele>
        <time>2016-08-23T08:53:38Z</time>
      </trkpt>
      <trkpt lat="42.96916" lon="1.96478">
        <ele>405.87662688</ele>
        <time>2016-08-23T08:53:42Z</time>
      </trkpt>
      <trkpt lat="42.96914" lon="1.96494">
        <ele>406.8765524</ele>
        <time>2016-08-23T08:53:46Z</time>
      </trkpt>
      <trkpt lat="42.96909" lon="1.9651">
        <ele>407.8763654</ele>
        <time>2016-08-23T08:53:50Z</time>
      </trkpt>
      <trkpt lat="42.96903" lon="1.96533">
        <ele>410.87611956</ele>
        <time>2016-08-23T08:53:54Z</time>
      </trkpt>
      <trkpt lat="42.96904" lon="1.96571">
        <ele>409.87614676</ele>
        <time>2016-08-23T08:53:59Z</time>
      </trkpt>
      <trkpt lat="42.969" lon="1.9659">
        <ele>409.87601484</ele>
        <time>2016-08-23T08:54:04Z</time>
      </trkpt>
      <trkpt lat="42.96902" lon="1.96599">
        <ele>401.87607856</ele>
        <time>2016-08-23T08:54:08Z</time>
      </trkpt>
      <trkpt lat="42.96899" lon="1.96611">
        <ele>394.87596928</ele>
        <time>2016-08-23T08:54:13Z</time>
      </trkpt>
      <trkpt lat="42.96898" lon="1.96617">
        <ele>396.87592824</ele>
        <time>2016-08-23T08:58:21Z</time>
      </trkpt>
      <trkpt lat="42.96895" lon="1.96623">
        <ele>395.87578416</ele>
        <time>2016-08-23T09:06:18Z</time>
      </trkpt>
      <trkpt lat="42.96879" lon="1.96643">
        <ele>392.87514704</ele>
        <time>2016-08-23T09:06:22Z</time>
      </trkpt>
      <trkpt lat="42.9687" lon="1.96664">
        <ele>391.87480504</ele>
        <time>2016-08-23T09:06:26Z</time>
      </trkpt>
      <trkpt lat="42.96864" lon="1.96703">
        <ele>399.87456808</ele>
        <time>2016-08-23T09:06:31Z</time>
      </trkpt>
      <trkpt lat="42.96867" lon="1.96728">
        <ele>399.8746862</ele>
        <time>2016-08-23T09:06:35Z</time>
      </trkpt>
      <trkpt lat="42.9687" lon="1.96746">
        <ele>400.87480088</ele>
        <time>2016-08-23T09:06:39Z</time>
      </trkpt>
      <trkpt lat="42.96874" lon="1.96765">
        <ele>400.87497104</ele>
        <time>2016-08-23T09:06:43Z</time>
      </trkpt>
      <trkpt lat="42.96882" lon="1.96782">
        <ele>400.8752588</ele>
        <time>2016-08-23T09:06:47Z</time>
      </trkpt>
      <trkpt lat="42.96888" lon="1.96798">
        <ele>397.87551196</ele>
        <time>2016-08-23T09:06:51Z</time>
      </trkpt>
      <trkpt lat="42.96894" lon="1.96827">
        <ele>402.87574328</ele>
        <time>2016-08-23T09:06:56Z</time>
      </trkpt>
      <trkpt lat="42.96905" lon="1.96852">
        <ele>401.87619404</ele>
        <time>2016-08-23T09:07:00Z</time>
      </trkpt>
      <trkpt lat="42.96908" lon="1.96862">
        <ele>404.8763286</ele>
        <time>2016-08-23T09:07:03Z</time>
      </trkpt>
      <trkpt lat="42.96913" lon="1.96897">
        <ele>411.87652348</ele>
        <time>2016-08-23T09:07:13Z</time>
      </trkpt>
      <trkpt lat="42.96929" lon="1.96914">
        <ele>411.87716616</ele>
        <time>2016-08-23T09:07:17Z</time>
      </trkpt>
      <trkpt lat="42.96941" lon="1.96929">
        <ele>417.87761984</ele>
        <time>2016-08-23T09:07:22Z</time>
      </trkpt>
      <trkpt lat="42.96953" lon="1.96948">
        <ele>416.87809948</ele>
        <time>2016-08-23T09:07:27Z</time>
      </trkpt>
      <trkpt lat="42.96958" lon="1.96968">
        <ele>418.878317</ele>
        <time>2016-08-23T09:07:31Z</time>
      </trkpt>
      <trkpt lat="42.96967" lon="1.96991">
        <ele>417.87868132</ele>
        <time>2016-08-23T09:07:35Z</time>
      </trkpt>
      <trkpt lat="42.96978" lon="1.97018">
        <ele>415.87910408</ele>
        <time>2016-08-23T09:07:40Z</time>
      </trkpt>
      <trkpt lat="42.96987" lon="1.97037">
        <ele>415.87946776</ele>
        <time>2016-08-23T09:07:44Z</time>
      </trkpt>
      <trkpt lat="42.96995" lon="1.97054">
        <ele>416.87980708</ele>
        <time>2016-08-23T09:07:48Z</time>
      </trkpt>
      <trkpt lat="42.97004" lon="1.9707">
        <ele>417.88013848</ele>
        <time>2016-08-23T09:07:52Z</time>
      </trkpt>
      <trkpt lat="42.97015" lon="1.97074">
        <ele>418.88058952</ele>
        <time>2016-08-23T09:07:57Z</time>
      </trkpt>
      <trkpt lat="42.97027" lon="1.97078">
        <ele>418.8810752</ele>
        <time>2016-08-23T09:08:01Z</time>
      </trkpt>
      <trkpt lat="42.97038" lon="1.97073">
        <ele>417.88153776</ele>
        <time>2016-08-23T09:08:05Z</time>
      </trkpt>
      <trkpt lat="42.97048" lon="1.97075">
        <ele>415.8819044</ele>
        <time>2016-08-23T09:08:10Z</time>
      </trkpt>
      <trkpt lat="42.9705" lon="1.97073">
        <ele>416.88199188</ele>
        <time>2016-08-23T09:08:15Z</time>
      </trkpt>
      <trkpt lat="42.9707" lon="1.97084">
        <ele>416.88278088</ele>
        <time>2016-08-23T09:08:19Z</time>
      </trkpt>
      <trkpt lat="42.97082" lon="1.97097">
        <ele>414.88327964</ele>
        <time>2016-08-23T09:08:23Z</time>
      </trkpt>
      <trkpt lat="42.97095" lon="1.97093">
        <ele>418.883789</ele>
        <time>2016-08-23T09:08:28Z</time>
      </trkpt>
      <trkpt lat="42.9711" lon="1.97098">
        <ele>419.88438448</ele>
        <time>2016-08-23T09:08:32Z</time>
      </trkpt>
      <trkpt lat="42.97114" lon="1.97116">
        <ele>417.88457776</ele>
        <time>2016-08-23T09:08:36Z</time>
      </trkpt>
      <trkpt lat="42.97116" lon="1.9713">
        <ele>418.88463636</ele>
        <time>2016-08-23T09:08:41Z</time>
      </trkpt>
      <trkpt lat="42.97114" lon="1.97143">
        <ele>418.88455072</ele>
        <time>2016-08-23T09:08:45Z</time>
      </trkpt>
      <trkpt lat="42.97111" lon="1.97155">
        <ele>415.88442152</ele>
        <time>2016-08-23T09:08:49Z</time>
      </trkpt>
      <trkpt lat="42.97105" lon="1.9718">
        <ele>413.88419952</ele>
        <time>2016-08-23T09:08:54Z</time>
      </trkpt>
      <trkpt lat="42.97101" lon="1.97217">
        <ele>409.88403464</ele>
        <time>2016-08-23T09:08:58Z</time>
      </trkpt>
      <trkpt lat="42.97099" lon="1.97236">
        <ele>408.88396856</ele>
        <time>2016-08-23T09:09:02Z</time>
      </trkpt>
      <trkpt lat="42.97089" lon="1.97266">
        <ele>410.88355584</ele>
        <time>2016-08-23T09:09:07Z</time>
      </trkpt>
      <trkpt lat="42.97078" lon="1.97293">
        <ele>404.8830984</ele>
        <time>2016-08-23T09:09:11Z</time>
      </trkpt>
      <trkpt lat="42.97067" lon="1.97329">
        <ele>400.88268348</ele>
        <time>2016-08-23T09:09:16Z</time>
      </trkpt>
      <trkpt lat="42.97057" lon="1.97354">
        <ele>398.88227368</ele>
        <time>2016-08-23T09:09:20Z</time>
      </trkpt>
      <trkpt lat="42.97047" lon="1.97382">
        <ele>396.88187684</ele>
        <time>2016-08-23T09:09:24Z</time>
      </trkpt>
      <trkpt lat="42.97042" lon="1.97411">
        <ele>392.88166152</ele>
        <time>2016-08-23T09:09:29Z</time>
      </trkpt>
      <trkpt lat="42.97061" lon="1.97438">
        <ele>392.88244752</ele>
        <time>2016-08-23T09:09:34Z</time>
      </trkpt>
      <trkpt lat="42.97074" lon="1.97459">
        <ele>393.88297648</ele>
        <time>2016-08-23T09:09:38Z</time>
      </trkpt>
      <trkpt lat="42.97087" lon="1.9748">
        <ele>396.88346044</ele>
        <time>2016-08-23T09:09:42Z</time>
      </trkpt>
      <trkpt lat="42.97101" lon="1.97502">
        <ele>397.88405676</ele>
        <time>2016-08-23T09:09:46Z</time>
      </trkpt>
      <trkpt lat="42.97119" lon="1.97524">
        <ele>400.88475864</ele>
        <time>2016-08-23T09:09:51Z</time>
      </trkpt>
      <trkpt lat="42.9713" lon="1.97531">
        <ele>400.8851806</ele>
        <time>2016-08-23T09:09:55Z</time>
      </trkpt>
      <trkpt lat="42.97137" lon="1.97516">
        <ele>401.88546152</ele>
        <time>2016-08-23T09:09:59Z</time>
      </trkpt>
      <trkpt lat="42.97147" lon="1.97498">
        <ele>399.88589292</ele>
        <time>2016-08-23T09:10:03Z</time>
      </trkpt>
      <trkpt lat="42.97166" lon="1.97502">
        <ele>397.88662752</ele>
        <time>2016-08-23T09:10:08Z</time>
      </trkpt>
      <trkpt lat="42.97193" lon="1.97505">
        <ele>396.88772492</ele>
        <time>2016-08-23T09:10:13Z</time>
      </trkpt>
      <trkpt lat="42.97218" lon="1.97511">
        <ele>398.8887158</ele>
        <time>2016-08-23T09:10:18Z</time>
      </trkpt>
      <trkpt lat="42.97228" lon="1.97501">
        <ele>398.88911424</ele>
        <time>2016-08-23T09:10:22Z</time>
      </trkpt>
      <trkpt lat="42.97242" lon="1.9748">
        <ele>401.88969536</ele>
        <time>2016-08-23T09:10:27Z</time>
      </trkpt>
      <trkpt lat="42.97253" lon="1.97463">
        <ele>401.89011088</ele>
        <time>2016-08-23T09:10:31Z</time>
      </trkpt>
      <trkpt lat="42.97263" lon="1.97441">
        <ele>399.89050644</ele>
        <time>2016-08-23T09:10:36Z</time>
      </trkpt>
      <trkpt lat="42.97273" lon="1.97423">
        <ele>399.89092908</ele>
        <time>2016-08-23T09:10:40Z</time>
      </trkpt>
      <trkpt lat="42.97283" lon="1.97401">
        <ele>397.89129952</ele>
        <time>2016-08-23T09:10:44Z</time>
      </trkpt>
      <trkpt lat="42.97301" lon="1.97375">
        <ele>393.8920516</ele>
        <time>2016-08-23T09:10:48Z</time>
      </trkpt>
      <trkpt lat="42.97306" lon="1.97358">
        <ele>395.89225068</ele>
        <time>2016-08-23T09:10:52Z</time>
      </trkpt>
      <trkpt lat="42.97315" lon="1.97331">
        <ele>395.89261592</ele>
        <time>2016-08-23T09:10:57Z</time>
      </trkpt>
      <trkpt lat="42.97324" lon="1.97314">
        <ele>396.89297584</ele>
        <time>2016-08-23T09:11:01Z</time>
      </trkpt>
      <trkpt lat="42.97334" lon="1.97299">
        <ele>396.89334148</ele>
        <time>2016-08-23T09:11:05Z</time>
      </trkpt>
      <trkpt lat="42.97342" lon="1.97275">
        <ele>395.89367492</ele>
        <time>2016-08-23T09:11:10Z</time>
      </trkpt>
      <trkpt lat="42.9735" lon="1.97257">
        <ele>394.89399968</ele>
        <time>2016-08-23T09:11:15Z</time>
      </trkpt>
      <trkpt lat="42.97354" lon="1.97243">
        <ele>395.89416036</ele>
        <time>2016-08-23T09:11:19Z</time>
      </trkpt>
      <trkpt lat="42.97371" lon="1.97224">
        <ele>393.89484148</ele>
        <time>2016-08-23T09:11:24Z</time>
      </trkpt>
      <trkpt lat="42.9738" lon="1.97208">
        <ele>395.89520568</ele>
        <time>2016-08-23T09:11:29Z</time>
      </trkpt>
      <trkpt lat="42.97393" lon="1.97182">
        <ele>395.89573164</ele>
        <time>2016-08-23T09:11:34Z</time>
      </trkpt>
      <trkpt lat="42.97406" lon="1.97161">
        <ele>398.89625344</ele>
        <time>2016-08-23T09:11:38Z</time>
      </trkpt>
      <trkpt lat="42.9742" lon="1.9713">
        <ele>396.89680564</ele>
        <time>2016-08-23T09:11:43Z</time>
      </trkpt>
      <trkpt lat="42.97427" lon="1.97108">
        <ele>398.89705868</ele>
        <time>2016-08-23T09:11:47Z</time>
      </trkpt>
      <trkpt lat="42.97441" lon="1.9708">
        <ele>397.89762536</ele>
        <time>2016-08-23T09:11:51Z</time>
      </trkpt>
      <trkpt lat="42.97454" lon="1.97044">
        <ele>396.89814588</ele>
        <time>2016-08-23T09:11:56Z</time>
      </trkpt>
      <trkpt lat="42.97472" lon="1.9704">
        <ele>399.89886852</ele>
        <time>2016-08-23T09:12:00Z</time>
      </trkpt>
      <trkpt lat="42.9749" lon="1.97051">
        <ele>400.89961316</ele>
        <time>2016-08-23T09:12:04Z</time>
      </trkpt>
      <trkpt lat="42.97505" lon="1.97062">
        <ele>397.90020268</ele>
        <time>2016-08-23T09:12:08Z</time>
      </trkpt>
      <trkpt lat="42.9753" lon="1.97079">
        <ele>399.90118944</ele>
        <time>2016-08-23T09:12:13Z</time>
      </trkpt>
      <trkpt lat="42.97549" lon="1.97091">
        <ele>399.90195112</ele>
        <time>2016-08-23T09:12:18Z</time>
      </trkpt>
      <trkpt lat="42.97567" lon="1.97103">
        <ele>399.90268732</ele>
        <time>2016-08-23T09:12:22Z</time>
      </trkpt>
      <trkpt lat="42.97581" lon="1.97109">
        <ele>397.90325656</ele>
        <time>2016-08-23T09:12:27Z</time>
      </trkpt>
      <trkpt lat="42.97596" lon="1.97095">
        <ele>394.90383384</ele>
        <time>2016-08-23T09:12:31Z</time>
      </trkpt>
      <trkpt lat="42.9762" lon="1.97091">
        <ele>396.90479588</ele>
        <time>2016-08-23T09:12:36Z</time>
      </trkpt>
      <trkpt lat="42.97646" lon="1.97084">
        <ele>396.90583948</ele>
        <time>2016-08-23T09:12:40Z</time>
      </trkpt>
      <trkpt lat="42.97654" lon="1.97098">
        <ele>398.90614076</ele>
        <time>2016-08-23T09:12:45Z</time>
      </trkpt>
      <trkpt lat="42.97659" lon="1.97106">
        <ele>399.9063516</ele>
        <time>2016-08-23T09:12:50Z</time>
      </trkpt>
      <trkpt lat="42.97659" lon="1.97121">
        <ele>399.90635124</ele>
        <time>2016-08-23T09:12:54Z</time>
      </trkpt>
      <trkpt lat="42.9766" lon="1.97132">
        <ele>399.90639924</ele>
        <time>2016-08-23T09:12:58Z</time>
      </trkpt>
      <trkpt lat="42.9768" lon="1.97133">
        <ele>397.90719188</ele>
        <time>2016-08-23T09:13:03Z</time>
      </trkpt>
      <trkpt lat="42.97703" lon="1.9712">
        <ele>399.90813588</ele>
        <time>2016-08-23T09:13:08Z</time>
      </trkpt>
      <trkpt lat="42.97715" lon="1.97123">
        <ele>401.90858036</ele>
        <time>2016-08-23T09:13:12Z</time>
      </trkpt>
      <trkpt lat="42.97729" lon="1.97127">
        <ele>403.90916276</ele>
        <time>2016-08-23T09:13:16Z</time>
      </trkpt>
      <trkpt lat="42.97748" lon="1.97129">
        <ele>399.90990404</ele>
        <time>2016-08-23T09:13:20Z</time>
      </trkpt>
      <trkpt lat="42.97764" lon="1.97129">
        <ele>400.91057024</ele>
        <time>2016-08-23T09:13:24Z</time>
      </trkpt>
      <trkpt lat="42.97781" lon="1.97131">
        <ele>403.9112292</ele>
        <time>2016-08-23T09:13:29Z</time>
      </trkpt>
      <trkpt lat="42.97802" lon="1.97134">
        <ele>404.91208768</ele>
        <time>2016-08-23T09:13:34Z</time>
      </trkpt>
      <trkpt lat="42.97823" lon="1.97138">
        <ele>403.91290432</ele>
        <time>2016-08-23T09:13:38Z</time>
      </trkpt>
      <trkpt lat="42.97837" lon="1.97136">
        <ele>405.91349088</ele>
        <time>2016-08-23T09:13:42Z</time>
      </trkpt>
      <trkpt lat="42.97858" lon="1.97116">
        <ele>404.91431924</ele>
        <time>2016-08-23T09:13:47Z</time>
      </trkpt>
      <trkpt lat="42.97872" lon="1.97086">
        <ele>404.9148846</ele>
        <time>2016-08-23T09:13:52Z</time>
      </trkpt>
      <trkpt lat="42.97876" lon="1.97047">
        <ele>402.91504628</ele>
        <time>2016-08-23T09:13:57Z</time>
      </trkpt>
      <trkpt lat="42.97876" lon="1.9701">
        <ele>400.91505444</ele>
        <time>2016-08-23T09:14:02Z</time>
      </trkpt>
      <trkpt lat="42.97881" lon="1.96985">
        <ele>399.91525332</ele>
        <time>2016-08-23T09:14:06Z</time>
      </trkpt>
      <trkpt lat="42.9789" lon="1.96968">
        <ele>400.91561148</ele>
        <time>2016-08-23T09:14:10Z</time>
      </trkpt>
      <trkpt lat="42.97902" lon="1.96959">
        <ele>402.9160832</ele>
        <time>2016-08-23T09:14:13Z</time>
      </trkpt>
      <trkpt lat="42.97924" lon="1.96946">
        <ele>403.91694272</ele>
        <time>2016-08-23T09:14:18Z</time>
      </trkpt>
      <trkpt lat="42.97947" lon="1.96948">
        <ele>402.91788712</ele>
        <time>2016-08-23T09:14:22Z</time>
      </trkpt>
      <trkpt lat="42.97966" lon="1.96951">
        <ele>403.91861816</ele>
        <time>2016-08-23T09:14:27Z</time>
      </trkpt>
      <trkpt lat="42.97982" lon="1.96952">
        <ele>402.91928524</ele>
        <time>2016-08-23T09:14:32Z</time>
      </trkpt>
      <trkpt lat="42.97993" lon="1.96954">
        <ele>401.91971284</ele>
        <time>2016-08-23T09:14:36Z</time>
      </trkpt>
      <trkpt lat="42.98007" lon="1.96949">
        <ele>402.92026316</ele>
        <time>2016-08-23T09:14:40Z</time>
      </trkpt>
      <trkpt lat="42.98015" lon="1.96947">
        <ele>407.92058376</ele>
        <time>2016-08-23T09:14:45Z</time>
      </trkpt>
      <trkpt lat="42.98024" lon="1.96943">
        <ele>407.92095444</ele>
        <time>2016-08-23T09:14:49Z</time>
      </trkpt>
      <trkpt lat="42.98033" lon="1.96929">
        <ele>407.92133172</ele>
        <time>2016-08-23T09:14:53Z</time>
      </trkpt>
      <trkpt lat="42.98043" lon="1.96918">
        <ele>404.92170032</ele>
        <time>2016-08-23T09:14:56Z</time>
      </trkpt>
      <trkpt lat="42.9805" lon="1.96904">
        <ele>405.92200404</ele>
        <time>2016-08-23T09:15:01Z</time>
      </trkpt>
      <trkpt lat="42.98057" lon="1.96897">
        <ele>407.9222694</ele>
        <time>2016-08-23T09:15:05Z</time>
      </trkpt>
      <trkpt lat="42.98066" lon="1.96884">
        <ele>411.92264416</ele>
        <time>2016-08-23T09:15:10Z</time>
      </trkpt>
      <trkpt lat="42.98072" lon="1.96876">
        <ele>414.9228862</ele>
        <time>2016-08-23T09:15:14Z</time>
      </trkpt>
      <trkpt lat="42.98081" lon="1.9686">
        <ele>414.92324224</ele>
        <time>2016-08-23T09:15:19Z</time>
      </trkpt>
      <trkpt lat="42.98091" lon="1.96849">
        <ele>414.92364496</ele>
        <time>2016-08-23T09:15:24Z</time>
      </trkpt>
      <trkpt lat="42.981" lon="1.96835">
        <ele>416.92400424</ele>
        <time>2016-08-23T09:15:28Z</time>
      </trkpt>
      <trkpt lat="42.98108" lon="1.96827">
        <ele>417.92430804</ele>
        <time>2016-08-23T09:15:32Z</time>
      </trkpt>
      <trkpt lat="42.98121" lon="1.9682">
        <ele>418.92485716</ele>
        <time>2016-08-23T09:15:37Z</time>
      </trkpt>
      <trkpt lat="42.98133" lon="1.96815">
        <ele>416.9253088</ele>
        <time>2016-08-23T09:15:42Z</time>
      </trkpt>
      <trkpt lat="42.98142" lon="1.96815">
        <ele>418.92565904</ele>
        <time>2016-08-23T09:15:47Z</time>
      </trkpt>
      <trkpt lat="42.98153" lon="1.96811">
        <ele>421.92609928</ele>
        <time>2016-08-23T09:15:52Z</time>
      </trkpt>
      <trkpt lat="42.98161" lon="1.96805">
        <ele>421.92643252</ele>
        <time>2016-08-23T09:15:56Z</time>
      </trkpt>
      <trkpt lat="42.98168" lon="1.968">
        <ele>423.9267366</ele>
        <time>2016-08-23T09:16:00Z</time>
      </trkpt>
      <trkpt lat="42.98177" lon="1.96794">
        <ele>421.92707596</ele>
        <time>2016-08-23T09:16:05Z</time>
      </trkpt>
      <trkpt lat="42.98181" lon="1.96793">
        <ele>421.92724984</ele>
        <time>2016-08-23T09:18:54Z</time>
      </trkpt>
      <trkpt lat="42.98212" lon="1.96761">
        <ele>417.9284938</ele>
        <time>2016-08-23T09:18:59Z</time>
      </trkpt>
      <trkpt lat="42.98244" lon="1.96722">
        <ele>412.92976204</ele>
        <time>2016-08-23T09:19:03Z</time>
      </trkpt>
      <trkpt lat="42.98286" lon="1.96666">
        <ele>411.93142304</ele>
        <time>2016-08-23T09:19:08Z</time>
      </trkpt>
      <trkpt lat="42.98326" lon="1.96627">
        <ele>407.9330526</ele>
        <time>2016-08-23T09:19:12Z</time>
      </trkpt>
      <trkpt lat="42.98361" lon="1.96597">
        <ele>408.93443428</ele>
        <time>2016-08-23T09:19:16Z</time>
      </trkpt>
      <trkpt lat="42.98396" lon="1.96561">
        <ele>406.93582756</ele>
        <time>2016-08-23T09:19:21Z</time>
      </trkpt>
      <trkpt lat="42.98415" lon="1.96557">
        <ele>407.9366074</ele>
        <time>2016-08-23T09:19:25Z</time>
      </trkpt>
      <trkpt lat="42.98428" lon="1.96555">
        <ele>410.93712576</ele>
        <time>2016-08-23T09:19:30Z</time>
      </trkpt>
      <trkpt lat="42.98446" lon="1.96552">
        <ele>408.93784864</ele>
        <time>2016-08-23T09:19:34Z</time>
      </trkpt>
      <trkpt lat="42.98471" lon="1.96554">
        <ele>408.93883016</ele>
        <time>2016-08-23T09:19:39Z</time>
      </trkpt>
      <trkpt lat="42.98501" lon="1.96558">
        <ele>406.94005172</ele>
        <time>2016-08-23T09:19:43Z</time>
      </trkpt>
      <trkpt lat="42.98555" lon="1.96558">
        <ele>405.9422144</ele>
        <time>2016-08-23T09:19:48Z</time>
      </trkpt>
      <trkpt lat="42.98592" lon="1.96544">
        <ele>404.94368692</ele>
        <time>2016-08-23T09:19:52Z</time>
      </trkpt>
      <trkpt lat="42.98624" lon="1.96536">
        <ele>402.94494168</ele>
        <time>2016-08-23T09:19:56Z</time>
      </trkpt>
      <trkpt lat="42.98665" lon="1.96525">
        <ele>404.94660072</ele>
        <time>2016-08-23T09:20:01Z</time>
      </trkpt>
      <trkpt lat="42.98681" lon="1.96522">
        <ele>404.94722852</ele>
        <time>2016-08-23T09:20:05Z</time>
      </trkpt>
      <trkpt lat="42.98707" lon="1.96505">
        <ele>398.94829036</ele>
        <time>2016-08-23T09:20:10Z</time>
      </trkpt>
      <trkpt lat="42.98746" lon="1.96499">
        <ele>401.949853</ele>
        <time>2016-08-23T09:20:15Z</time>
      </trkpt>
      <trkpt lat="42.98774" lon="1.96499">
        <ele>397.95093964</ele>
        <time>2016-08-23T09:20:19Z</time>
      </trkpt>
      <trkpt lat="42.98789" lon="1.96505">
        <ele>398.95157312</ele>
        <time>2016-08-23T09:20:23Z</time>
      </trkpt>
      <trkpt lat="42.98796" lon="1.96513">
        <ele>399.95181916</ele>
        <time>2016-08-23T09:20:27Z</time>
      </trkpt>
      <trkpt lat="42.98794" lon="1.96521">
        <ele>405.95176424</ele>
        <time>2016-08-23T09:20:31Z</time>
      </trkpt>
      <trkpt lat="42.98795" lon="1.96532">
        <ele>406.95181452</ele>
        <time>2016-08-23T09:20:36Z</time>
      </trkpt>
      <trkpt lat="42.98797" lon="1.96541">
        <ele>409.9518832</ele>
        <time>2016-08-23T09:20:40Z</time>
      </trkpt>
      <trkpt lat="42.98799" lon="1.96558">
        <ele>407.9519672</ele>
        <time>2016-08-23T09:20:44Z</time>
      </trkpt>
      <trkpt lat="42.988" lon="1.9657">
        <ele>404.95201324</ele>
        <time>2016-08-23T09:20:48Z</time>
      </trkpt>
      <trkpt lat="42.98806" lon="1.96583">
        <ele>403.9522264</ele>
        <time>2016-08-23T09:20:53Z</time>
      </trkpt>
      <trkpt lat="42.98809" lon="1.96592">
        <ele>404.9523746</ele>
        <time>2016-08-23T09:20:57Z</time>
      </trkpt>
      <trkpt lat="42.98818" lon="1.96601">
        <ele>407.95270584</ele>
        <time>2016-08-23T09:21:02Z</time>
      </trkpt>
      <trkpt lat="42.98825" lon="1.96605">
        <ele>409.95298648</ele>
        <time>2016-08-23T09:21:07Z</time>
      </trkpt>
      <trkpt lat="42.98829" lon="1.96612">
        <ele>409.95317456</ele>
        <time>2016-08-23T09:21:11Z</time>
      </trkpt>
      <trkpt lat="42.98837" lon="1.96618">
        <ele>408.95347184</ele>
        <time>2016-08-23T09:21:15Z</time>
      </trkpt>
      <trkpt lat="42.98849" lon="1.9662">
        <ele>409.9539552</ele>
        <time>2016-08-23T09:21:20Z</time>
      </trkpt>
      <trkpt lat="42.98857" lon="1.96623">
        <ele>412.95426056</ele>
        <time>2016-08-23T09:21:25Z</time>
      </trkpt>
      <trkpt lat="42.98871" lon="1.96627">
        <ele>414.95482968</ele>
        <time>2016-08-23T09:21:30Z</time>
      </trkpt>
      <trkpt lat="42.98879" lon="1.9663">
        <ele>418.95515964</ele>
        <time>2016-08-23T09:21:34Z</time>
      </trkpt>
      <trkpt lat="42.98887" lon="1.96634">
        <ele>418.9554862</ele>
        <time>2016-08-23T09:21:41Z</time>
      </trkpt>
      <trkpt lat="42.98899" lon="1.96639">
        <ele>415.95597272</ele>
        <time>2016-08-23T09:21:46Z</time>
      </trkpt>
      <trkpt lat="42.98912" lon="1.96645">
        <ele>416.95646524</ele>
        <time>2016-08-23T09:21:50Z</time>
      </trkpt>
      <trkpt lat="42.9892" lon="1.96647">
        <ele>416.95679024</ele>
        <time>2016-08-23T09:21:56Z</time>
      </trkpt>
      <trkpt lat="42.9893" lon="1.96644">
        <ele>416.95721628</ele>
        <time>2016-08-23T09:22:00Z</time>
      </trkpt>
      <trkpt lat="42.98957" lon="1.96628">
        <ele>414.95827012</ele>
        <time>2016-08-23T09:22:05Z</time>
      </trkpt>
      <trkpt lat="42.98991" lon="1.96605">
        <ele>414.95964012</ele>
        <time>2016-08-23T09:22:09Z</time>
      </trkpt>
      <trkpt lat="42.98999" lon="1.9657">
        <ele>413.95995664</ele>
        <time>2016-08-23T09:22:14Z</time>
      </trkpt>
      <trkpt lat="42.99009" lon="1.96545">
        <ele>408.9603752</ele>
        <time>2016-08-23T09:22:18Z</time>
      </trkpt>
      <trkpt lat="42.99026" lon="1.96537">
        <ele>408.96103008</ele>
        <time>2016-08-23T09:22:22Z</time>
      </trkpt>
      <trkpt lat="42.99033" lon="1.96531">
        <ele>411.96130612</ele>
        <time>2016-08-23T09:22:33Z</time>
      </trkpt>
      <trkpt lat="42.9904" lon="1.96522">
        <ele>410.96161212</ele>
        <time>2016-08-23T09:22:38Z</time>
      </trkpt>
      <trkpt lat="42.99046" lon="1.9651">
        <ele>403.96185556</ele>
        <time>2016-08-23T09:22:42Z</time>
      </trkpt>
      <trkpt lat="42.99052" lon="1.96507">
        <ele>403.96209644</ele>
        <time>2016-08-23T09:22:49Z</time>
      </trkpt>
      <trkpt lat="42.99058" lon="1.96502">
        <ele>398.96231104</ele>
        <time>2016-08-23T09:22:53Z</time>
      </trkpt>
      <trkpt lat="42.99064" lon="1.96499">
        <ele>397.96256008</ele>
        <time>2016-08-23T09:23:01Z</time>
      </trkpt>
      <trkpt lat="42.99087" lon="1.96475">
        <ele>393.96346412</ele>
        <time>2016-08-23T09:23:06Z</time>
      </trkpt>
      <trkpt lat="42.99097" lon="1.96462">
        <ele>396.96386564</ele>
        <time>2016-08-23T09:23:10Z</time>
      </trkpt>
      <trkpt lat="42.99105" lon="1.96444">
        <ele>400.96419968</ele>
        <time>2016-08-23T09:23:15Z</time>
      </trkpt>
      <trkpt lat="42.99113" lon="1.96425">
        <ele>401.96451016</ele>
        <time>2016-08-23T09:23:20Z</time>
      </trkpt>
      <trkpt lat="42.99124" lon="1.96419">
        <ele>399.96495208</ele>
        <time>2016-08-23T09:23:24Z</time>
      </trkpt>
      <trkpt lat="42.99135" lon="1.96415">
        <ele>400.96540256</ele>
        <time>2016-08-23T09:23:28Z</time>
      </trkpt>
      <trkpt lat="42.99145" lon="1.96393">
        <ele>405.96581092</ele>
        <time>2016-08-23T09:23:33Z</time>
      </trkpt>
      <trkpt lat="42.99149" lon="1.9638">
        <ele>409.96595832</ele>
        <time>2016-08-23T09:23:37Z</time>
      </trkpt>
      <trkpt lat="42.99156" lon="1.96358">
        <ele>411.96624524</ele>
        <time>2016-08-23T09:23:42Z</time>
      </trkpt>
      <trkpt lat="42.99157" lon="1.96315">
        <ele>411.96626244</ele>
        <time>2016-08-23T09:23:46Z</time>
      </trkpt>
      <trkpt lat="42.99167" lon="1.96299">
        <ele>413.96668616</ele>
        <time>2016-08-23T09:23:50Z</time>
      </trkpt>
      <trkpt lat="42.99178" lon="1.96263">
        <ele>417.96711444</ele>
        <time>2016-08-23T09:23:55Z</time>
      </trkpt>
      <trkpt lat="42.99172" lon="1.96242">
        <ele>420.9668718</ele>
        <time>2016-08-23T09:24:00Z</time>
      </trkpt>
      <trkpt lat="42.99176" lon="1.96222">
        <ele>422.96704168</ele>
        <time>2016-08-23T09:24:05Z</time>
      </trkpt>
      <trkpt lat="42.99187" lon="1.96211">
        <ele>419.96748396</ele>
        <time>2016-08-23T09:24:10Z</time>
      </trkpt>
      <trkpt lat="42.9919" lon="1.96204">
        <ele>416.96759476</ele>
        <time>2016-08-23T09:24:14Z</time>
      </trkpt>
      <trkpt lat="42.99194" lon="1.96191">
        <ele>416.96776168</ele>
        <time>2016-08-23T09:24:19Z</time>
      </trkpt>
      <trkpt lat="42.99202" lon="1.9617">
        <ele>415.9680912</ele>
        <time>2016-08-23T09:24:24Z</time>
      </trkpt>
      <trkpt lat="42.99208" lon="1.96156">
        <ele>413.96830908</ele>
        <time>2016-08-23T09:24:28Z</time>
      </trkpt>
      <trkpt lat="42.99212" lon="1.96147">
        <ele>415.96846004</ele>
        <time>2016-08-23T09:24:33Z</time>
      </trkpt>
      <trkpt lat="42.99212" lon="1.96133">
        <ele>412.96846916</ele>
        <time>2016-08-23T09:24:37Z</time>
      </trkpt>
      <trkpt lat="42.99221" lon="1.96133">
        <ele>408.96882436</ele>
        <time>2016-08-23T09:24:50Z</time>
      </trkpt>
      <trkpt lat="42.99225" lon="1.96124">
        <ele>409.96901512</ele>
        <time>2016-08-23T09:24:54Z</time>
      </trkpt>
      <trkpt lat="42.9923" lon="1.96114">
        <ele>414.96920676</ele>
        <time>2016-08-23T09:24:59Z</time>
      </trkpt>
      <trkpt lat="42.99235" lon="1.96096">
        <ele>417.9694078</ele>
        <time>2016-08-23T09:25:03Z</time>
      </trkpt>
      <trkpt lat="42.99252" lon="1.96081">
        <ele>416.97005952</ele>
        <time>2016-08-23T09:25:07Z</time>
      </trkpt>
      <trkpt lat="42.99274" lon="1.9605">
        <ele>418.9709534</ele>
        <time>2016-08-23T09:25:11Z</time>
      </trkpt>
      <trkpt lat="42.99305" lon="1.96029">
        <ele>418.97220548</ele>
        <time>2016-08-23T09:25:15Z</time>
      </trkpt>
      <trkpt lat="42.99331" lon="1.96012">
        <ele>414.97323336</ele>
        <time>2016-08-23T09:25:20Z</time>
      </trkpt>
      <trkpt lat="42.9935" lon="1.96012">
        <ele>411.97400704</ele>
        <time>2016-08-23T09:25:24Z</time>
      </trkpt>
      <trkpt lat="42.99356" lon="1.96019">
        <ele>404.9742466</ele>
        <time>2016-08-23T09:25:32Z</time>
      </trkpt>
      <trkpt lat="42.99364" lon="1.96013">
        <ele>405.97454668</ele>
        <time>2016-08-23T09:25:54Z</time>
      </trkpt>
      <trkpt lat="42.99366" lon="1.96001">
        <ele>407.97463116</ele>
        <time>2016-08-23T09:25:59Z</time>
      </trkpt>
      <trkpt lat="42.99369" lon="1.95987">
        <ele>405.974751</ele>
        <time>2016-08-23T09:26:03Z</time>
      </trkpt>
      <trkpt lat="42.99372" lon="1.95965">
        <ele>404.97489428</ele>
        <time>2016-08-23T09:26:07Z</time>
      </trkpt>
      <trkpt lat="42.99377" lon="1.95944">
        <ele>402.97506656</ele>
        <time>2016-08-23T09:26:11Z</time>
      </trkpt>
      <trkpt lat="42.99381" lon="1.95921">
        <ele>403.97525684</ele>
        <time>2016-08-23T09:26:16Z</time>
      </trkpt>
      <trkpt lat="42.99385" lon="1.959">
        <ele>404.97540652</ele>
        <time>2016-08-23T09:26:20Z</time>
      </trkpt>
      <trkpt lat="42.9939" lon="1.9587">
        <ele>403.9756114</ele>
        <time>2016-08-23T09:26:25Z</time>
      </trkpt>
      <trkpt lat="42.99394" lon="1.95848">
        <ele>403.975747</ele>
        <time>2016-08-23T09:26:29Z</time>
      </trkpt>
      <trkpt lat="42.99398" lon="1.95824">
        <ele>401.97593384</ele>
        <time>2016-08-23T09:26:33Z</time>
      </trkpt>
      <trkpt lat="42.99404" lon="1.95798">
        <ele>401.9761754</ele>
        <time>2016-08-23T09:26:38Z</time>
      </trkpt>
      <trkpt lat="42.99408" lon="1.95774">
        <ele>402.97632148</ele>
        <time>2016-08-23T09:26:42Z</time>
      </trkpt>
      <trkpt lat="42.99411" lon="1.95754">
        <ele>401.97642988</ele>
        <time>2016-08-23T09:26:46Z</time>
      </trkpt>
      <trkpt lat="42.99413" lon="1.95731">
        <ele>400.97653136</ele>
        <time>2016-08-23T09:26:50Z</time>
      </trkpt>
      <trkpt lat="42.99416" lon="1.95714">
        <ele>401.97663896</ele>
        <time>2016-08-23T09:26:54Z</time>
      </trkpt>
      <trkpt lat="42.99425" lon="1.95701">
        <ele>399.97698648</ele>
        <time>2016-08-23T09:26:59Z</time>
      </trkpt>
      <trkpt lat="42.99439" lon="1.95701">
        <ele>399.9775536</ele>
        <time>2016-08-23T09:27:04Z</time>
      </trkpt>
      <trkpt lat="42.99463" lon="1.95701">
        <ele>396.97850256</ele>
        <time>2016-08-23T09:27:08Z</time>
      </trkpt>
      <trkpt lat="42.99495" lon="1.95704">
        <ele>395.97979384</ele>
        <time>2016-08-23T09:27:12Z</time>
      </trkpt>
      <trkpt lat="42.99523" lon="1.95711">
        <ele>393.98092088</ele>
        <time>2016-08-23T09:27:16Z</time>
      </trkpt>
      <trkpt lat="42.99564" lon="1.95728">
        <ele>391.9825768</ele>
        <time>2016-08-23T09:27:21Z</time>
      </trkpt>
      <trkpt lat="42.99596" lon="1.95747">
        <ele>390.9838334</ele>
        <time>2016-08-23T09:27:25Z</time>
      </trkpt>
      <trkpt lat="42.9962" lon="1.95768">
        <ele>388.98481344</ele>
        <time>2016-08-23T09:27:29Z</time>
      </trkpt>
      <trkpt lat="42.99655" lon="1.95814">
        <ele>391.98619916</ele>
        <time>2016-08-23T09:27:34Z</time>
      </trkpt>
      <trkpt lat="42.99683" lon="1.95847">
        <ele>391.98733452</ele>
        <time>2016-08-23T09:27:38Z</time>
      </trkpt>
      <trkpt lat="42.99707" lon="1.95888">
        <ele>392.9882738</ele>
        <time>2016-08-23T09:27:42Z</time>
      </trkpt>
      <trkpt lat="42.99725" lon="1.95935">
        <ele>391.98900756</ele>
        <time>2016-08-23T09:27:46Z</time>
      </trkpt>
      <trkpt lat="42.99758" lon="1.95978">
        <ele>391.99030496</ele>
        <time>2016-08-23T09:27:50Z</time>
      </trkpt>
      <trkpt lat="42.99816" lon="1.95999">
        <ele>386.99262388</ele>
        <time>2016-08-23T09:27:55Z</time>
      </trkpt>
      <trkpt lat="42.99861" lon="1.96023">
        <ele>383.99442852</ele>
        <time>2016-08-23T09:27:59Z</time>
      </trkpt>
      <trkpt lat="42.99906" lon="1.96033">
        <ele>378.99623912</ele>
        <time>2016-08-23T09:28:03Z</time>
      </trkpt>
      <trkpt lat="42.99948" lon="1.96053">
        <ele>373.99792676</ele>
        <time>2016-08-23T09:28:08Z</time>
      </trkpt>
      <trkpt lat="42.99977" lon="1.96095">
        <ele>371.99907656</ele>
        <time>2016-08-23T09:28:13Z</time>
      </trkpt>
      <trkpt lat="43.00003" lon="1.96118">
        <ele>374.00010468</ele>
        <time>2016-08-23T09:28:17Z</time>
      </trkpt>
      <trkpt lat="43.00025" lon="1.96139">
        <ele>373.00100828</ele>
        <time>2016-08-23T09:28:21Z</time>
      </trkpt>
      <trkpt lat="43.00053" lon="1.96161">
        <ele>377.00212832</ele>
        <time>2016-08-23T09:28:25Z</time>
      </trkpt>
      <trkpt lat="43.00074" lon="1.96185">
        <ele>377.0029702</ele>
        <time>2016-08-23T09:28:30Z</time>
      </trkpt>
      <trkpt lat="43.00094" lon="1.96198">
        <ele>376.00373932</ele>
        <time>2016-08-23T09:28:34Z</time>
      </trkpt>
      <trkpt lat="43.00114" lon="1.96216">
        <ele>373.00455044</ele>
        <time>2016-08-23T09:28:38Z</time>
      </trkpt>
      <trkpt lat="43.0013" lon="1.96222">
        <ele>373.00520804</ele>
        <time>2016-08-23T09:28:42Z</time>
      </trkpt>
      <trkpt lat="43.00165" lon="1.96223">
        <ele>372.00659972</ele>
        <time>2016-08-23T09:28:46Z</time>
      </trkpt>
      <trkpt lat="43.00207" lon="1.96206">
        <ele>376.00828764</ele>
        <time>2016-08-23T09:28:51Z</time>
      </trkpt>
      <trkpt lat="43.00224" lon="1.96196">
        <ele>374.00897784</ele>
        <time>2016-08-23T09:28:55Z</time>
      </trkpt>
      <trkpt lat="43.00249" lon="1.96195">
        <ele>374.00994224</ele>
        <time>2016-08-23T09:29:00Z</time>
      </trkpt>
      <trkpt lat="43.0029" lon="1.9618">
        <ele>371.0116056</ele>
        <time>2016-08-23T09:29:05Z</time>
      </trkpt>
      <trkpt lat="43.00301" lon="1.96179">
        <ele>369.01204176</ele>
        <time>2016-08-23T09:29:08Z</time>
      </trkpt>
      <trkpt lat="43.0033" lon="1.96179">
        <ele>372.01320372</ele>
        <time>2016-08-23T09:29:13Z</time>
      </trkpt>
      <trkpt lat="43.00357" lon="1.96186">
        <ele>372.01427384</ele>
        <time>2016-08-23T09:29:17Z</time>
      </trkpt>
      <trkpt lat="43.00371" lon="1.96184">
        <ele>367.0148502</ele>
        <time>2016-08-23T09:29:21Z</time>
      </trkpt>
      <trkpt lat="43.00399" lon="1.96187">
        <ele>363.01596028</ele>
        <time>2016-08-23T09:29:26Z</time>
      </trkpt>
      <trkpt lat="43.00424" lon="1.96191">
        <ele>363.01694604</ele>
        <time>2016-08-23T09:29:30Z</time>
      </trkpt>
      <trkpt lat="43.0045" lon="1.96173">
        <ele>362.01798328</ele>
        <time>2016-08-23T09:29:34Z</time>
      </trkpt>
      <trkpt lat="43.00456" lon="1.96135">
        <ele>365.01823068</ele>
        <time>2016-08-23T09:29:38Z</time>
      </trkpt>
      <trkpt lat="43.00458" lon="1.96112">
        <ele>363.01833304</ele>
        <time>2016-08-23T09:29:42Z</time>
      </trkpt>
      <trkpt lat="43.00455" lon="1.96077">
        <ele>361.01818232</ele>
        <time>2016-08-23T09:29:47Z</time>
      </trkpt>
      <trkpt lat="43.00455" lon="1.96055">
        <ele>360.01820624</ele>
        <time>2016-08-23T09:29:51Z</time>
      </trkpt>
      <trkpt lat="43.00465" lon="1.96043">
        <ele>359.01861132</ele>
        <time>2016-08-23T09:29:56Z</time>
      </trkpt>
      <trkpt lat="43.00473" lon="1.96057">
        <ele>359.01890864</ele>
        <time>2016-08-23T09:30:01Z</time>
      </trkpt>
      <trkpt lat="43.00479" lon="1.96067">
        <ele>359.01917708</ele>
        <time>2016-08-23T09:30:05Z</time>
      </trkpt>
      <trkpt lat="43.00483" lon="1.9609">
        <ele>362.0192986</ele>
        <time>2016-08-23T09:30:10Z</time>
      </trkpt>
      <trkpt lat="43.00493" lon="1.96108">
        <ele>364.019711</ele>
        <time>2016-08-23T09:30:15Z</time>
      </trkpt>
      <trkpt lat="43.00497" lon="1.96132">
        <ele>362.01985948</ele>
        <time>2016-08-23T09:30:20Z</time>
      </trkpt>
      <trkpt lat="43.00511" lon="1.96156">
        <ele>364.02043612</ele>
        <time>2016-08-23T09:30:25Z</time>
      </trkpt>
      <trkpt lat="43.0052" lon="1.96173">
        <ele>363.02080244</ele>
        <time>2016-08-23T09:30:29Z</time>
      </trkpt>
      <trkpt lat="43.00534" lon="1.96189">
        <ele>365.02133832</ele>
        <time>2016-08-23T09:30:33Z</time>
      </trkpt>
      <trkpt lat="43.00538" lon="1.96201">
        <ele>365.02150248</ele>
        <time>2016-08-23T09:30:37Z</time>
      </trkpt>
      <trkpt lat="43.0055" lon="1.9621">
        <ele>367.02197984</ele>
        <time>2016-08-23T09:30:41Z</time>
      </trkpt>
      <trkpt lat="43.00565" lon="1.96217">
        <ele>361.02258388</ele>
        <time>2016-08-23T09:30:45Z</time>
      </trkpt>
      <trkpt lat="43.0057" lon="1.96227">
        <ele>360.02278736</ele>
        <time>2016-08-23T09:30:50Z</time>
      </trkpt>
      <trkpt lat="43.0058" lon="1.96239">
        <ele>357.02319348</ele>
        <time>2016-08-23T09:30:55Z</time>
      </trkpt>
      <trkpt lat="43.00597" lon="1.96255">
        <ele>361.023891</ele>
        <time>2016-08-23T09:30:59Z</time>
      </trkpt>
      <trkpt lat="43.00606" lon="1.96268">
        <ele>364.02423296</ele>
        <time>2016-08-23T09:31:02Z</time>
      </trkpt>
      <trkpt lat="43.00614" lon="1.96282">
        <ele>369.0245502</ele>
        <time>2016-08-23T09:31:06Z</time>
      </trkpt>
      <trkpt lat="43.0066" lon="1.96321">
        <ele>364.02641712</ele>
        <time>2016-08-23T09:31:11Z</time>
      </trkpt>
      <trkpt lat="43.00679" lon="1.96353">
        <ele>364.0271686</ele>
        <time>2016-08-23T09:31:16Z</time>
      </trkpt>
      <trkpt lat="43.00696" lon="1.96386">
        <ele>365.02785772</ele>
        <time>2016-08-23T09:31:20Z</time>
      </trkpt>
      <trkpt lat="43.00719" lon="1.96405">
        <ele>368.02877496</ele>
        <time>2016-08-23T09:31:24Z</time>
      </trkpt>
      <trkpt lat="43.00749" lon="1.9643">
        <ele>363.02994152</ele>
        <time>2016-08-23T09:31:29Z</time>
      </trkpt>
      <trkpt lat="43.00771" lon="1.96456">
        <ele>364.03082756</ele>
        <time>2016-08-23T09:31:34Z</time>
      </trkpt>
      <trkpt lat="43.00793" lon="1.96469">
        <ele>363.03169976</ele>
        <time>2016-08-23T09:31:38Z</time>
      </trkpt>
      <trkpt lat="43.00824" lon="1.96476">
        <ele>366.03294468</ele>
        <time>2016-08-23T09:31:42Z</time>
      </trkpt>
      <trkpt lat="43.00843" lon="1.96477">
        <ele>365.03373016</ele>
        <time>2016-08-23T09:31:46Z</time>
      </trkpt>
      <trkpt lat="43.00876" lon="1.9648">
        <ele>362.03504048</ele>
        <time>2016-08-23T09:31:51Z</time>
      </trkpt>
      <trkpt lat="43.009" lon="1.96485">
        <ele>364.03601148</ele>
        <time>2016-08-23T09:31:56Z</time>
      </trkpt>
      <trkpt lat="43.00894" lon="1.9649">
        <ele>360.03576516</ele>
        <time>2016-08-23T09:32:01Z</time>
      </trkpt>
      <trkpt lat="43.00889" lon="1.96497">
        <ele>361.03556592</ele>
        <time>2016-08-23T09:32:06Z</time>
      </trkpt>
      <trkpt lat="43.00875" lon="1.96517">
        <ele>361.0349818</ele>
        <time>2016-08-23T09:32:11Z</time>
      </trkpt>
      <trkpt lat="43.00857" lon="1.96537">
        <ele>359.03426208</ele>
        <time>2016-08-23T09:32:16Z</time>
      </trkpt>
      <trkpt lat="43.00845" lon="1.9656">
        <ele>356.03378788</ele>
        <time>2016-08-23T09:32:21Z</time>
      </trkpt>
      <trkpt lat="43.00836" lon="1.96574">
        <ele>359.0334182</ele>
        <time>2016-08-23T09:32:25Z</time>
      </trkpt>
      <trkpt lat="43.00832" lon="1.96594">
        <ele>359.03327252</ele>
        <time>2016-08-23T09:32:29Z</time>
      </trkpt>
      <trkpt lat="43.00823" lon="1.96614">
        <ele>357.0329018</ele>
        <time>2016-08-23T09:32:33Z</time>
      </trkpt>
      <trkpt lat="43.00814" lon="1.96635">
        <ele>359.03256872</ele>
        <time>2016-08-23T09:32:38Z</time>
      </trkpt>
      <trkpt lat="43.0081" lon="1.96657">
        <ele>357.03240492</ele>
        <time>2016-08-23T09:32:42Z</time>
      </trkpt>
      <trkpt lat="43.00805" lon="1.96675">
        <ele>359.03220208</ele>
        <time>2016-08-23T09:32:46Z</time>
      </trkpt>
      <trkpt lat="43.00798" lon="1.96714">
        <ele>359.0319056</ele>
        <time>2016-08-23T09:32:51Z</time>
      </trkpt>
      <trkpt lat="43.00796" lon="1.96752">
        <ele>357.03184132</ele>
        <time>2016-08-23T09:32:55Z</time>
      </trkpt>
      <trkpt lat="43.00789" lon="1.96782">
        <ele>359.0315614</ele>
        <time>2016-08-23T09:33:00Z</time>
      </trkpt>
      <trkpt lat="43.00783" lon="1.96808">
        <ele>360.0313292</ele>
        <time>2016-08-23T09:33:05Z</time>
      </trkpt>
      <trkpt lat="43.00781" lon="1.96833">
        <ele>361.03123096</ele>
        <time>2016-08-23T09:33:09Z</time>
      </trkpt>
      <trkpt lat="43.00779" lon="1.96853">
        <ele>361.03116776</ele>
        <time>2016-08-23T09:33:13Z</time>
      </trkpt>
      <trkpt lat="43.00773" lon="1.9688">
        <ele>358.03090712</ele>
        <time>2016-08-23T09:33:18Z</time>
      </trkpt>
      <trkpt lat="43.0077" lon="1.969">
        <ele>359.03080752</ele>
        <time>2016-08-23T09:33:22Z</time>
      </trkpt>
      <trkpt lat="43.00768" lon="1.96927">
        <ele>358.03071044</ele>
        <time>2016-08-23T09:33:27Z</time>
      </trkpt>
      <trkpt lat="43.00766" lon="1.9695">
        <ele>356.03062656</ele>
        <time>2016-08-23T09:33:31Z</time>
      </trkpt>
      <trkpt lat="43.00761" lon="1.96973">
        <ele>358.0304498</ele>
        <time>2016-08-23T09:33:36Z</time>
      </trkpt>
      <trkpt lat="43.0076" lon="1.97002">
        <ele>359.0303958</ele>
        <time>2016-08-23T09:33:40Z</time>
      </trkpt>
      <trkpt lat="43.00756" lon="1.97043">
        <ele>362.030231</ele>
        <time>2016-08-23T09:33:45Z</time>
      </trkpt>
      <trkpt lat="43.00749" lon="1.97069">
        <ele>365.02995008</ele>
        <time>2016-08-23T09:33:49Z</time>
      </trkpt>
      <trkpt lat="43.00748" lon="1.9709">
        <ele>366.0299338</ele>
        <time>2016-08-23T09:33:53Z</time>
      </trkpt>
      <trkpt lat="43.00745" lon="1.97111">
        <ele>368.02981428</ele>
        <time>2016-08-23T09:33:58Z</time>
      </trkpt>
      <trkpt lat="43.00744" lon="1.97135">
        <ele>370.029741</ele>
        <time>2016-08-23T09:34:03Z</time>
      </trkpt>
      <trkpt lat="43.00739" lon="1.97156">
        <ele>371.02957552</ele>
        <time>2016-08-23T09:34:07Z</time>
      </trkpt>
      <trkpt lat="43.00735" lon="1.97183">
        <ele>370.02940364</ele>
        <time>2016-08-23T09:34:12Z</time>
      </trkpt>
      <trkpt lat="43.00739" lon="1.97204">
        <ele>367.0295678</ele>
        <time>2016-08-23T09:34:16Z</time>
      </trkpt>
      <trkpt lat="43.00738" lon="1.97216">
        <ele>368.0295304</ele>
        <time>2016-08-23T09:34:20Z</time>
      </trkpt>
      <trkpt lat="43.00735" lon="1.97248">
        <ele>368.02939068</ele>
        <time>2016-08-23T09:34:24Z</time>
      </trkpt>
      <trkpt lat="43.00741" lon="1.9729">
        <ele>371.0296202</ele>
        <time>2016-08-23T09:34:29Z</time>
      </trkpt>
      <trkpt lat="43.0074" lon="1.9732">
        <ele>371.02961088</ele>
        <time>2016-08-23T09:34:33Z</time>
      </trkpt>
      <trkpt lat="43.0074" lon="1.97347">
        <ele>370.02958188</ele>
        <time>2016-08-23T09:34:37Z</time>
      </trkpt>
      <trkpt lat="43.00745" lon="1.97373">
        <ele>371.0298026</ele>
        <time>2016-08-23T09:34:41Z</time>
      </trkpt>
      <trkpt lat="43.0075" lon="1.97401">
        <ele>372.0300072</ele>
        <time>2016-08-23T09:34:45Z</time>
      </trkpt>
      <trkpt lat="43.00753" lon="1.97428">
        <ele>372.03011232</ele>
        <time>2016-08-23T09:34:49Z</time>
      </trkpt>
      <trkpt lat="43.0076" lon="1.97451">
        <ele>374.03039556</ele>
        <time>2016-08-23T09:34:53Z</time>
      </trkpt>
      <trkpt lat="43.00768" lon="1.9748">
        <ele>374.03071748</ele>
        <time>2016-08-23T09:34:58Z</time>
      </trkpt>
      <trkpt lat="43.00769" lon="1.97505">
        <ele>369.03075304</ele>
        <time>2016-08-23T09:35:02Z</time>
      </trkpt>
      <trkpt lat="43.00769" lon="1.97531">
        <ele>372.03075604</ele>
        <time>2016-08-23T09:35:06Z</time>
      </trkpt>
      <trkpt lat="43.00773" lon="1.9755">
        <ele>374.03092024</ele>
        <time>2016-08-23T09:35:10Z</time>
      </trkpt>
      <trkpt lat="43.00774" lon="1.97572">
        <ele>374.03096712</ele>
        <time>2016-08-23T09:35:14Z</time>
      </trkpt>
      <trkpt lat="43.00775" lon="1.97589">
        <ele>375.03099212</ele>
        <time>2016-08-23T09:35:17Z</time>
      </trkpt>
      <trkpt lat="43.00775" lon="1.97589">
        <ele>375.03099212</ele>
        <time>2016-08-23T09:36:31Z</time>
      </trkpt>
      <trkpt lat="43.00872" lon="1.98102">
        <ele>330.03489108</ele>
        <time>2016-08-23T09:36:36Z</time>
      </trkpt>
      <trkpt lat="43.00876" lon="1.98109">
        <ele>348.03505024</ele>
        <time>2016-08-23T09:36:40Z</time>
      </trkpt>
      <trkpt lat="43.00879" lon="1.98123">
        <ele>362.03514312</ele>
        <time>2016-08-23T09:36:44Z</time>
      </trkpt>
      <trkpt lat="43.00882" lon="1.98156">
        <ele>353.0352936</ele>
        <time>2016-08-23T09:36:48Z</time>
      </trkpt>
      <trkpt lat="43.0089" lon="1.98172">
        <ele>384.03560688</ele>
        <time>2016-08-23T09:36:52Z</time>
      </trkpt>
      <trkpt lat="43.00893" lon="1.98199">
        <ele>373.0357304</ele>
        <time>2016-08-23T09:36:56Z</time>
      </trkpt>
      <trkpt lat="43.00892" lon="1.98226">
        <ele>372.03567032</ele>
        <time>2016-08-23T09:37:01Z</time>
      </trkpt>
      <trkpt lat="43.009" lon="1.9826">
        <ele>375.0359964</ele>
        <time>2016-08-23T09:37:05Z</time>
      </trkpt>
      <trkpt lat="43.00892" lon="1.98289">
        <ele>374.03566844</ele>
        <time>2016-08-23T09:37:10Z</time>
      </trkpt>
      <trkpt lat="43.00894" lon="1.9831">
        <ele>376.03574128</ele>
        <time>2016-08-23T09:37:14Z</time>
      </trkpt>
      <trkpt lat="43.00889" lon="1.98339">
        <ele>374.03555512</ele>
        <time>2016-08-23T09:37:19Z</time>
      </trkpt>
      <trkpt lat="43.00889" lon="1.98366">
        <ele>378.03556012</ele>
        <time>2016-08-23T09:37:23Z</time>
      </trkpt>
      <trkpt lat="43.00881" lon="1.98391">
        <ele>378.03524</ele>
        <time>2016-08-23T09:37:27Z</time>
      </trkpt>
      <trkpt lat="43.00877" lon="1.98419">
        <ele>380.03506596</ele>
        <time>2016-08-23T09:37:31Z</time>
      </trkpt>
      <trkpt lat="43.00868" lon="1.98448">
        <ele>372.03473752</ele>
        <time>2016-08-23T09:37:36Z</time>
      </trkpt>
      <trkpt lat="43.00858" lon="1.98468">
        <ele>373.03432076</ele>
        <time>2016-08-23T09:37:40Z</time>
      </trkpt>
      <trkpt lat="43.00846" lon="1.98482">
        <ele>374.0338424</ele>
        <time>2016-08-23T09:37:44Z</time>
      </trkpt>
      <trkpt lat="43.00832" lon="1.98501">
        <ele>374.03327876</ele>
        <time>2016-08-23T09:37:48Z</time>
      </trkpt>
      <trkpt lat="43.00817" lon="1.98528">
        <ele>373.03267192</ele>
        <time>2016-08-23T09:37:53Z</time>
      </trkpt>
      <trkpt lat="43.00804" lon="1.98559">
        <ele>365.0321622</ele>
        <time>2016-08-23T09:37:57Z</time>
      </trkpt>
      <trkpt lat="43.00791" lon="1.98575">
        <ele>362.03161884</ele>
        <time>2016-08-23T09:38:01Z</time>
      </trkpt>
      <trkpt lat="43.00772" lon="1.98595">
        <ele>359.03086064</ele>
        <time>2016-08-23T09:38:05Z</time>
      </trkpt>
      <trkpt lat="43.00757" lon="1.98608">
        <ele>363.03029696</ele>
        <time>2016-08-23T09:38:09Z</time>
      </trkpt>
      <trkpt lat="43.00736" lon="1.9862">
        <ele>364.02942148</ele>
        <time>2016-08-23T09:38:14Z</time>
      </trkpt>
      <trkpt lat="43.00714" lon="1.98643">
        <ele>366.0285726</ele>
        <time>2016-08-23T09:38:19Z</time>
      </trkpt>
      <trkpt lat="43.00697" lon="1.98655">
        <ele>366.02789408</ele>
        <time>2016-08-23T09:38:23Z</time>
      </trkpt>
      <trkpt lat="43.00673" lon="1.98669">
        <ele>366.02692636</ele>
        <time>2016-08-23T09:38:28Z</time>
      </trkpt>
      <trkpt lat="43.00656" lon="1.98684">
        <ele>367.0262404</ele>
        <time>2016-08-23T09:38:32Z</time>
      </trkpt>
      <trkpt lat="43.00637" lon="1.98695">
        <ele>366.02548972</ele>
        <time>2016-08-23T09:38:37Z</time>
      </trkpt>
      <trkpt lat="43.00617" lon="1.98703">
        <ele>367.02467508</ele>
        <time>2016-08-23T09:38:41Z</time>
      </trkpt>
      <trkpt lat="43.006" lon="1.98707">
        <ele>364.02400472</ele>
        <time>2016-08-23T09:38:45Z</time>
      </trkpt>
      <trkpt lat="43.0058" lon="1.98714">
        <ele>362.02319976</ele>
        <time>2016-08-23T09:38:49Z</time>
      </trkpt>
      <trkpt lat="43.0056" lon="1.98721">
        <ele>360.02240456</ele>
        <time>2016-08-23T09:38:53Z</time>
      </trkpt>
      <trkpt lat="43.00541" lon="1.9873">
        <ele>364.02165036</ele>
        <time>2016-08-23T09:38:58Z</time>
      </trkpt>
      <trkpt lat="43.00518" lon="1.9874">
        <ele>368.0207102</ele>
        <time>2016-08-23T09:39:03Z</time>
      </trkpt>
      <trkpt lat="43.00494" lon="1.98751">
        <ele>369.01976084</ele>
        <time>2016-08-23T09:39:08Z</time>
      </trkpt>
      <trkpt lat="43.00477" lon="1.98758">
        <ele>368.01907872</ele>
        <time>2016-08-23T09:39:12Z</time>
      </trkpt>
      <trkpt lat="43.00449" lon="1.98767">
        <ele>367.01795156</ele>
        <time>2016-08-23T09:39:17Z</time>
      </trkpt>
      <trkpt lat="43.00427" lon="1.9878">
        <ele>367.01706452</ele>
        <time>2016-08-23T09:39:22Z</time>
      </trkpt>
      <trkpt lat="43.00409" lon="1.98792">
        <ele>368.01634552</ele>
        <time>2016-08-23T09:39:26Z</time>
      </trkpt>
      <trkpt lat="43.00389" lon="1.98808">
        <ele>369.01554288</ele>
        <time>2016-08-23T09:39:31Z</time>
      </trkpt>
      <trkpt lat="43.00372" lon="1.9882">
        <ele>367.01486416</ele>
        <time>2016-08-23T09:39:35Z</time>
      </trkpt>
      <trkpt lat="43.00353" lon="1.98836">
        <ele>363.01410584</ele>
        <time>2016-08-23T09:39:39Z</time>
      </trkpt>
      <trkpt lat="43.00339" lon="1.98854">
        <ele>362.0135618</ele>
        <time>2016-08-23T09:39:43Z</time>
      </trkpt>
      <trkpt lat="43.00324" lon="1.98867">
        <ele>364.01297616</ele>
        <time>2016-08-23T09:39:47Z</time>
      </trkpt>
      <trkpt lat="43.00312" lon="1.98878">
        <ele>366.01246772</ele>
        <time>2016-08-23T09:39:51Z</time>
      </trkpt>
      <trkpt lat="43.00294" lon="1.98894">
        <ele>364.0117564</ele>
        <time>2016-08-23T09:39:55Z</time>
      </trkpt>
      <trkpt lat="43.00278" lon="1.98907">
        <ele>365.01112484</ele>
        <time>2016-08-23T09:39:59Z</time>
      </trkpt>
      <trkpt lat="43.00258" lon="1.98928">
        <ele>366.01031792</ele>
        <time>2016-08-23T09:40:04Z</time>
      </trkpt>
      <trkpt lat="43.00243" lon="1.98948">
        <ele>368.00970768</ele>
        <time>2016-08-23T09:40:09Z</time>
      </trkpt>
      <trkpt lat="43.00224" lon="1.98956">
        <ele>370.00896568</ele>
        <time>2016-08-23T09:40:13Z</time>
      </trkpt>
      <trkpt lat="43.00209" lon="1.98974">
        <ele>369.00835624</ele>
        <time>2016-08-23T09:40:17Z</time>
      </trkpt>
      <trkpt lat="43.0019" lon="1.98992">
        <ele>367.00759924</ele>
        <time>2016-08-23T09:40:22Z</time>
      </trkpt>
      <trkpt lat="43.00177" lon="1.98999">
        <ele>369.0070708</ele>
        <time>2016-08-23T09:40:26Z</time>
      </trkpt>
      <trkpt lat="43.00162" lon="1.9901">
        <ele>370.00649544</ele>
        <time>2016-08-23T09:40:30Z</time>
      </trkpt>
      <trkpt lat="43.00146" lon="1.99025">
        <ele>370.0058302</ele>
        <time>2016-08-23T09:40:35Z</time>
      </trkpt>
      <trkpt lat="43.0013" lon="1.99042">
        <ele>372.00518988</ele>
        <time>2016-08-23T09:40:40Z</time>
      </trkpt>
      <trkpt lat="43.00118" lon="1.99053">
        <ele>372.00470964</ele>
        <time>2016-08-23T09:40:44Z</time>
      </trkpt>
      <trkpt lat="43.00101" lon="1.99069">
        <ele>371.00403804</ele>
        <time>2016-08-23T09:40:49Z</time>
      </trkpt>
      <trkpt lat="43.00083" lon="1.9909">
        <ele>371.00330812</ele>
        <time>2016-08-23T09:40:53Z</time>
      </trkpt>
      <trkpt lat="43.0007" lon="1.99113">
        <ele>372.00279912</ele>
        <time>2016-08-23T09:40:58Z</time>
      </trkpt>
      <trkpt lat="43.00056" lon="1.99124">
        <ele>371.002225</ele>
        <time>2016-08-23T09:41:02Z</time>
      </trkpt>
      <trkpt lat="43.0004" lon="1.9914">
        <ele>373.00161496</ele>
        <time>2016-08-23T09:41:06Z</time>
      </trkpt>
      <trkpt lat="43.00026" lon="1.99153">
        <ele>372.00102876</ele>
        <time>2016-08-23T09:41:11Z</time>
      </trkpt>
      <trkpt lat="43.00015" lon="1.9918">
        <ele>372.000598</ele>
        <time>2016-08-23T09:41:15Z</time>
      </trkpt>
      <trkpt lat="43.00005" lon="1.99206">
        <ele>372.00018044</ele>
        <time>2016-08-23T09:41:20Z</time>
      </trkpt>
      <trkpt lat="42.99997" lon="1.99233">
        <ele>368.99989548</ele>
        <time>2016-08-23T09:41:24Z</time>
      </trkpt>
      <trkpt lat="42.99984" lon="1.99251">
        <ele>369.99937616</ele>
        <time>2016-08-23T09:41:28Z</time>
      </trkpt>
      <trkpt lat="42.99973" lon="1.99277">
        <ele>367.99893216</ele>
        <time>2016-08-23T09:41:32Z</time>
      </trkpt>
      <trkpt lat="42.99966" lon="1.99308">
        <ele>369.99864256</ele>
        <time>2016-08-23T09:41:37Z</time>
      </trkpt>
      <trkpt lat="42.99954" lon="1.99325">
        <ele>371.99814276</ele>
        <time>2016-08-23T09:41:41Z</time>
      </trkpt>
      <trkpt lat="42.99944" lon="1.9935">
        <ele>369.99775396</ele>
        <time>2016-08-23T09:41:46Z</time>
      </trkpt>
      <trkpt lat="42.99936" lon="1.99381">
        <ele>369.99742468</ele>
        <time>2016-08-23T09:41:51Z</time>
      </trkpt>
      <trkpt lat="42.99927" lon="1.99402">
        <ele>371.99706732</ele>
        <time>2016-08-23T09:41:56Z</time>
      </trkpt>
      <trkpt lat="42.99913" lon="1.99417">
        <ele>371.99651008</ele>
        <time>2016-08-23T09:42:00Z</time>
      </trkpt>
      <trkpt lat="42.99909" lon="1.99437">
        <ele>369.99636012</ele>
        <time>2016-08-23T09:42:04Z</time>
      </trkpt>
      <trkpt lat="42.99901" lon="1.99469">
        <ele>369.99603192</ele>
        <time>2016-08-23T09:42:09Z</time>
      </trkpt>
      <trkpt lat="42.99893" lon="1.99494">
        <ele>370.99572576</ele>
        <time>2016-08-23T09:42:14Z</time>
      </trkpt>
      <trkpt lat="42.99895" lon="1.99515">
        <ele>368.99578964</ele>
        <time>2016-08-23T09:42:18Z</time>
      </trkpt>
      <trkpt lat="42.99889" lon="1.99548">
        <ele>369.99557604</ele>
        <time>2016-08-23T09:42:23Z</time>
      </trkpt>
      <trkpt lat="42.99889" lon="1.99571">
        <ele>370.99553968</ele>
        <time>2016-08-23T09:42:28Z</time>
      </trkpt>
      <trkpt lat="42.99884" lon="1.99586">
        <ele>370.99534264</ele>
        <time>2016-08-23T09:42:32Z</time>
      </trkpt>
      <trkpt lat="42.99883" lon="1.99617">
        <ele>369.99533336</ele>
        <time>2016-08-23T09:42:36Z</time>
      </trkpt>
      <trkpt lat="42.99879" lon="1.99641">
        <ele>370.99514116</ele>
        <time>2016-08-23T09:42:40Z</time>
      </trkpt>
      <trkpt lat="42.99875" lon="1.99654">
        <ele>374.99500024</ele>
        <time>2016-08-23T09:42:43Z</time>
      </trkpt>
      <trkpt lat="42.99869" lon="1.99678">
        <ele>377.99475348</ele>
        <time>2016-08-23T09:42:47Z</time>
      </trkpt>
      <trkpt lat="42.99865" lon="1.99704">
        <ele>375.99458724</ele>
        <time>2016-08-23T09:42:51Z</time>
      </trkpt>
      <trkpt lat="42.99859" lon="1.99731">
        <ele>377.99437052</ele>
        <time>2016-08-23T09:42:56Z</time>
      </trkpt>
      <trkpt lat="42.99857" lon="1.99753">
        <ele>377.99428548</ele>
        <time>2016-08-23T09:43:00Z</time>
      </trkpt>
      <trkpt lat="42.99853" lon="1.9978">
        <ele>377.99410804</ele>
        <time>2016-08-23T09:43:05Z</time>
      </trkpt>
      <trkpt lat="42.99838" lon="1.99804">
        <ele>382.99350544</ele>
        <time>2016-08-23T09:43:10Z</time>
      </trkpt>
      <trkpt lat="42.99834" lon="1.99821">
        <ele>383.99335024</ele>
        <time>2016-08-23T09:43:14Z</time>
      </trkpt>
      <trkpt lat="42.99831" lon="1.99848">
        <ele>384.99322708</ele>
        <time>2016-08-23T09:43:19Z</time>
      </trkpt>
      <trkpt lat="42.99828" lon="1.99879">
        <ele>380.99311352</ele>
        <time>2016-08-23T09:43:24Z</time>
      </trkpt>
      <trkpt lat="42.99822" lon="1.99895">
        <ele>381.99289516</ele>
        <time>2016-08-23T09:43:28Z</time>
      </trkpt>
      <trkpt lat="42.99808" lon="1.99913">
        <ele>380.99233116</ele>
        <time>2016-08-23T09:43:33Z</time>
      </trkpt>
      <trkpt lat="42.99801" lon="1.99929">
        <ele>382.9920192</ele>
        <time>2016-08-23T09:43:38Z</time>
      </trkpt>
      <trkpt lat="42.99801" lon="1.99929">
        <ele>382.9920192</ele>
        <time>2016-08-23T09:44:53Z</time>
      </trkpt>
      <trkpt lat="42.99572" lon="2.00219">
        <ele>367.9916274</ele>
        <time>2016-08-23T09:44:58Z</time>
      </trkpt>
      <trkpt lat="42.99557" lon="2.00223">
        <ele>368.99117836</ele>
        <time>2016-08-23T09:45:02Z</time>
      </trkpt>
      <trkpt lat="42.99543" lon="2.00228">
        <ele>365.99085124</ele>
        <time>2016-08-23T09:45:06Z</time>
      </trkpt>
      <trkpt lat="42.99523" lon="2.00238">
        <ele>363.99045204</ele>
        <time>2016-08-23T09:45:11Z</time>
      </trkpt>
      <trkpt lat="42.99508" lon="2.00244">
        <ele>367.99008212</ele>
        <time>2016-08-23T09:45:15Z</time>
      </trkpt>
      <trkpt lat="42.99487" lon="2.0025">
        <ele>367.98946812</ele>
        <time>2016-08-23T09:45:20Z</time>
      </trkpt>
      <trkpt lat="42.99469" lon="2.00257">
        <ele>368.98907072</ele>
        <time>2016-08-23T09:45:24Z</time>
      </trkpt>
      <trkpt lat="42.99453" lon="2.00262">
        <ele>365.98859276</ele>
        <time>2016-08-23T09:45:28Z</time>
      </trkpt>
      <trkpt lat="42.99435" lon="2.00265">
        <ele>365.98797416</ele>
        <time>2016-08-23T09:45:32Z</time>
      </trkpt>
      <trkpt lat="42.99419" lon="2.00268">
        <ele>365.98746356</ele>
        <time>2016-08-23T09:45:36Z</time>
      </trkpt>
      <trkpt lat="42.99401" lon="2.00269">
        <ele>368.98677908</ele>
        <time>2016-08-23T09:45:40Z</time>
      </trkpt>
      <trkpt lat="42.99385" lon="2.00272">
        <ele>369.98626144</ele>
        <time>2016-08-23T09:45:44Z</time>
      </trkpt>
      <trkpt lat="42.99366" lon="2.00271">
        <ele>368.98551096</ele>
        <time>2016-08-23T09:45:49Z</time>
      </trkpt>
      <trkpt lat="42.99355" lon="2.00271">
        <ele>368.98503952</ele>
        <time>2016-08-23T09:45:53Z</time>
      </trkpt>
      <trkpt lat="42.99334" lon="2.00271">
        <ele>368.98418088</ele>
        <time>2016-08-23T09:45:58Z</time>
      </trkpt>
      <trkpt lat="42.99313" lon="2.00271">
        <ele>370.98336048</ele>
        <time>2016-08-23T09:46:02Z</time>
      </trkpt>
      <trkpt lat="42.99295" lon="2.00269">
        <ele>371.98253032</ele>
        <time>2016-08-23T09:46:07Z</time>
      </trkpt>
      <trkpt lat="42.99273" lon="2.00267">
        <ele>370.98157384</ele>
        <time>2016-08-23T09:46:11Z</time>
      </trkpt>
      <trkpt lat="42.99255" lon="2.00261">
        <ele>368.98064092</ele>
        <time>2016-08-23T09:46:15Z</time>
      </trkpt>
      <trkpt lat="42.99232" lon="2.00257">
        <ele>366.97957004</ele>
        <time>2016-08-23T09:46:19Z</time>
      </trkpt>
      <trkpt lat="42.99222" lon="2.00252">
        <ele>370.97897272</ele>
        <time>2016-08-23T09:46:24Z</time>
      </trkpt>
      <trkpt lat="42.99205" lon="2.00249">
        <ele>370.9781462</ele>
        <time>2016-08-23T09:46:29Z</time>
      </trkpt>
      <trkpt lat="42.99192" lon="2.00242">
        <ele>371.97735408</ele>
        <time>2016-08-23T09:46:33Z</time>
      </trkpt>
      <trkpt lat="42.99162" lon="2.00231">
        <ele>371.97571412</ele>
        <time>2016-08-23T09:46:38Z</time>
      </trkpt>
      <trkpt lat="42.99145" lon="2.00223">
        <ele>372.97470932</ele>
        <time>2016-08-23T09:46:42Z</time>
      </trkpt>
      <trkpt lat="42.99132" lon="2.00219">
        <ele>370.97402756</ele>
        <time>2016-08-23T09:46:46Z</time>
      </trkpt>
      <trkpt lat="42.99114" lon="2.00215">
        <ele>369.97315956</ele>
        <time>2016-08-23T09:46:50Z</time>
      </trkpt>
      <trkpt lat="42.99097" lon="2.00207">
        <ele>372.9721726</ele>
        <time>2016-08-23T09:46:54Z</time>
      </trkpt>
      <trkpt lat="42.99086" lon="2.00208">
        <ele>372.97175012</ele>
        <time>2016-08-23T09:46:58Z</time>
      </trkpt>
      <trkpt lat="42.99073" lon="2.00207">
        <ele>374.97118488</ele>
        <time>2016-08-23T09:47:02Z</time>
      </trkpt>
      <trkpt lat="42.9905" lon="2.00206">
        <ele>373.97022924</ele>
        <time>2016-08-23T09:47:06Z</time>
      </trkpt>
      <trkpt lat="42.99027" lon="2.00205">
        <ele>373.96925448</ele>
        <time>2016-08-23T09:47:11Z</time>
      </trkpt>
      <trkpt lat="42.99012" lon="2.00207">
        <ele>375.9687634</ele>
        <time>2016-08-23T09:47:15Z</time>
      </trkpt>
      <trkpt lat="42.98994" lon="2.00209">
        <ele>374.96809392</ele>
        <time>2016-08-23T09:47:19Z</time>
      </trkpt>
      <trkpt lat="42.98973" lon="2.00207">
        <ele>372.96718964</ele>
        <time>2016-08-23T09:47:23Z</time>
      </trkpt>
      <trkpt lat="42.9894" lon="2.00205">
        <ele>376.96579408</ele>
        <time>2016-08-23T09:47:28Z</time>
      </trkpt>
      <trkpt lat="42.98928" lon="2.00215">
        <ele>375.96573252</ele>
        <time>2016-08-23T09:47:32Z</time>
      </trkpt>
      <trkpt lat="42.98923" lon="2.0023">
        <ele>380.96610036</ele>
        <time>2016-08-23T09:47:36Z</time>
      </trkpt>
      <trkpt lat="42.98903" lon="2.00231">
        <ele>380.96537764</ele>
        <time>2016-08-23T09:47:40Z</time>
      </trkpt>
      <trkpt lat="42.98891" lon="2.00239">
        <ele>378.96519756</ele>
        <time>2016-08-23T09:47:44Z</time>
      </trkpt>
      <trkpt lat="42.98873" lon="2.00246">
        <ele>381.9647594</ele>
        <time>2016-08-23T09:47:49Z</time>
      </trkpt>
      <trkpt lat="42.98852" lon="2.00252">
        <ele>384.96418752</ele>
        <time>2016-08-23T09:47:54Z</time>
      </trkpt>
      <trkpt lat="42.98846" lon="2.00263">
        <ele>386.96435028</ele>
        <time>2016-08-23T09:47:58Z</time>
      </trkpt>
      <trkpt lat="42.98823" lon="2.00269">
        <ele>383.96370616</ele>
        <time>2016-08-23T09:48:02Z</time>
      </trkpt>
      <trkpt lat="42.98798" lon="2.00275">
        <ele>380.96291736</ele>
        <time>2016-08-23T09:48:06Z</time>
      </trkpt>
      <trkpt lat="42.98773" lon="2.00281">
        <ele>379.9621872</ele>
        <time>2016-08-23T09:48:11Z</time>
      </trkpt>
      <trkpt lat="42.98765" lon="2.00286">
        <ele>376.96203184</ele>
        <time>2016-08-23T09:48:15Z</time>
      </trkpt>
      <trkpt lat="42.9875" lon="2.00289">
        <ele>379.96152656</ele>
        <time>2016-08-23T09:48:20Z</time>
      </trkpt>
      <trkpt lat="42.98733" lon="2.00298">
        <ele>377.9612122</ele>
        <time>2016-08-23T09:48:25Z</time>
      </trkpt>
      <trkpt lat="42.98726" lon="2.00293">
        <ele>379.96075996</ele>
        <time>2016-08-23T09:48:29Z</time>
      </trkpt>
      <trkpt lat="42.98704" lon="2.00291">
        <ele>379.95979528</ele>
        <time>2016-08-23T09:48:33Z</time>
      </trkpt>
      <trkpt lat="42.98693" lon="2.00277">
        <ele>380.95878288</ele>
        <time>2016-08-23T09:48:37Z</time>
      </trkpt>
      <trkpt lat="42.98668" lon="2.00269">
        <ele>381.95748936</ele>
        <time>2016-08-23T09:48:42Z</time>
      </trkpt>
      <trkpt lat="42.98649" lon="2.00269">
        <ele>384.95672088</ele>
        <time>2016-08-23T09:48:46Z</time>
      </trkpt>
      <trkpt lat="42.98626" lon="2.0027">
        <ele>382.9558264</ele>
        <time>2016-08-23T09:48:51Z</time>
      </trkpt>
      <trkpt lat="42.98608" lon="2.00271">
        <ele>379.95513688</ele>
        <time>2016-08-23T09:48:55Z</time>
      </trkpt>
      <trkpt lat="42.9859" lon="2.00274">
        <ele>375.954542</ele>
        <time>2016-08-23T09:48:59Z</time>
      </trkpt>
      <trkpt lat="42.98574" lon="2.00276">
        <ele>374.95399204</ele>
        <time>2016-08-23T09:49:03Z</time>
      </trkpt>
      <trkpt lat="42.98559" lon="2.00281">
        <ele>371.95360532</ele>
        <time>2016-08-23T09:49:07Z</time>
      </trkpt>
      <trkpt lat="42.98541" lon="2.00285">
        <ele>373.95305872</ele>
        <time>2016-08-23T09:49:12Z</time>
      </trkpt>
      <trkpt lat="42.98527" lon="2.00286">
        <ele>373.95250576</ele>
        <time>2016-08-23T09:49:16Z</time>
      </trkpt>
      <trkpt lat="42.985" lon="2.00285">
        <ele>373.95142516</ele>
        <time>2016-08-23T09:49:21Z</time>
      </trkpt>
      <trkpt lat="42.9849" lon="2.00285">
        <ele>375.9509994</ele>
        <time>2016-08-23T09:49:25Z</time>
      </trkpt>
      <trkpt lat="42.98465" lon="2.00283">
        <ele>373.9499314</ele>
        <time>2016-08-23T09:49:30Z</time>
      </trkpt>
      <trkpt lat="42.98447" lon="2.00279">
        <ele>374.94906284</ele>
        <time>2016-08-23T09:49:34Z</time>
      </trkpt>
      <trkpt lat="42.98434" lon="2.00279">
        <ele>374.94852884</ele>
        <time>2016-08-23T09:49:39Z</time>
      </trkpt>
      <trkpt lat="42.98416" lon="2.00276">
        <ele>379.94768124</ele>
        <time>2016-08-23T09:49:43Z</time>
      </trkpt>
      <trkpt lat="42.98399" lon="2.00273">
        <ele>381.9468534</ele>
        <time>2016-08-23T09:49:47Z</time>
      </trkpt>
      <trkpt lat="42.98379" lon="2.00266">
        <ele>382.94577312</ele>
        <time>2016-08-23T09:49:52Z</time>
      </trkpt>
      <trkpt lat="42.98356" lon="2.00259">
        <ele>378.94460516</ele>
        <time>2016-08-23T09:49:56Z</time>
      </trkpt>
      <trkpt lat="42.98331" lon="2.00252">
        <ele>379.94332072</ele>
        <time>2016-08-23T09:50:01Z</time>
      </trkpt>
      <trkpt lat="42.98308" lon="2.00245">
        <ele>377.94211552</ele>
        <time>2016-08-23T09:50:06Z</time>
      </trkpt>
      <trkpt lat="42.98296" lon="2.00241">
        <ele>379.94147048</ele>
        <time>2016-08-23T09:50:10Z</time>
      </trkpt>
      <trkpt lat="42.98283" lon="2.00234">
        <ele>378.9406822</ele>
        <time>2016-08-23T09:50:14Z</time>
      </trkpt>
      <trkpt lat="42.98278" lon="2.00226">
        <ele>377.94016396</ele>
        <time>2016-08-23T09:50:21Z</time>
      </trkpt>
      <trkpt lat="42.98265" lon="2.00221">
        <ele>382.93943016</ele>
        <time>2016-08-23T09:50:25Z</time>
      </trkpt>
      <trkpt lat="42.98242" lon="2.00217">
        <ele>383.93835228</ele>
        <time>2016-08-23T09:50:30Z</time>
      </trkpt>
      <trkpt lat="42.98222" lon="2.00218">
        <ele>380.93760404</ele>
        <time>2016-08-23T09:50:35Z</time>
      </trkpt>
      <trkpt lat="42.98209" lon="2.00237">
        <ele>379.9378402</ele>
        <time>2016-08-23T09:50:40Z</time>
      </trkpt>
      <trkpt lat="42.98209" lon="2.00257">
        <ele>378.93864676</ele>
        <time>2016-08-23T09:50:44Z</time>
      </trkpt>
      <trkpt lat="42.98206" lon="2.0028">
        <ele>379.93943252</ele>
        <time>2016-08-23T09:50:49Z</time>
      </trkpt>
      <trkpt lat="42.98205" lon="2.00303">
        <ele>376.94030904</ele>
        <time>2016-08-23T09:50:53Z</time>
      </trkpt>
      <trkpt lat="42.98202" lon="2.00335">
        <ele>376.94144048</ele>
        <time>2016-08-23T09:50:57Z</time>
      </trkpt>
      <trkpt lat="42.98204" lon="2.0037">
        <ele>376.94292484</ele>
        <time>2016-08-23T09:51:02Z</time>
      </trkpt>
      <trkpt lat="42.98203" lon="2.00401">
        <ele>377.94417728</ele>
        <time>2016-08-23T09:51:06Z</time>
      </trkpt>
      <trkpt lat="42.98206" lon="2.00434">
        <ele>377.945592</ele>
        <time>2016-08-23T09:51:11Z</time>
      </trkpt>
      <trkpt lat="42.98204" lon="2.00446">
        <ele>377.94599784</ele>
        <time>2016-08-23T09:51:13Z</time>
      </trkpt>
      <trkpt lat="42.98291" lon="2.00576">
        <ele>402.95466424</ele>
        <time>2016-08-23T09:52:31Z</time>
      </trkpt>
      <trkpt lat="42.98296" lon="2.00581">
        <ele>392.95508992</ele>
        <time>2016-08-23T09:52:37Z</time>
      </trkpt>
      <trkpt lat="42.98308" lon="2.00589">
        <ele>388.9558844</ele>
        <time>2016-08-23T09:52:41Z</time>
      </trkpt>
      <trkpt lat="42.98304" lon="2.0058">
        <ele>380.95535116</ele>
        <time>2016-08-23T09:52:46Z</time>
      </trkpt>
      <trkpt lat="42.98312" lon="2.00573">
        <ele>361.95539864</ele>
        <time>2016-08-23T09:53:02Z</time>
      </trkpt>
      <trkpt lat="42.98312" lon="2.00569">
        <ele>375.95525128</ele>
        <time>2016-08-23T09:57:58Z</time>
      </trkpt>
      <trkpt lat="42.98312" lon="2.00569">
        <ele>375.95525128</ele>
        <time>2016-08-23T09:57:59Z</time>
      </trkpt>
    </trkseg>
  </trk>
</gpx>